Darstellungsparameter: Aktuell verwendete Einstellungen:
Skalierung der Graphiken ... ?
xyx+y,   Skalierungsfaktor:      Skalierung: Modus: x, Faktor: 1
Darstellungszeitraum ... ?
Vom - - bis: - -   Zeitraum: 26.08.2019 - 25.08.2020
Min/Max/Avg-Anzeige ... ?
Zeige MMA aktuell
Zeige MMA Monat
Zeige MMA alles
Zeige --A aktuell
Zeige --A Monat
Zeige --A alles
Keine MMA-Anzeige
MMA:
Keine MMA-Graphiken
MMA-Basis: 26.08.2019 - 25.08.2020
Quicknavigation für Darstellung... ?
Tage:      1T, 2T, 3T, 5T -1T -2T -3T -5T +1T +2T +3T +5T
Wochen: 1W, 2W, 3W -1W -2W -3W +1W +2W +3W
Monate: 1M, 3M, 6M -1M -3M -6M +1M +3M +6M
Jahre:    1J, 3J, 5J, 10J -1J -3J -5J -10J +1J +3J +5J +10J
Nutze für die Darstellung ... ?
Originaldaten oder ...
Mittelwerte Minima Maxima auf...
Stundenbasis Tagesbasis Wochenbasis
Monatsbasis Jahresbasis      Datenbasis: Mittelwerte auf Stundenbasis
Darstellen als:
Statistik (Auto) Statistik J:M      Darstellung:
Zur Graphik,    zurück zur Übersicht aller Sensoren.
 
Tabellarische Datenbersicht: ?
 
Sensor: Nr:Datum:Temp:Abs-Feuchte:Windchill:Wind:
Aussen-T/F 1 26-08-2019 00:00:00 19.475 C 14.76 g/m*3 19.48 C 0 km/h
2 26-08-2019 01:00:00 19.14167 C 14.65 g/m*3 19.14 C 0 km/h
3 26-08-2019 02:00:00 18.53333 C 14.39 g/m*3 18.53 C 0.13333 km/h
4 26-08-2019 03:00:00 18.025 C 14.1 g/m*3 18.02 C 0 km/h
5 26-08-2019 04:00:00 17.41667 C 13.8 g/m*3 17.42 C 0 km/h
6 26-08-2019 05:00:00 17.14167 C 13.74 g/m*3 17.14 C 0.13333 km/h
7 26-08-2019 06:00:00 16.76667 C 13.46 g/m*3 16.77 C 0 km/h
8 26-08-2019 07:00:00 16.71667 C 13.55 g/m*3 16.72 C 0 km/h
9 26-08-2019 08:00:00 17.475 C 14.29 g/m*3 17.48 C 0 km/h
10 26-08-2019 09:00:00 18.55 C 15.21 g/m*3 18.55 C 0 km/h
11 26-08-2019 10:00:00 20.15833 C 16.12 g/m*3 20.16 C 0.13333 km/h
12 26-08-2019 11:00:00 22.95 C 17.15 g/m*3 22.95 C 0.93333 km/h
13 26-08-2019 12:00:00 25.70833 C 17.45 g/m*3 25.71 C 1.86667 km/h
14 26-08-2019 13:00:00 28.3 C 16.68 g/m*3 28.3 C 5.075 km/h
15 26-08-2019 14:00:00 30.01667 C 15.99 g/m*3 30.02 C 5.08333 km/h
16 26-08-2019 15:00:00 30.85833 C 16.04 g/m*3 30.86 C 4.95 km/h
17 26-08-2019 16:00:00 28.55 C 16.58 g/m*3 28.55 C 2 km/h
18 26-08-2019 17:00:00 27.475 C 17.77 g/m*3 27.48 C 0 km/h
19 26-08-2019 18:00:00 27.10833 C 18.14 g/m*3 27.11 C 0 km/h
20 26-08-2019 19:00:00 28.06667 C 18.01 g/m*3 28.07 C 0 km/h
21 26-08-2019 20:00:00 24.69167 C 16.65 g/m*3 24.69 C 0 km/h
22 26-08-2019 21:00:00 22.45 C 16.03 g/m*3 22.45 C 0 km/h
23 26-08-2019 22:00:00 21.09167 C 15.61 g/m*3 21.09 C 0 km/h
24 26-08-2019 23:00:00 20.175 C 15.34 g/m*3 20.18 C 0.13333 km/h
25 27-08-2019 00:00:00 19.40833 C 15.01 g/m*3 19.41 C 0 km/h
Sensor: Nr:Datum:Temp:Abs-Feuchte:Windchill:Wind:
Aussen-T/F 26 27-08-2019 01:00:00 19.01667 C 15.01 g/m*3 19.02 C 0 km/h
27 27-08-2019 02:00:00 18.39167 C 14.59 g/m*3 18.39 C 0 km/h
28 27-08-2019 03:00:00 17.91667 C 14.38 g/m*3 17.92 C 0.13333 km/h
29 27-08-2019 04:00:00 17.55833 C 14.1 g/m*3 17.56 C 0 km/h
30 27-08-2019 05:00:00 17.15833 C 13.88 g/m*3 17.16 C 0 km/h
31 27-08-2019 06:00:00 16.79167 C 13.62 g/m*3 16.79 C 0 km/h
32 27-08-2019 07:00:00 16.85 C 13.77 g/m*3 16.85 C 0 km/h
33 27-08-2019 08:00:00 17.325 C 14.24 g/m*3 17.33 C 0 km/h
34 27-08-2019 09:00:00 18.4 C 15.26 g/m*3 18.4 C 0 km/h
35 27-08-2019 10:00:00 19.78333 C 16.4 g/m*3 19.78 C 0 km/h
36 27-08-2019 11:00:00 22.275 C 17.8 g/m*3 22.28 C 0 km/h
37 27-08-2019 12:00:00 25.41667 C 17.97 g/m*3 25.42 C 0 km/h
38 27-08-2019 13:00:00 28.99167 C 16.36 g/m*3 28.99 C 1.06667 km/h
39 27-08-2019 14:00:00 30.54167 C 15.38 g/m*3 30.54 C 2 km/h
40 27-08-2019 15:00:00 31.89167 C 14.46 g/m*3 31.89 C 4.95833 km/h
41 27-08-2019 16:00:00 33.23333 C 15.02 g/m*3 33.23 C 4.28333 km/h
42 27-08-2019 17:00:00 32.29167 C 16.29 g/m*3 32.29 C 1.46667 km/h
43 27-08-2019 18:00:00 29.55833 C 16.9 g/m*3 29.56 C 1.2 km/h
44 27-08-2019 19:00:00 27.7 C 17.08 g/m*3 27.7 C 5.23333 km/h
45 27-08-2019 20:00:00 23.50833 C 17.31 g/m*3 23.51 C 0.53333 km/h
46 27-08-2019 21:00:00 22.09167 C 16.5 g/m*3 22.09 C 0.4 km/h
47 27-08-2019 22:00:00 21.14167 C 15.96 g/m*3 21.14 C 0 km/h
48 27-08-2019 23:00:00 20.43333 C 15.63 g/m*3 20.43 C 0.13333 km/h
49 28-08-2019 00:00:00 19.9 C 15.48 g/m*3 19.9 C 0.4 km/h
50 28-08-2019 01:00:00 19.61667 C 15.5 g/m*3 19.62 C 0 km/h
Sensor: Nr:Datum:Temp:Abs-Feuchte:Windchill:Wind:
Aussen-T/F 51 28-08-2019 02:00:00 19.24167 C 15.32 g/m*3 19.24 C 0 km/h
52 28-08-2019 03:00:00 18.71667 C 14.98 g/m*3 18.72 C 0.4 km/h
53 28-08-2019 04:00:00 18.33333 C 14.71 g/m*3 18.33 C 0 km/h
54 28-08-2019 05:00:00 17.96667 C 14.47 g/m*3 17.97 C 0 km/h
55 28-08-2019 06:00:00 18.01667 C 14.62 g/m*3 18.02 C 0 km/h
56 28-08-2019 07:00:00 17.85833 C 14.51 g/m*3 17.86 C 0 km/h
57 28-08-2019 08:00:00 18.64167 C 15.28 g/m*3 18.64 C 0.93333 km/h
58 28-08-2019 09:00:00 19.75833 C 15.89 g/m*3 19.76 C 2.8 km/h
59 28-08-2019 10:00:00 22.45 C 15.49 g/m*3 22.45 C 7.4 km/h
60 28-08-2019 11:00:00 23.975 C 15.57 g/m*3 23.98 C 4.40833 km/h
61 28-08-2019 12:00:00 24.49167 C 15.85 g/m*3 24.49 C 4.025 km/h
62 28-08-2019 13:00:00 26.54167 C 14.76 g/m*3 26.54 C 7.66667 km/h
63 28-08-2019 14:00:00 29.44167 C 14.81 g/m*3 29.44 C 9.29167 km/h
64 28-08-2019 15:00:00 30.35833 C 13.68 g/m*3 30.36 C 11.43333 km/h
65 28-08-2019 16:00:00 31.55833 C 13.63 g/m*3 31.56 C 11.29167 km/h
66 28-08-2019 17:00:00 31.80833 C 14.03 g/m*3 31.81 C 7.39167 km/h
67 28-08-2019 18:00:00 31.18333 C 14.79 g/m*3 31.18 C 4.96667 km/h
68 28-08-2019 19:00:00 27.875 C 14.09 g/m*3 27.88 C 0.53333 km/h
69 28-08-2019 20:00:00 25.59167 C 13.46 g/m*3 25.59 C 0.4 km/h
70 28-08-2019 21:00:00 24.2 C 13.75 g/m*3 24.2 C 0.53333 km/h
71 28-08-2019 22:00:00 22.43333 C 13.94 g/m*3 22.43 C 0 km/h
72 28-08-2019 23:00:00 21.38333 C 13.92 g/m*3 21.38 C 0 km/h
73 29-08-2019 00:00:00 20.775 C 13.89 g/m*3 20.78 C 0 km/h
74 29-08-2019 01:00:00 20.10833 C 13.75 g/m*3 20.11 C 0 km/h
75 29-08-2019 02:00:00 19.2 C 13.55 g/m*3 19.2 C 0 km/h
Sensor: Nr:Datum:Temp:Abs-Feuchte:Windchill:Wind:
Aussen-T/F 76 29-08-2019 03:00:00 18.225 C 13.21 g/m*3 18.23 C 0 km/h
77 29-08-2019 04:00:00 17.53333 C 13.15 g/m*3 17.53 C 0 km/h
78 29-08-2019 05:00:00 17.78333 C 13.63 g/m*3 17.78 C 0 km/h
79 29-08-2019 06:00:00 18.34167 C 14.08 g/m*3 18.34 C 0.53333 km/h
80 29-08-2019 07:00:00 19.04167 C 14.58 g/m*3 19.04 C 2.4 km/h
81 29-08-2019 08:00:00 19.89167 C 14.95 g/m*3 19.89 C 3.06667 km/h
82 29-08-2019 09:00:00 20.7 C 15.27 g/m*3 20.7 C 2.4 km/h
83 29-08-2019 10:00:00 21.175 C 16.01 g/m*3 21.18 C 0.4 km/h
84 29-08-2019 11:00:00 22.13333 C 16.14 g/m*3 22.13 C 2.94167 km/h
85 29-08-2019 12:00:00 23.29167 C 16.23 g/m*3 23.29 C 5.075 km/h
86 29-08-2019 13:00:00 25.45 C 16.23 g/m*3 25.45 C 8.475 km/h
87 29-08-2019 14:00:00 26.78333 C 16.49 g/m*3 26.78 C 7.925 km/h
88 29-08-2019 15:00:00 27.53333 C 16.59 g/m*3 27.53 C 9.41667 km/h
89 29-08-2019 16:00:00 27.875 C 16.18 g/m*3 27.88 C 9.40833 km/h
90 29-08-2019 17:00:00 27.28333 C 15.75 g/m*3 27.28 C 8.74167 km/h
91 29-08-2019 18:00:00 26.44167 C 15.18 g/m*3 26.44 C 8.325 km/h
92 29-08-2019 19:00:00 24.73333 C 14.66 g/m*3 24.73 C 4.675 km/h
93 29-08-2019 20:00:00 22.80833 C 14.37 g/m*3 22.81 C 1.2 km/h
94 29-08-2019 21:00:00 20.89167 C 13.97 g/m*3 20.89 C 0.4 km/h
95 29-08-2019 22:00:00 20.525 C 14.05 g/m*3 20.53 C 0.13333 km/h
96 29-08-2019 23:00:00 20.48333 C 14.15 g/m*3 20.48 C 0.26667 km/h
97 30-08-2019 00:00:00 20.30833 C 13.9 g/m*3 20.31 C 2.4 km/h
98 30-08-2019 01:00:00 19.18333 C 13.66 g/m*3 19.18 C 0 km/h
99 30-08-2019 02:00:00 18.2 C 13.38 g/m*3 18.2 C 0 km/h
100 30-08-2019 03:00:00 17.48333 C 13.17 g/m*3 17.48 C 0 km/h
Sensor: Nr:Datum:Temp:Abs-Feuchte:Windchill:Wind:
Aussen-T/F 101 30-08-2019 04:00:00 16.65833 C 12.77 g/m*3 16.66 C 0 km/h
102 30-08-2019 05:00:00 15.975 C 12.62 g/m*3 15.98 C 0.13333 km/h
103 30-08-2019 06:00:00 15.91667 C 12.64 g/m*3 15.92 C 0.13333 km/h
104 30-08-2019 07:00:00 15.41667 C 12.32 g/m*3 15.42 C 0 km/h
105 30-08-2019 08:00:00 16.09167 C 12.94 g/m*3 16.09 C 0.26667 km/h
106 30-08-2019 09:00:00 17.96667 C 13.59 g/m*3 17.97 C 1.06667 km/h
107 30-08-2019 10:00:00 19.41667 C 13.65 g/m*3 19.42 C 1.2 km/h
108 30-08-2019 11:00:00 20.825 C 13.78 g/m*3 20.83 C 1.46667 km/h
109 30-08-2019 12:00:00 22.16667 C 14.24 g/m*3 22.17 C 3.86667 km/h
110 30-08-2019 13:00:00 23.59167 C 14.51 g/m*3 23.59 C 4.84167 km/h
111 30-08-2019 14:00:00 25 C 14 g/m*3 25 C 6.01667 km/h
112 30-08-2019 15:00:00 26.16667 C 12.59 g/m*3 26.17 C 5.75833 km/h
113 30-08-2019 16:00:00 27.98333 C 12.41 g/m*3 27.98 C 5.49167 km/h
114 30-08-2019 17:00:00 29.66667 C 11.27 g/m*3 29.67 C 3.73333 km/h
115 30-08-2019 18:00:00 29.54167 C 11.12 g/m*3 29.54 C 6.29167 km/h
116 30-08-2019 19:00:00 27.175 C 12.24 g/m*3 27.18 C 2.13333 km/h
117 30-08-2019 20:00:00 23 C 11.42 g/m*3 23 C 0.26667 km/h
118 30-08-2019 21:00:00 20.38333 C 11.5 g/m*3 20.38 C 0 km/h
119 30-08-2019 22:00:00 18.64167 C 11.58 g/m*3 18.64 C 0 km/h
120 30-08-2019 23:00:00 17.38333 C 11.44 g/m*3 17.38 C 0 km/h
121 31-08-2019 00:00:00 16.65 C 11.48 g/m*3 16.65 C 0 km/h
122 31-08-2019 01:00:00 15.825 C 11.35 g/m*3 15.83 C 0 km/h
123 31-08-2019 02:00:00 15.21667 C 11.21 g/m*3 15.22 C 0 km/h
124 31-08-2019 03:00:00 14.75 C 11.18 g/m*3 14.75 C 0 km/h
125 31-08-2019 04:00:00 14.31667 C 11.09 g/m*3 14.32 C 0 km/h
Sensor: Nr:Datum:Temp:Abs-Feuchte:Windchill:Wind:
Aussen-T/F 126 31-08-2019 05:00:00 14.15 C 11.15 g/m*3 14.15 C 0 km/h
127 31-08-2019 06:00:00 14.1 C 11.17 g/m*3 14.1 C 0 km/h
128 31-08-2019 07:00:00 14.10833 C 11.25 g/m*3 14.11 C 0 km/h
129 31-08-2019 08:00:00 14.76667 C 11.71 g/m*3 14.77 C 0 km/h
130 31-08-2019 09:00:00 15.89167 C 12.49 g/m*3 15.89 C 0 km/h
131 31-08-2019 10:00:00 17.8 C 13.51 g/m*3 17.8 C 0 km/h
132 31-08-2019 11:00:00 20.6 C 14.54 g/m*3 20.6 C 0 km/h
133 31-08-2019 12:00:00 23.625 C 15.57 g/m*3 23.63 C 0.675 km/h
134 31-08-2019 13:00:00 28.49167 C 15.25 g/m*3 28.49 C 7.24167 km/h
135 31-08-2019 14:00:00 30.36667 C 14.64 g/m*3 30.37 C 6.83333 km/h
136 31-08-2019 15:00:00 31.43333 C 14.19 g/m*3 31.43 C 8.2 km/h
137 31-08-2019 16:00:00 32.48333 C 14.66 g/m*3 32.48 C 6.16667 km/h
138 31-08-2019 17:00:00 33.89167 C 14.86 g/m*3 33.89 C 8.05 km/h
139 31-08-2019 18:00:00 33.71667 C 14.79 g/m*3 33.72 C 6.43333 km/h
140 31-08-2019 19:00:00 31.13333 C 15.74 g/m*3 31.13 C 0.8 km/h
141 31-08-2019 20:00:00 25.89167 C 14.52 g/m*3 25.89 C 0.4 km/h
142 31-08-2019 21:00:00 24.875 C 14.17 g/m*3 24.88 C 4.95833 km/h
143 31-08-2019 22:00:00 24.58333 C 15.85 g/m*3 24.58 C 4.81667 km/h
144 31-08-2019 23:00:00 20.69167 C 15.76 g/m*3 20.69 C 1.73333 km/h
145 01-09-2019 00:00:00 19.66667 C 15.46 g/m*3 19.67 C 0.66667 km/h
146 01-09-2019 01:00:00 19.34167 C 15.12 g/m*3 19.34 C 0.53333 km/h
147 01-09-2019 02:00:00 19.10833 C 14.09 g/m*3 19.11 C 0 km/h
148 01-09-2019 03:00:00 18.325 C 13.17 g/m*3 18.33 C 1.33333 km/h
149 01-09-2019 04:00:00 17.88333 C 12.23 g/m*3 17.88 C 2.66667 km/h
150 01-09-2019 05:00:00 17.84167 C 12.03 g/m*3 17.84 C 4.81667 km/h
Sensor: Nr:Datum:Temp:Abs-Feuchte:Windchill:Wind:
Aussen-T/F 151 01-09-2019 06:00:00 17.30833 C 11.73 g/m*3 17.31 C 2.80833 km/h
152 01-09-2019 07:00:00 16.1 C 11.74 g/m*3 16.1 C 0.53333 km/h
153 01-09-2019 08:00:00 17.48333 C 12.3 g/m*3 17.48 C 4.28333 km/h
154 01-09-2019 09:00:00 18.13333 C 12.46 g/m*3 18.13 C 5.75 km/h
155 01-09-2019 10:00:00 19.10833 C 12.55 g/m*3 19.11 C 7.65 km/h
156 01-09-2019 11:00:00 20.025 C 12.85 g/m*3 20.02 C 8.05833 km/h
157 01-09-2019 12:00:00 20.05 C 12.97 g/m*3 20.05 C 10.08333 km/h
158 01-09-2019 13:00:00 19.69167 C 13.22 g/m*3 19.69 C 11.29167 km/h
159 01-09-2019 14:00:00 20.075 C 13.13 g/m*3 20.08 C 8.04167 km/h
160 01-09-2019 15:00:00 20.61667 C 12.84 g/m*3 20.62 C 8.05 km/h
161 01-09-2019 16:00:00 20.38333 C 12.02 g/m*3 20.38 C 11.01667 km/h
162 01-09-2019 17:00:00 19.975 C 11.29 g/m*3 19.98 C 10.49167 km/h
163 01-09-2019 18:00:00 20.75833 C 10.94 g/m*3 20.76 C 10.1 km/h
164 01-09-2019 19:00:00 20.60833 C 10.37 g/m*3 20.61 C 6.725 km/h
165 01-09-2019 20:00:00 18.38333 C 10.45 g/m*3 18.38 C 1.475 km/h
166 01-09-2019 21:00:00 16.68333 C 10.27 g/m*3 16.68 C 0 km/h
167 01-09-2019 22:00:00 16.39167 C 9.96 g/m*3 16.39 C 0 km/h
168 01-09-2019 23:00:00 15.59167 C 9.97 g/m*3 15.59 C 0 km/h
169 02-09-2019 00:00:00 14.44167 C 9.36 g/m*3 14.44 C 0 km/h
170 02-09-2019 01:00:00 13.29167 C 8.99 g/m*3 13.29 C 0 km/h
171 02-09-2019 02:00:00 13.3 C 9.27 g/m*3 13.3 C 0 km/h
172 02-09-2019 03:00:00 13.025 C 9.37 g/m*3 13.03 C 0 km/h
173 02-09-2019 04:00:00 12 C 8.94 g/m*3 12 C 0.4 km/h
174 02-09-2019 05:00:00 11.21667 C 8.72 g/m*3 11.22 C 0 km/h
175 02-09-2019 06:00:00 10.15 C 8.45 g/m*3 10.15 C 0 km/h
Sensor: Nr:Datum:Temp:Abs-Feuchte:Windchill:Wind:
Aussen-T/F 176 02-09-2019 07:00:00 9.73333 C 8.47 g/m*3 9.73 C 0.53333 km/h
177 02-09-2019 08:00:00 10.03333 C 8.75 g/m*3 10.03 C 0 km/h
178 02-09-2019 09:00:00 10.83333 C 9.17 g/m*3 10.83 C 0 km/h
179 02-09-2019 10:00:00 12.85833 C 9.9 g/m*3 12.86 C 0.8 km/h
180 02-09-2019 11:00:00 16.2 C 9.16 g/m*3 16.2 C 7.93333 km/h
181 02-09-2019 12:00:00 17.53333 C 8.44 g/m*3 17.53 C 8.74167 km/h
182 02-09-2019 13:00:00 18.70833 C 7.96 g/m*3 18.71 C 9.95833 km/h
183 02-09-2019 14:00:00 19.83333 C 7.92 g/m*3 19.83 C 9.28333 km/h
184 02-09-2019 15:00:00 20.175 C 7.9 g/m*3 20.18 C 7.90833 km/h
185 02-09-2019 16:00:00 21.80833 C 7.98 g/m*3 21.81 C 9.68333 km/h
186 02-09-2019 17:00:00 23.09167 C 7.83 g/m*3 23.09 C 6.70833 km/h
187 02-09-2019 18:00:00 22.99167 C 7.67 g/m*3 22.99 C 5.48333 km/h
188 02-09-2019 19:00:00 20.575 C 8.35 g/m*3 20.58 C 1.2 km/h
189 02-09-2019 20:00:00 16.9 C 8.1 g/m*3 16.9 C 0.93333 km/h
190 02-09-2019 21:00:00 15.39167 C 7.97 g/m*3 15.39 C 0.26667 km/h
191 02-09-2019 22:00:00 13.475 C 8.19 g/m*3 13.48 C 0 km/h
192 02-09-2019 23:00:00 12.98333 C 8.24 g/m*3 12.98 C 0 km/h
193 03-09-2019 00:00:00 12.39167 C 8.17 g/m*3 12.39 C 0 km/h
194 03-09-2019 01:00:00 12.125 C 8.22 g/m*3 12.13 C 0 km/h
195 03-09-2019 02:00:00 10.89167 C 7.86 g/m*3 10.89 C 0 km/h
196 03-09-2019 03:00:00 10.175 C 7.75 g/m*3 10.18 C 0 km/h
197 03-09-2019 04:00:00 10.08333 C 7.92 g/m*3 10.08 C 0 km/h
198 03-09-2019 05:00:00 9.45 C 7.72 g/m*3 9.45 C 0 km/h
199 03-09-2019 06:00:00 8.91667 C 7.64 g/m*3 8.92 C 0 km/h
200 03-09-2019 07:00:00 8.65833 C 7.66 g/m*3 8.66 C 0.13333 km/h
Sensor: Nr:Datum:Temp:Abs-Feuchte:Windchill:Wind:
Aussen-T/F 201 03-09-2019 08:00:00 9.08333 C 7.95 g/m*3 9.08 C 0 km/h
202 03-09-2019 09:00:00 10.375 C 8.56 g/m*3 10.38 C 0.26667 km/h
203 03-09-2019 10:00:00 13.225 C 9.38 g/m*3 13.23 C 1.46667 km/h
204 03-09-2019 11:00:00 17.34167 C 9.34 g/m*3 17.34 C 5.90833 km/h
205 03-09-2019 12:00:00 19.95833 C 9.22 g/m*3 19.96 C 8.18333 km/h
206 03-09-2019 13:00:00 21.25 C 9.23 g/m*3 21.25 C 11.55833 km/h
207 03-09-2019 14:00:00 22.64167 C 9.16 g/m*3 22.64 C 10.35 km/h
208 03-09-2019 15:00:00 23.75 C 9.83 g/m*3 23.75 C 10.20833 km/h
209 03-09-2019 16:00:00 23.58333 C 10.59 g/m*3 23.58 C 10.75 km/h
210 03-09-2019 17:00:00 23.65 C 10.86 g/m*3 23.65 C 11.7 km/h
211 03-09-2019 18:00:00 23.225 C 10.95 g/m*3 23.23 C 10.63333 km/h
212 03-09-2019 19:00:00 21.11667 C 10.84 g/m*3 21.12 C 7.91667 km/h
213 03-09-2019 20:00:00 18.86667 C 10.66 g/m*3 18.87 C 2.40833 km/h
214 03-09-2019 21:00:00 16.325 C 10.42 g/m*3 16.33 C 0 km/h
215 03-09-2019 22:00:00 15.33333 C 10.37 g/m*3 15.33 C 0.13333 km/h
216 03-09-2019 23:00:00 14.05 C 10.08 g/m*3 14.05 C 0 km/h
217 04-09-2019 00:00:00 13.05 C 9.9 g/m*3 13.05 C 0 km/h
218 04-09-2019 01:00:00 12.35 C 9.74 g/m*3 12.35 C 0 km/h
219 04-09-2019 02:00:00 11.85833 C 9.58 g/m*3 11.86 C 0 km/h
220 04-09-2019 03:00:00 11.325 C 9.39 g/m*3 11.33 C 0 km/h
221 04-09-2019 04:00:00 10.74167 C 9.12 g/m*3 10.74 C 0 km/h
222 04-09-2019 05:00:00 10.36667 C 9 g/m*3 10.37 C 0 km/h
223 04-09-2019 06:00:00 10.15833 C 8.95 g/m*3 10.16 C 0 km/h
224 04-09-2019 07:00:00 10.09167 C 8.96 g/m*3 10.09 C 0 km/h
225 04-09-2019 08:00:00 10.675 C 9.35 g/m*3 10.68 C 0.4 km/h
Sensor: Nr:Datum:Temp:Abs-Feuchte:Windchill:Wind:
Aussen-T/F 226 04-09-2019 09:00:00 13.11667 C 10.54 g/m*3 13.12 C 4.26667 km/h
227 04-09-2019 10:00:00 14.875 C 10.87 g/m*3 14.88 C 3.73333 km/h
228 04-09-2019 11:00:00 18.09167 C 11.22 g/m*3 18.09 C 11.68333 km/h
229 04-09-2019 12:00:00 19.78333 C 11.25 g/m*3 19.78 C 12.1 km/h
230 04-09-2019 13:00:00 21.16667 C 11.47 g/m*3 21.17 C 12.63333 km/h
231 04-09-2019 14:00:00 22.59167 C 11.56 g/m*3 22.59 C 14.63333 km/h
232 04-09-2019 15:00:00 23.85 C 11.54 g/m*3 23.85 C 11.01667 km/h
233 04-09-2019 16:00:00 25.11667 C 11.74 g/m*3 25.12 C 11.825 km/h
234 04-09-2019 17:00:00 26.875 C 11.46 g/m*3 26.88 C 10.35 km/h
235 04-09-2019 18:00:00 25.04167 C 10.84 g/m*3 25.04 C 14.49167 km/h
236 04-09-2019 19:00:00 23.58333 C 11.1 g/m*3 23.58 C 9.65833 km/h
237 04-09-2019 20:00:00 19.81667 C 11.87 g/m*3 19.82 C 9.50833 km/h
238 04-09-2019 21:00:00 17.625 C 12.77 g/m*3 17.63 C 0.53333 km/h
239 04-09-2019 22:00:00 16.28333 C 12.52 g/m*3 16.28 C 0.53333 km/h
240 04-09-2019 23:00:00 15.64167 C 12.12 g/m*3 15.64 C 0.4 km/h
241 05-09-2019 00:00:00 15.6 C 12.1 g/m*3 15.6 C 0 km/h
242 05-09-2019 01:00:00 15.41667 C 11.73 g/m*3 15.42 C 1.33333 km/h
243 05-09-2019 02:00:00 14.29167 C 10.66 g/m*3 14.29 C 1.06667 km/h
244 05-09-2019 03:00:00 13.975 C 10.44 g/m*3 13.98 C 1.6 km/h
245 05-09-2019 04:00:00 14.075 C 10.3 g/m*3 14.08 C 3.06667 km/h
246 05-09-2019 05:00:00 13.48333 C 9.83 g/m*3 13.48 C 3.875 km/h
247 05-09-2019 06:00:00 12.56667 C 9.49 g/m*3 12.57 C 4.13333 km/h
248 05-09-2019 07:00:00 12.20833 C 9.38 g/m*3 12.21 C 5.49167 km/h
249 05-09-2019 08:00:00 12.58333 C 9.44 g/m*3 12.58 C 8.75833 km/h
250 05-09-2019 09:00:00 13.59167 C 9.67 g/m*3 13.59 C 7.65833 km/h
Sensor: Nr:Datum:Temp:Abs-Feuchte:Windchill:Wind:
Aussen-T/F 251 05-09-2019 10:00:00 15.475 C 10.21 g/m*3 15.48 C 9.95 km/h
252 05-09-2019 11:00:00 16.775 C 10.05 g/m*3 16.77 C 14.24167 km/h
253 05-09-2019 12:00:00 17.09167 C 9.8 g/m*3 17.09 C 10.48333 km/h
254 05-09-2019 13:00:00 18.1 C 9.41 g/m*3 18.1 C 10.225 km/h
255 05-09-2019 14:00:00 18.09167 C 9.72 g/m*3 18.09 C 13.03333 km/h
256 05-09-2019 15:00:00 18.5 C 9.11 g/m*3 18.5 C 11.15833 km/h
257 05-09-2019 16:00:00 18.91667 C 9.07 g/m*3 18.92 C 13.16667 km/h
258 05-09-2019 17:00:00 17.225 C 9.36 g/m*3 17.23 C 15.43333 km/h
259 05-09-2019 18:00:00 16.4 C 9.44 g/m*3 16.4 C 8.59167 km/h
260 05-09-2019 19:00:00 16.46667 C 9.02 g/m*3 16.47 C 6.325 km/h
261 05-09-2019 20:00:00 15.70833 C 9.25 g/m*3 15.71 C 6.71667 km/h
262 05-09-2019 21:00:00 14.93333 C 8.97 g/m*3 14.93 C 5.35833 km/h
263 05-09-2019 22:00:00 14.49167 C 9.01 g/m*3 14.49 C 2.53333 km/h
264 05-09-2019 23:00:00 13.94167 C 8.89 g/m*3 13.94 C 1.875 km/h
265 06-09-2019 00:00:00 12.025 C 8.52 g/m*3 12.03 C 0.4 km/h
266 06-09-2019 01:00:00 11.23333 C 8.41 g/m*3 11.23 C 1.73333 km/h
267 06-09-2019 02:00:00 10.40833 C 8.34 g/m*3 10.41 C 0 km/h
268 06-09-2019 03:00:00 9.875 C 8.21 g/m*3 9.88 C 0.13333 km/h
269 06-09-2019 04:00:00 9.00833 C 7.89 g/m*3 9.01 C 0 km/h
270 06-09-2019 05:00:00 8.075 C 7.6 g/m*3 8.07 C 0 km/h
271 06-09-2019 06:00:00 7.56667 C 7.46 g/m*3 7.57 C 0 km/h
272 06-09-2019 07:00:00 7.31667 C 7.41 g/m*3 7.32 C 0 km/h
273 06-09-2019 08:00:00 7.85 C 7.77 g/m*3 7.85 C 0 km/h
274 06-09-2019 09:00:00 8.75 C 8.25 g/m*3 8.75 C 0 km/h
275 06-09-2019 10:00:00 10.175 C 9.03 g/m*3 10.18 C 0.13333 km/h
Sensor: Nr:Datum:Temp:Abs-Feuchte:Windchill:Wind:
Aussen-T/F 276 06-09-2019 11:00:00 12.55833 C 9.18 g/m*3 12.56 C 1.73333 km/h
277 06-09-2019 12:00:00 15.03333 C 8.28 g/m*3 15.03 C 4.00833 km/h
278 06-09-2019 13:00:00 16.51667 C 8.14 g/m*3 16.52 C 4.4 km/h
279 06-09-2019 14:00:00 18.3 C 7.75 g/m*3 18.3 C 8.325 km/h
280 06-09-2019 15:00:00 19.475 C 7.53 g/m*3 19.48 C 9.26667 km/h
281 06-09-2019 16:00:00 20.7 C 7.17 g/m*3 20.7 C 7.24167 km/h
282 06-09-2019 17:00:00 22.36667 C 7.38 g/m*3 22.37 C 7.79167 km/h
283 06-09-2019 18:00:00 22.25 C 7.74 g/m*3 22.25 C 6.975 km/h
284 06-09-2019 19:00:00 19.41667 C 8.07 g/m*3 19.42 C 0.8 km/h
285 06-09-2019 20:00:00 16.04167 C 7.71 g/m*3 16.04 C 0 km/h
286 06-09-2019 21:00:00 14.65 C 7.6 g/m*3 14.65 C 0 km/h
287 06-09-2019 22:00:00 12.74167 C 7.65 g/m*3 12.74 C 0.26667 km/h
288 06-09-2019 23:00:00 12.69167 C 7.95 g/m*3 12.69 C 2 km/h
289 07-09-2019 00:00:00 12.25833 C 7.99 g/m*3 12.26 C 0.93333 km/h
290 07-09-2019 01:00:00 12.41667 C 8.06 g/m*3 12.42 C 1.73333 km/h
291 07-09-2019 02:00:00 12.19167 C 8.09 g/m*3 12.19 C 1.73333 km/h
292 07-09-2019 03:00:00 12.375 C 8.15 g/m*3 12.38 C 3.33333 km/h
293 07-09-2019 04:00:00 12.69167 C 8.26 g/m*3 12.69 C 3.89167 km/h
294 07-09-2019 05:00:00 12.64167 C 8.27 g/m*3 12.64 C 1.075 km/h
295 07-09-2019 06:00:00 12.29167 C 8.35 g/m*3 12.29 C 0 km/h
296 07-09-2019 07:00:00 11.96667 C 9.01 g/m*3 11.97 C 0.13333 km/h
297 07-09-2019 08:00:00 11.78333 C 9.52 g/m*3 11.78 C 0.13333 km/h
298 07-09-2019 09:00:00 11.80833 C 9.78 g/m*3 11.81 C 0 km/h
299 07-09-2019 10:00:00 12.225 C 10.16 g/m*3 12.23 C 0 km/h
300 07-09-2019 11:00:00 12.80833 C 10.52 g/m*3 12.81 C 0.4 km/h
Sensor: Nr:Datum:Temp:Abs-Feuchte:Windchill:Wind:
Aussen-T/F 301 07-09-2019 12:00:00 13.475 C 10.93 g/m*3 13.48 C 1.06667 km/h
302 07-09-2019 13:00:00 14.19167 C 11.31 g/m*3 14.19 C 1.06667 km/h
303 07-09-2019 14:00:00 14.46667 C 11.38 g/m*3 14.47 C 1.73333 km/h
304 07-09-2019 15:00:00 14.93333 C 11.53 g/m*3 14.93 C 3.73333 km/h
305 07-09-2019 16:00:00 15.25 C 11.63 g/m*3 15.25 C 0.93333 km/h
306 07-09-2019 17:00:00 15.30833 C 11.66 g/m*3 15.31 C 3.21667 km/h
307 07-09-2019 18:00:00 14.29167 C 11.14 g/m*3 14.29 C 0.93333 km/h
308 07-09-2019 19:00:00 13.34167 C 10.59 g/m*3 13.34 C 0.66667 km/h
309 07-09-2019 20:00:00 12.64167 C 10.32 g/m*3 12.64 C 0.13333 km/h
310 07-09-2019 21:00:00 12.00833 C 9.95 g/m*3 12.01 C 0 km/h
311 07-09-2019 22:00:00 11.8 C 9.94 g/m*3 11.8 C 0 km/h
312 07-09-2019 23:00:00 11.725 C 9.95 g/m*3 11.73 C 0 km/h
313 08-09-2019 00:00:00 11.7 C 9.94 g/m*3 11.7 C 0 km/h
314 08-09-2019 01:00:00 11.75833 C 10.04 g/m*3 11.76 C 0 km/h
315 08-09-2019 02:00:00 11.29167 C 9.74 g/m*3 11.29 C 0 km/h
316 08-09-2019 03:00:00 11.3 C 9.79 g/m*3 11.3 C 0 km/h
317 08-09-2019 04:00:00 11.7 C 10.08 g/m*3 11.7 C 0 km/h
318 08-09-2019 05:00:00 11.90833 C 10.17 g/m*3 11.91 C 0 km/h
319 08-09-2019 06:00:00 12.075 C 10.36 g/m*3 12.08 C 0.13333 km/h
320 08-09-2019 07:00:00 12.20833 C 10.41 g/m*3 12.21 C 0.4 km/h
321 08-09-2019 08:00:00 12.31667 C 10.43 g/m*3 12.32 C 1.46667 km/h
322 08-09-2019 09:00:00 12.325 C 10.38 g/m*3 12.33 C 4.13333 km/h
323 08-09-2019 10:00:00 12.575 C 10.57 g/m*3 12.58 C 0 km/h
324 08-09-2019 11:00:00 12.625 C 10.64 g/m*3 12.63 C 0.4 km/h
325 08-09-2019 12:00:00 12.81667 C 10.75 g/m*3 12.82 C 2.53333 km/h
Sensor: Nr:Datum:Temp:Abs-Feuchte:Windchill:Wind:
Aussen-T/F 326 08-09-2019 13:00:00 13.94167 C 11.24 g/m*3 13.94 C 1.6 km/h
327 08-09-2019 14:00:00 14.875 C 11.24 g/m*3 14.88 C 3.6 km/h
328 08-09-2019 15:00:00 15.73333 C 11.27 g/m*3 15.73 C 1.6 km/h
329 08-09-2019 16:00:00 15.65833 C 11.32 g/m*3 15.66 C 1.46667 km/h
330 08-09-2019 17:00:00 13.49167 C 10.83 g/m*3 13.49 C 2.53333 km/h
331 08-09-2019 18:00:00 12.8 C 10.56 g/m*3 12.8 C 0.8 km/h
332 08-09-2019 19:00:00 12.96667 C 10.8 g/m*3 12.97 C 0 km/h
333 08-09-2019 20:00:00 12.56667 C 10.5 g/m*3 12.57 C 3.35 km/h
334 08-09-2019 21:00:00 12.1 C 10.23 g/m*3 12.1 C 0.53333 km/h
335 08-09-2019 22:00:00 11.81667 C 10.11 g/m*3 11.82 C 0 km/h
336 08-09-2019 23:00:00 11.71667 C 10.05 g/m*3 11.72 C 0 km/h
337 09-09-2019 00:00:00 11.45 C 9.88 g/m*3 11.45 C 0 km/h
338 09-09-2019 01:00:00 11.26667 C 9.78 g/m*3 11.27 C 0.26667 km/h
339 09-09-2019 02:00:00 11.29167 C 9.87 g/m*3 11.29 C 0 km/h
340 09-09-2019 03:00:00 11.36667 C 9.94 g/m*3 11.37 C 0 km/h
341 09-09-2019 04:00:00 11.36667 C 9.94 g/m*3 11.37 C 0 km/h
342 09-09-2019 05:00:00 11.29167 C 9.89 g/m*3 11.29 C 0 km/h
343 09-09-2019 06:00:00 11.3 C 9.89 g/m*3 11.3 C 0 km/h
344 09-09-2019 07:00:00 11.275 C 9.88 g/m*3 11.28 C 0 km/h
345 09-09-2019 08:00:00 11.39167 C 9.95 g/m*3 11.39 C 0 km/h
346 09-09-2019 09:00:00 12.01667 C 10.35 g/m*3 12.02 C 0.26667 km/h
347 09-09-2019 10:00:00 12.23333 C 10.49 g/m*3 12.23 C 0.13333 km/h
348 09-09-2019 11:00:00 12.55833 C 10.62 g/m*3 12.56 C 2.66667 km/h
349 09-09-2019 12:00:00 13.15 C 10.48 g/m*3 13.15 C 1.73333 km/h
350 09-09-2019 13:00:00 14.2 C 10.57 g/m*3 14.2 C 2.4 km/h
Sensor: Nr:Datum:Temp:Abs-Feuchte:Windchill:Wind:
Aussen-T/F 351 09-09-2019 14:00:00 14.81667 C 10.11 g/m*3 14.82 C 1.73333 km/h
352 09-09-2019 15:00:00 15.175 C 10.39 g/m*3 15.18 C 0.8 km/h
353 09-09-2019 16:00:00 15.475 C 10.21 g/m*3 15.48 C 1.06667 km/h
354 09-09-2019 17:00:00 15.74167 C 9.89 g/m*3 15.74 C 1.33333 km/h
355 09-09-2019 18:00:00 16.33333 C 10.25 g/m*3 16.33 C 1.46667 km/h
356 09-09-2019 19:00:00 14.35 C 10.11 g/m*3 14.35 C 0.53333 km/h
357 09-09-2019 20:00:00 12.00833 C 9.36 g/m*3 12.01 C 0.4 km/h
358 09-09-2019 21:00:00 10.79167 C 8.96 g/m*3 10.79 C 0.13333 km/h
359 09-09-2019 22:00:00 10.05 C 8.74 g/m*3 10.05 C 0 km/h
360 09-09-2019 23:00:00 9.30833 C 8.44 g/m*3 9.31 C 0 km/h
361 10-09-2019 00:00:00 8.75833 C 8.22 g/m*3 8.76 C 0 km/h
362 10-09-2019 01:00:00 8.44167 C 8.09 g/m*3 8.44 C 0 km/h
363 10-09-2019 02:00:00 8.3 C 8.07 g/m*3 8.3 C 0 km/h
364 10-09-2019 03:00:00 8.625 C 8.26 g/m*3 8.63 C 0.53333 km/h
365 10-09-2019 04:00:00 8.65 C 8.28 g/m*3 8.65 C 0.66667 km/h
366 10-09-2019 05:00:00 8.55833 C 8.24 g/m*3 8.56 C 0.26667 km/h
367 10-09-2019 06:00:00 8.2 C 8.1 g/m*3 8.2 C 0.8 km/h
368 10-09-2019 07:00:00 8.225 C 8.14 g/m*3 8.23 C 0.13333 km/h
369 10-09-2019 08:00:00 8.21667 C 8.13 g/m*3 8.22 C 2.26667 km/h
370 10-09-2019 09:00:00 8.45833 C 8.26 g/m*3 8.46 C 2.13333 km/h
371 10-09-2019 10:00:00 9.05 C 8.58 g/m*3 9.05 C 1.33333 km/h
372 10-09-2019 11:00:00 9.94167 C 9.08 g/m*3 9.94 C 2.26667 km/h
373 10-09-2019 12:00:00 11.78333 C 9.92 g/m*3 11.78 C 0.4 km/h
374 10-09-2019 13:00:00 14.85833 C 9.92 g/m*3 14.86 C 1.6 km/h
375 10-09-2019 14:00:00 17.25 C 9.44 g/m*3 17.25 C 3.60833 km/h
Sensor: Nr:Datum:Temp:Abs-Feuchte:Windchill:Wind:
Aussen-T/F 376 10-09-2019 15:00:00 18.43333 C 9.19 g/m*3 18.43 C 5.36667 km/h
377 10-09-2019 16:00:00 19.65 C 8.8 g/m*3 19.65 C 8.20833 km/h
378 10-09-2019 17:00:00 18.38333 C 10.55 g/m*3 18.38 C 0.8 km/h
379 10-09-2019 18:00:00 18.33333 C 10.97 g/m*3 18.33 C 0 km/h
380 10-09-2019 19:00:00 16.4 C 10.1 g/m*3 16.4 C 0.13333 km/h
381 10-09-2019 20:00:00 13.775 C 8.93 g/m*3 13.78 C 0 km/h
382 10-09-2019 21:00:00 12.03333 C 8.86 g/m*3 12.03 C 0 km/h
383 10-09-2019 22:00:00 10.66667 C 8.52 g/m*3 10.67 C 0 km/h
384 10-09-2019 23:00:00 9.78333 C 8.23 g/m*3 9.78 C 0 km/h
385 11-09-2019 00:00:00 9.2 C 8.04 g/m*3 9.2 C 0 km/h
386 11-09-2019 01:00:00 8.61667 C 7.86 g/m*3 8.62 C 0 km/h
387 11-09-2019 02:00:00 8.04167 C 7.69 g/m*3 8.04 C 0.13333 km/h
388 11-09-2019 03:00:00 7.64167 C 7.55 g/m*3 7.64 C 0 km/h
389 11-09-2019 04:00:00 7.26667 C 7.41 g/m*3 7.27 C 0 km/h
390 11-09-2019 05:00:00 6.90833 C 7.3 g/m*3 6.91 C 0 km/h
391 11-09-2019 06:00:00 6.65833 C 7.2 g/m*3 6.66 C 0 km/h
392 11-09-2019 07:00:00 6.55 C 7.2 g/m*3 6.55 C 0.675 km/h
393 11-09-2019 08:00:00 7.99167 C 7.97 g/m*3 7.99 C 1.60833 km/h
394 11-09-2019 09:00:00 9.51667 C 8.59 g/m*3 9.52 C 2.8 km/h
395 11-09-2019 10:00:00 10.85 C 9.29 g/m*3 10.85 C 0 km/h
396 11-09-2019 11:00:00 13.10833 C 10.13 g/m*3 13.11 C 1.6 km/h
397 11-09-2019 12:00:00 17.29167 C 9.85 g/m*3 17.29 C 9.41667 km/h
398 11-09-2019 13:00:00 19.9 C 9.95 g/m*3 19.9 C 12.75833 km/h
399 11-09-2019 14:00:00 20.58333 C 9.88 g/m*3 20.58 C 16.5 km/h
400 11-09-2019 15:00:00 20.53333 C 10.07 g/m*3 20.53 C 10.225 km/h
Sensor: Nr:Datum:Temp:Abs-Feuchte:Windchill:Wind:
Aussen-T/F 401 11-09-2019 16:00:00 20.03333 C 11.17 g/m*3 20.03 C 4.825 km/h
402 11-09-2019 17:00:00 19.16667 C 10.86 g/m*3 19.17 C 8.45833 km/h
403 11-09-2019 18:00:00 18.35833 C 10.7 g/m*3 18.36 C 3.75833 km/h
404 11-09-2019 19:00:00 17.26667 C 10.41 g/m*3 17.27 C 3.20833 km/h
405 11-09-2019 20:00:00 16.50833 C 10.64 g/m*3 16.51 C 0.93333 km/h
406 11-09-2019 21:00:00 16.275 C 10.82 g/m*3 16.27 C 0.93333 km/h
407 11-09-2019 22:00:00 16.41667 C 11.06 g/m*3 16.42 C 0.93333 km/h
408 11-09-2019 23:00:00 15.7 C 11.15 g/m*3 15.7 C 0.93333 km/h
409 12-09-2019 00:00:00 15.51667 C 10.97 g/m*3 15.52 C 1.86667 km/h
410 12-09-2019 01:00:00 16.14167 C 11.09 g/m*3 16.14 C 1.74167 km/h
411 12-09-2019 02:00:00 17.23333 C 10.81 g/m*3 17.23 C 6.975 km/h
412 12-09-2019 03:00:00 17.24167 C 11 g/m*3 17.24 C 6.70833 km/h
413 12-09-2019 04:00:00 17.05 C 11.08 g/m*3 17.05 C 2.93333 km/h
414 12-09-2019 05:00:00 16.975 C 11.25 g/m*3 16.98 C 8.31667 km/h
415 12-09-2019 06:00:00 16.9 C 11.4 g/m*3 16.9 C 5.75833 km/h
416 12-09-2019 07:00:00 16.24167 C 11.53 g/m*3 16.24 C 0.8 km/h
417 12-09-2019 08:00:00 16.83333 C 12.06 g/m*3 16.83 C 5.76667 km/h
418 12-09-2019 09:00:00 17.40833 C 12.53 g/m*3 17.41 C 9.025 km/h
419 12-09-2019 10:00:00 18.21667 C 13.08 g/m*3 18.22 C 11.15833 km/h
420 12-09-2019 11:00:00 19.21667 C 13.52 g/m*3 19.22 C 9.01667 km/h
421 12-09-2019 12:00:00 20.25833 C 13.93 g/m*3 20.26 C 10.34167 km/h
422 12-09-2019 13:00:00 20.9 C 14.27 g/m*3 20.9 C 7.79167 km/h
423 12-09-2019 14:00:00 21.38333 C 14.69 g/m*3 21.38 C 1.6 km/h
424 12-09-2019 15:00:00 22.25833 C 14.77 g/m*3 22.26 C 4.025 km/h
425 12-09-2019 16:00:00 22.95 C 14.67 g/m*3 22.95 C 7.91667 km/h
Sensor: Nr:Datum:Temp:Abs-Feuchte:Windchill:Wind:
Aussen-T/F 426 12-09-2019 17:00:00 24.44167 C 14.46 g/m*3 24.44 C 11.83333 km/h
427 12-09-2019 18:00:00 24.95833 C 14.66 g/m*3 24.96 C 6.56667 km/h
428 12-09-2019 19:00:00 22.86667 C 14.23 g/m*3 22.87 C 0.53333 km/h
429 12-09-2019 20:00:00 19.11667 C 13.29 g/m*3 19.12 C 0.4 km/h
430 12-09-2019 21:00:00 18.225 C 13.19 g/m*3 18.23 C 0.26667 km/h
431 12-09-2019 22:00:00 18.35 C 13.17 g/m*3 18.35 C 0.4 km/h
432 12-09-2019 23:00:00 17.06667 C 12.6 g/m*3 17.07 C 0 km/h
433 13-09-2019 00:00:00 15.98333 C 12.26 g/m*3 15.98 C 0.93333 km/h
434 13-09-2019 01:00:00 15.55 C 12.18 g/m*3 15.55 C 3.6 km/h
435 13-09-2019 02:00:00 15.25 C 12.05 g/m*3 15.25 C 1.46667 km/h
436 13-09-2019 03:00:00 15.1 C 12.07 g/m*3 15.1 C 1.06667 km/h
437 13-09-2019 04:00:00 15.575 C 12.4 g/m*3 15.58 C 2.93333 km/h
438 13-09-2019 05:00:00 16.19167 C 12.55 g/m*3 16.19 C 6.84167 km/h
439 13-09-2019 06:00:00 16.25833 C 12.58 g/m*3 16.26 C 4.3 km/h
440 13-09-2019 07:00:00 16.64167 C 12.75 g/m*3 16.64 C 2.94167 km/h
441 13-09-2019 08:00:00 16.85833 C 13.01 g/m*3 16.86 C 0.8 km/h
442 13-09-2019 09:00:00 17.49167 C 13.31 g/m*3 17.49 C 2 km/h
443 13-09-2019 10:00:00 18.51667 C 13.63 g/m*3 18.52 C 0.8 km/h
444 13-09-2019 11:00:00 19.6 C 13.91 g/m*3 19.6 C 2.8 km/h
445 13-09-2019 12:00:00 20.35 C 14.02 g/m*3 20.35 C 1.2 km/h
446 13-09-2019 13:00:00 20.60833 C 13.82 g/m*3 20.61 C 4.675 km/h
447 13-09-2019 14:00:00 21.16667 C 14.03 g/m*3 21.17 C 6.15833 km/h
448 13-09-2019 15:00:00 20.85833 C 14.13 g/m*3 20.86 C 12.76667 km/h
449 13-09-2019 16:00:00 19.325 C 14.49 g/m*3 19.33 C 5.90833 km/h
450 13-09-2019 17:00:00 19.20833 C 14.74 g/m*3 19.21 C 0 km/h
Sensor: Nr:Datum:Temp:Abs-Feuchte:Windchill:Wind:
Aussen-T/F 451 13-09-2019 18:00:00 20 C 15.42 g/m*3 20 C 0 km/h
452 13-09-2019 19:00:00 19.48333 C 14.46 g/m*3 19.48 C 0 km/h
453 13-09-2019 20:00:00 17.60833 C 13.73 g/m*3 17.61 C 0.26667 km/h
454 13-09-2019 21:00:00 16.95 C 13.39 g/m*3 16.95 C 0 km/h
455 13-09-2019 22:00:00 16.25833 C 12.87 g/m*3 16.26 C 0 km/h
456 13-09-2019 23:00:00 15.48333 C 12.38 g/m*3 15.48 C 0 km/h
457 14-09-2019 00:00:00 15.39167 C 12.41 g/m*3 15.39 C 0 km/h
458 14-09-2019 01:00:00 14.63333 C 11.86 g/m*3 14.63 C 0 km/h
459 14-09-2019 02:00:00 13.525 C 11.07 g/m*3 13.53 C 0 km/h
460 14-09-2019 03:00:00 12.70833 C 10.58 g/m*3 12.71 C 0 km/h
461 14-09-2019 04:00:00 12.00833 C 10.18 g/m*3 12.01 C 0 km/h
462 14-09-2019 05:00:00 11.31667 C 9.79 g/m*3 11.32 C 0 km/h
463 14-09-2019 06:00:00 10.78333 C 9.48 g/m*3 10.78 C 0 km/h
464 14-09-2019 07:00:00 10.4 C 9.25 g/m*3 10.4 C 0 km/h
465 14-09-2019 08:00:00 10.40833 C 9.26 g/m*3 10.41 C 0 km/h
466 14-09-2019 09:00:00 11.00833 C 9.71 g/m*3 11.01 C 0.13333 km/h
467 14-09-2019 10:00:00 12.25833 C 10.51 g/m*3 12.26 C 0.26667 km/h
468 14-09-2019 11:00:00 13.69167 C 11.26 g/m*3 13.69 C 0.26667 km/h
469 14-09-2019 12:00:00 16.14167 C 11.54 g/m*3 16.14 C 0.8 km/h
470 14-09-2019 13:00:00 18.675 C 11.2 g/m*3 18.68 C 3.74167 km/h
471 14-09-2019 14:00:00 20.43333 C 11.02 g/m*3 20.43 C 4.95 km/h
472 14-09-2019 15:00:00 21.74167 C 10.66 g/m*3 21.74 C 5.35833 km/h
473 14-09-2019 16:00:00 22.44167 C 10.43 g/m*3 22.44 C 4.3 km/h
474 14-09-2019 17:00:00 24.14167 C 10.29 g/m*3 24.14 C 4.81667 km/h
475 14-09-2019 18:00:00 23.6 C 11.63 g/m*3 23.6 C 0 km/h
Sensor: Nr:Datum:Temp:Abs-Feuchte:Windchill:Wind:
Aussen-T/F 476 14-09-2019 19:00:00 19.45833 C 10.87 g/m*3 19.46 C 0.13333 km/h
477 14-09-2019 20:00:00 16.95833 C 10.12 g/m*3 16.96 C 0 km/h
478 14-09-2019 21:00:00 15.96667 C 10.01 g/m*3 15.97 C 0 km/h
479 14-09-2019 22:00:00 13.8 C 9.68 g/m*3 13.8 C 0 km/h
480 14-09-2019 23:00:00 12.48333 C 9.38 g/m*3 12.48 C 0 km/h
481 15-09-2019 00:00:00 11.65 C 9.12 g/m*3 11.65 C 0 km/h
482 15-09-2019 01:00:00 10.825 C 8.89 g/m*3 10.83 C 0 km/h
483 15-09-2019 02:00:00 10.375 C 8.83 g/m*3 10.38 C 0 km/h
484 15-09-2019 03:00:00 10.16667 C 8.79 g/m*3 10.17 C 0.13333 km/h
485 15-09-2019 04:00:00 9.75833 C 8.61 g/m*3 9.76 C 0.13333 km/h
486 15-09-2019 05:00:00 9.31667 C 8.46 g/m*3 9.32 C 0 km/h
487 15-09-2019 06:00:00 8.76667 C 8.17 g/m*3 8.77 C 0 km/h
488 15-09-2019 07:00:00 8.775 C 8.26 g/m*3 8.78 C 0.53333 km/h
489 15-09-2019 08:00:00 9.29167 C 8.62 g/m*3 9.29 C 0.53333 km/h
490 15-09-2019 09:00:00 10.03333 C 9.04 g/m*3 10.03 C 0 km/h
491 15-09-2019 10:00:00 11.35833 C 9.83 g/m*3 11.36 C 0 km/h
492 15-09-2019 11:00:00 13.71667 C 11.23 g/m*3 13.72 C 0 km/h
493 15-09-2019 12:00:00 16.96667 C 12.32 g/m*3 16.97 C 0 km/h
494 15-09-2019 13:00:00 20.45833 C 12.4 g/m*3 20.46 C 0 km/h
495 15-09-2019 14:00:00 22.79167 C 12.41 g/m*3 22.79 C 0.53333 km/h
496 15-09-2019 15:00:00 24.05 C 12.35 g/m*3 24.05 C 0.53333 km/h
497 15-09-2019 16:00:00 24.65833 C 11.93 g/m*3 24.66 C 2.66667 km/h
498 15-09-2019 17:00:00 25.84167 C 11.52 g/m*3 25.84 C 1.6 km/h
499 15-09-2019 18:00:00 26.43333 C 11.47 g/m*3 26.43 C 0.4 km/h
500 15-09-2019 19:00:00 21.96667 C 11.11 g/m*3 21.97 C 0 km/h
Sensor: Nr:Datum:Temp:Abs-Feuchte:Windchill:Wind:
Aussen-T/F 501 15-09-2019 20:00:00 18.225 C 9.86 g/m*3 18.23 C 0 km/h
502 15-09-2019 21:00:00 16.76667 C 9.56 g/m*3 16.77 C 0 km/h
503 15-09-2019 22:00:00 14.475 C 9.48 g/m*3 14.48 C 0 km/h
504 15-09-2019 23:00:00 12.99167 C 9.21 g/m*3 12.99 C 0 km/h
505 16-09-2019 00:00:00 12.55 C 9.24 g/m*3 12.55 C 0 km/h
506 16-09-2019 01:00:00 12.25833 C 9.26 g/m*3 12.26 C 0.53333 km/h
507 16-09-2019 02:00:00 11.41667 C 9.02 g/m*3 11.42 C 0.26667 km/h
508 16-09-2019 03:00:00 11.11667 C 9.09 g/m*3 11.12 C 0.4 km/h
509 16-09-2019 04:00:00 11.45833 C 9.31 g/m*3 11.46 C 0.66667 km/h
510 16-09-2019 05:00:00 11.51667 C 9.27 g/m*3 11.52 C 0.4 km/h
511 16-09-2019 06:00:00 11.23333 C 9.22 g/m*3 11.23 C 0 km/h
512 16-09-2019 07:00:00 11.31667 C 9.35 g/m*3 11.32 C 0.13333 km/h
513 16-09-2019 08:00:00 12.075 C 9.65 g/m*3 12.08 C 1.2 km/h
514 16-09-2019 09:00:00 13.4 C 10.02 g/m*3 13.4 C 1.06667 km/h
515 16-09-2019 10:00:00 14.99167 C 10.52 g/m*3 14.99 C 0.93333 km/h
516 16-09-2019 11:00:00 17.41667 C 11.29 g/m*3 17.42 C 1.33333 km/h
517 16-09-2019 12:00:00 19.64167 C 11.69 g/m*3 19.64 C 4.40833 km/h
518 16-09-2019 13:00:00 21.18333 C 11.4 g/m*3 21.18 C 5.9 km/h
519 16-09-2019 14:00:00 22.05 C 11.19 g/m*3 22.05 C 4.26667 km/h
520 16-09-2019 15:00:00 22.075 C 11.53 g/m*3 22.08 C 4.275 km/h
521 16-09-2019 16:00:00 22.10833 C 10.87 g/m*3 22.11 C 7.65 km/h
522 16-09-2019 17:00:00 21.8 C 11.67 g/m*3 21.8 C 7.525 km/h
523 16-09-2019 18:00:00 20.725 C 11.4 g/m*3 20.73 C 4.95 km/h
524 16-09-2019 19:00:00 19.71667 C 11.57 g/m*3 19.72 C 8.46667 km/h
525 16-09-2019 20:00:00 17.64167 C 12.45 g/m*3 17.64 C 2.275 km/h
Sensor: Nr:Datum:Temp:Abs-Feuchte:Windchill:Wind:
Aussen-T/F 526 16-09-2019 21:00:00 16.74167 C 12.53 g/m*3 16.74 C 1.46667 km/h
527 16-09-2019 22:00:00 16.43333 C 12.39 g/m*3 16.43 C 4.825 km/h
528 16-09-2019 23:00:00 15.4 C 12.03 g/m*3 15.4 C 4.14167 km/h
529 17-09-2019 00:00:00 15.05833 C 11.74 g/m*3 15.06 C 1.73333 km/h
530 17-09-2019 01:00:00 14.81667 C 11.42 g/m*3 14.82 C 4 km/h
531 17-09-2019 02:00:00 14.66667 C 11.26 g/m*3 14.67 C 3.475 km/h
532 17-09-2019 03:00:00 14.54167 C 11.1 g/m*3 14.54 C 1.46667 km/h
533 17-09-2019 04:00:00 14.30833 C 11.03 g/m*3 14.31 C 0.4 km/h
534 17-09-2019 05:00:00 14.16667 C 11 g/m*3 14.17 C 0.53333 km/h
535 17-09-2019 06:00:00 14.1 C 10.95 g/m*3 14.1 C 3.74167 km/h
536 17-09-2019 07:00:00 14.01667 C 10.81 g/m*3 14.02 C 1.86667 km/h
537 17-09-2019 08:00:00 14 C 10.57 g/m*3 14 C 4.00833 km/h
538 17-09-2019 09:00:00 14.04167 C 10.08 g/m*3 14.04 C 8.33333 km/h
539 17-09-2019 10:00:00 14.925 C 9.51 g/m*3 14.93 C 11.29167 km/h
540 17-09-2019 11:00:00 15.73333 C 9.52 g/m*3 15.73 C 11.56667 km/h
541 17-09-2019 12:00:00 16.125 C 9.35 g/m*3 16.13 C 13.83333 km/h
542 17-09-2019 13:00:00 16.625 C 9.11 g/m*3 16.63 C 13.43333 km/h
543 17-09-2019 14:00:00 17.44167 C 9.01 g/m*3 17.44 C 13.43333 km/h
544 17-09-2019 15:00:00 17.66667 C 8.72 g/m*3 17.67 C 12.1 km/h
545 17-09-2019 16:00:00 18.05833 C 8.61 g/m*3 18.06 C 12.76667 km/h
546 17-09-2019 17:00:00 18.125 C 8.63 g/m*3 18.13 C 11.41667 km/h
547 17-09-2019 18:00:00 18.45 C 8.52 g/m*3 18.45 C 13.43333 km/h
548 17-09-2019 19:00:00 17.3 C 8.79 g/m*3 17.3 C 5.775 km/h
549 17-09-2019 20:00:00 16.71667 C 8.94 g/m*3 16.72 C 6.03333 km/h
550 17-09-2019 21:00:00 16.00833 C 8.74 g/m*3 16.01 C 12.36667 km/h
Sensor: Nr:Datum:Temp:Abs-Feuchte:Windchill:Wind:
Aussen-T/F 551 17-09-2019 22:00:00 14.55833 C 7.86 g/m*3 14.56 C 11.7 km/h
552 17-09-2019 23:00:00 13.40833 C 7.65 g/m*3 13.41 C 6.45 km/h
553 18-09-2019 00:00:00 11.80833 C 7.43 g/m*3 11.81 C 3.86667 km/h
554 18-09-2019 01:00:00 10.83333 C 7.47 g/m*3 10.83 C 2.8 km/h
555 18-09-2019 02:00:00 9.26667 C 7.32 g/m*3 9.27 C 0 km/h
556 18-09-2019 03:00:00 8.25 C 7.19 g/m*3 8.25 C 0 km/h
557 18-09-2019 04:00:00 7.425 C 7.05 g/m*3 7.43 C 0 km/h
558 18-09-2019 05:00:00 6.76667 C 6.89 g/m*3 6.77 C 0 km/h
559 18-09-2019 06:00:00 6.08333 C 6.7 g/m*3 6.08 C 0 km/h
560 18-09-2019 07:00:00 5.8 C 6.67 g/m*3 5.8 C 0 km/h
561 18-09-2019 08:00:00 6.10833 C 6.87 g/m*3 6.11 C 0 km/h
562 18-09-2019 09:00:00 7.01667 C 7.37 g/m*3 7.02 C 0 km/h
563 18-09-2019 10:00:00 8.375 C 8.05 g/m*3 8.38 C 0 km/h
564 18-09-2019 11:00:00 10.625 C 8.65 g/m*3 10.63 C 1.33333 km/h
565 18-09-2019 12:00:00 13.6 C 8.4 g/m*3 13.6 C 5.61667 km/h
566 18-09-2019 13:00:00 15.1 C 7.76 g/m*3 15.1 C 9 km/h
567 18-09-2019 14:00:00 16.25 C 7.43 g/m*3 16.25 C 9.54167 km/h
568 18-09-2019 15:00:00 17.00833 C 7.27 g/m*3 17.01 C 8.86667 km/h
569 18-09-2019 16:00:00 17.225 C 7.48 g/m*3 17.23 C 9.95 km/h
570 18-09-2019 17:00:00 18.14167 C 7.1 g/m*3 18.14 C 11.56667 km/h
571 18-09-2019 18:00:00 18.08333 C 6.92 g/m*3 18.08 C 8.58333 km/h
572 18-09-2019 19:00:00 15.75 C 7.28 g/m*3 15.75 C 1.06667 km/h
573 18-09-2019 20:00:00 12.30833 C 7.28 g/m*3 12.31 C 0 km/h
574 18-09-2019 21:00:00 11.525 C 7.45 g/m*3 11.53 C 0 km/h
575 18-09-2019 22:00:00 10.68333 C 7.43 g/m*3 10.68 C 0 km/h
Sensor: Nr:Datum:Temp:Abs-Feuchte:Windchill:Wind:
Aussen-T/F 576 18-09-2019 23:00:00 9.85833 C 7.44 g/m*3 9.86 C 0 km/h
577 19-09-2019 00:00:00 9.16667 C 7.4 g/m*3 9.17 C 0 km/h
578 19-09-2019 01:00:00 8.5 C 7.23 g/m*3 8.5 C 0 km/h
579 19-09-2019 02:00:00 7.20833 C 6.97 g/m*3 7.21 C 0 km/h
580 19-09-2019 03:00:00 6.58333 C 6.86 g/m*3 6.58 C 0 km/h
581 19-09-2019 04:00:00 6.08333 C 6.73 g/m*3 6.08 C 0 km/h
582 19-09-2019 05:00:00 5.65833 C 6.6 g/m*3 5.66 C 0 km/h
583 19-09-2019 06:00:00 5.26667 C 6.48 g/m*3 5.27 C 0 km/h
584 19-09-2019 07:00:00 5.14167 C 6.45 g/m*3 5.14 C 0 km/h
585 19-09-2019 08:00:00 5.33333 C 6.59 g/m*3 5.33 C 0 km/h
586 19-09-2019 09:00:00 6.31667 C 7.08 g/m*3 6.32 C 0 km/h
587 19-09-2019 10:00:00 7.725 C 7.8 g/m*3 7.73 C 0 km/h
588 19-09-2019 11:00:00 9.70833 C 8.42 g/m*3 9.71 C 0.4 km/h
589 19-09-2019 12:00:00 13.33333 C 7.53 g/m*3 13.33 C 10.35833 km/h
590 19-09-2019 13:00:00 14.46667 C 7.05 g/m*3 14.47 C 6.3 km/h
591 19-09-2019 14:00:00 15.7 C 6.76 g/m*3 15.7 C 7.38333 km/h
592 19-09-2019 15:00:00 16.48333 C 6.7 g/m*3 16.48 C 9.54167 km/h
593 19-09-2019 16:00:00 17.08333 C 6.67 g/m*3 17.08 C 9.28333 km/h
594 19-09-2019 17:00:00 18.04167 C 6.51 g/m*3 18.04 C 8.59167 km/h
595 19-09-2019 18:00:00 18.01667 C 6.64 g/m*3 18.02 C 4.96667 km/h
596 19-09-2019 19:00:00 15.00833 C 7.05 g/m*3 15.01 C 0 km/h
597 19-09-2019 20:00:00 11.975 C 6.78 g/m*3 11.98 C 0 km/h
598 19-09-2019 21:00:00 10.525 C 6.78 g/m*3 10.53 C 0 km/h
599 19-09-2019 22:00:00 9.59167 C 6.78 g/m*3 9.59 C 0 km/h
600 19-09-2019 23:00:00 8.45 C 6.65 g/m*3 8.45 C 0 km/h
Sensor: Nr:Datum:Temp:Abs-Feuchte:Windchill:Wind:
Aussen-T/F 601 20-09-2019 00:00:00 7.625 C 6.46 g/m*3 7.63 C 0 km/h
602 20-09-2019 01:00:00 7.05 C 6.42 g/m*3 7.05 C 0 km/h
603 20-09-2019 02:00:00 6.21667 C 6.27 g/m*3 6.22 C 0 km/h
604 20-09-2019 03:00:00 5.75 C 6.19 g/m*3 5.75 C 0 km/h
605 20-09-2019 04:00:00 5.15 C 6.09 g/m*3 5.15 C 0 km/h
606 20-09-2019 05:00:00 4.69167 C 6.03 g/m*3 4.69 C 0 km/h
607 20-09-2019 06:00:00 4.325 C 5.97 g/m*3 4.33 C 0 km/h
608 20-09-2019 07:00:00 4.125 C 5.96 g/m*3 4.13 C 0 km/h
609 20-09-2019 08:00:00 4.65 C 6.24 g/m*3 4.65 C 0 km/h
610 20-09-2019 09:00:00 5.625 C 6.69 g/m*3 5.63 C 0 km/h
611 20-09-2019 10:00:00 7.39167 C 7.47 g/m*3 7.39 C 0 km/h
612 20-09-2019 11:00:00 10 C 8.1 g/m*3 10 C 0 km/h
613 20-09-2019 12:00:00 13.41667 C 7.68 g/m*3 13.42 C 4.95833 km/h
614 20-09-2019 13:00:00 15.83333 C 7.25 g/m*3 15.83 C 5.21667 km/h
615 20-09-2019 14:00:00 17.63333 C 7.14 g/m*3 17.63 C 7.11667 km/h
616 20-09-2019 15:00:00 18.525 C 6.89 g/m*3 18.52 C 7.925 km/h
617 20-09-2019 16:00:00 19.26667 C 7.01 g/m*3 19.27 C 9.28333 km/h
618 20-09-2019 17:00:00 20.33333 C 7.02 g/m*3 20.33 C 8.59167 km/h
619 20-09-2019 18:00:00 20.525 C 7.17 g/m*3 20.53 C 4.55 km/h
620 20-09-2019 19:00:00 15.85 C 7.09 g/m*3 15.85 C 0.8 km/h
621 20-09-2019 20:00:00 13.7 C 6.96 g/m*3 13.7 C 1.33333 km/h
622 20-09-2019 21:00:00 11.68333 C 7.14 g/m*3 11.68 C 0 km/h
623 20-09-2019 22:00:00 9.525 C 6.97 g/m*3 9.53 C 0 km/h
624 20-09-2019 23:00:00 8.425 C 6.87 g/m*3 8.43 C 0 km/h
625 21-09-2019 00:00:00 7.44167 C 6.69 g/m*3 7.44 C 0 km/h
Sensor: Nr:Datum:Temp:Abs-Feuchte:Windchill:Wind:
Aussen-T/F 626 21-09-2019 01:00:00 6.85 C 6.55 g/m*3 6.85 C 0 km/h
627 21-09-2019 02:00:00 6.34167 C 6.4 g/m*3 6.34 C 0 km/h
628 21-09-2019 03:00:00 5.80833 C 6.27 g/m*3 5.81 C 0 km/h
629 21-09-2019 04:00:00 5.45833 C 6.24 g/m*3 5.46 C 0 km/h
630 21-09-2019 05:00:00 5.275 C 6.25 g/m*3 5.28 C 0 km/h
631 21-09-2019 06:00:00 4.80833 C 6.1 g/m*3 4.81 C 0 km/h
632 21-09-2019 07:00:00 4.60833 C 6.09 g/m*3 4.61 C 0 km/h
633 21-09-2019 08:00:00 4.725 C 6.21 g/m*3 4.72 C 0 km/h
634 21-09-2019 09:00:00 5.79167 C 6.72 g/m*3 5.79 C 0 km/h
635 21-09-2019 10:00:00 8.225 C 7.58 g/m*3 8.23 C 0 km/h
636 21-09-2019 11:00:00 11.40833 C 8.4 g/m*3 11.41 C 0 km/h
637 21-09-2019 12:00:00 14.95 C 8.6 g/m*3 14.95 C 0.66667 km/h
638 21-09-2019 13:00:00 18.2 C 7.78 g/m*3 18.2 C 4 km/h
639 21-09-2019 14:00:00 21.43333 C 6.23 g/m*3 21.43 C 7.24167 km/h
640 21-09-2019 15:00:00 22.63333 C 6.11 g/m*3 22.63 C 7.925 km/h
641 21-09-2019 16:00:00 23.23333 C 6.53 g/m*3 23.23 C 7.375 km/h
642 21-09-2019 17:00:00 24.65833 C 7.13 g/m*3 24.66 C 5.09167 km/h
643 21-09-2019 18:00:00 22.74167 C 7.97 g/m*3 22.74 C 0.66667 km/h
644 21-09-2019 19:00:00 18.49167 C 7.54 g/m*3 18.49 C 1.6 km/h
645 21-09-2019 20:00:00 16.16667 C 7.62 g/m*3 16.17 C 0.66667 km/h
646 21-09-2019 21:00:00 13.66667 C 7.8 g/m*3 13.67 C 0 km/h
647 21-09-2019 22:00:00 11.99167 C 7.62 g/m*3 11.99 C 0 km/h
648 21-09-2019 23:00:00 10.88333 C 7.52 g/m*3 10.88 C 0 km/h
649 22-09-2019 00:00:00 9.825 C 7.43 g/m*3 9.82 C 0 km/h
650 22-09-2019 01:00:00 9.08333 C 7.39 g/m*3 9.08 C 0 km/h
Sensor: Nr:Datum:Temp:Abs-Feuchte:Windchill:Wind:
Aussen-T/F 651 22-09-2019 02:00:00 8.425 C 7.24 g/m*3 8.43 C 0 km/h
652 22-09-2019 03:00:00 7.96667 C 7.23 g/m*3 7.97 C 0 km/h
653 22-09-2019 04:00:00 7.39167 C 7.07 g/m*3 7.39 C 0 km/h
654 22-09-2019 05:00:00 7.06667 C 7.06 g/m*3 7.07 C 0 km/h
655 22-09-2019 06:00:00 6.99167 C 7.12 g/m*3 6.99 C 0 km/h
656 22-09-2019 07:00:00 6.93333 C 7.14 g/m*3 6.93 C 0 km/h
657 22-09-2019 08:00:00 7.55833 C 7.47 g/m*3 7.56 C 0 km/h
658 22-09-2019 09:00:00 8.63333 C 8.02 g/m*3 8.63 C 0 km/h
659 22-09-2019 10:00:00 11.05 C 9.19 g/m*3 11.05 C 0 km/h
660 22-09-2019 11:00:00 14.83333 C 10.13 g/m*3 14.83 C 0 km/h
661 22-09-2019 12:00:00 17.68333 C 10.99 g/m*3 17.68 C 0 km/h
662 22-09-2019 13:00:00 20.70833 C 11.63 g/m*3 20.71 C 0.26667 km/h
663 22-09-2019 14:00:00 24.05 C 11.64 g/m*3 24.05 C 2.93333 km/h
664 22-09-2019 15:00:00 24.85 C 11.36 g/m*3 24.85 C 3.86667 km/h
665 22-09-2019 16:00:00 24.73333 C 12.25 g/m*3 24.73 C 0.8 km/h
666 22-09-2019 17:00:00 23.48333 C 12.59 g/m*3 23.48 C 0 km/h
667 22-09-2019 18:00:00 21.74167 C 12.24 g/m*3 21.74 C 0 km/h
668 22-09-2019 19:00:00 20.33333 C 11.45 g/m*3 20.33 C 0 km/h
669 22-09-2019 20:00:00 19.075 C 10.9 g/m*3 19.08 C 2 km/h
670 22-09-2019 21:00:00 18.175 C 10.66 g/m*3 18.18 C 1.46667 km/h
671 22-09-2019 22:00:00 18.3 C 10.92 g/m*3 18.3 C 0.13333 km/h
672 22-09-2019 23:00:00 17.80833 C 11.4 g/m*3 17.81 C 0 km/h
673 23-09-2019 00:00:00 17.55833 C 12.04 g/m*3 17.56 C 2.80833 km/h
674 23-09-2019 01:00:00 18.375 C 12.81 g/m*3 18.38 C 3.33333 km/h
675 23-09-2019 02:00:00 18.10833 C 12.21 g/m*3 18.11 C 9.26667 km/h
Sensor: Nr:Datum:Temp:Abs-Feuchte:Windchill:Wind:
Aussen-T/F 676 23-09-2019 03:00:00 17.2 C 12.06 g/m*3 17.2 C 4.95 km/h
677 23-09-2019 04:00:00 16.05833 C 11.82 g/m*3 16.06 C 0.93333 km/h
678 23-09-2019 05:00:00 15.14167 C 11.8 g/m*3 15.14 C 1.86667 km/h
679 23-09-2019 06:00:00 14.43333 C 11.53 g/m*3 14.43 C 0.26667 km/h
680 23-09-2019 07:00:00 14.23333 C 11.52 g/m*3 14.23 C 0 km/h
681 23-09-2019 08:00:00 14.25 C 11.64 g/m*3 14.25 C 0 km/h
682 23-09-2019 09:00:00 14.74167 C 12.1 g/m*3 14.74 C 0 km/h
683 23-09-2019 10:00:00 15.425 C 12.63 g/m*3 15.43 C 0.4 km/h
684 23-09-2019 11:00:00 16.26667 C 13.08 g/m*3 16.27 C 2.8 km/h
685 23-09-2019 12:00:00 17.06667 C 13.18 g/m*3 17.07 C 8.06667 km/h
686 23-09-2019 13:00:00 18.2 C 12.67 g/m*3 18.2 C 10.49167 km/h
687 23-09-2019 14:00:00 19.425 C 11.89 g/m*3 19.43 C 13.3 km/h
688 23-09-2019 15:00:00 19.61667 C 11.63 g/m*3 19.62 C 12.36667 km/h
689 23-09-2019 16:00:00 19.94167 C 11.61 g/m*3 19.94 C 14.36667 km/h
690 23-09-2019 17:00:00 20.24167 C 11.57 g/m*3 20.24 C 12.49167 km/h
691 23-09-2019 18:00:00 18.46667 C 11.71 g/m*3 18.47 C 1.2 km/h
692 23-09-2019 19:00:00 16 C 11.16 g/m*3 16 C 0.13333 km/h
693 23-09-2019 20:00:00 14.34167 C 10.75 g/m*3 14.34 C 0 km/h
694 23-09-2019 21:00:00 13.96667 C 10.85 g/m*3 13.97 C 0 km/h
695 23-09-2019 22:00:00 13.9 C 11.03 g/m*3 13.9 C 0 km/h
696 23-09-2019 23:00:00 14.11667 C 11.21 g/m*3 14.12 C 0 km/h
697 24-09-2019 00:00:00 14.33333 C 11.37 g/m*3 14.33 C 0 km/h
698 24-09-2019 01:00:00 13.95 C 11.01 g/m*3 13.95 C 0 km/h
699 24-09-2019 02:00:00 12.66667 C 10.28 g/m*3 12.67 C 0 km/h
700 24-09-2019 03:00:00 11.96667 C 9.98 g/m*3 11.97 C 0 km/h
Sensor: Nr:Datum:Temp:Abs-Feuchte:Windchill:Wind:
Aussen-T/F 701 24-09-2019 04:00:00 11.50833 C 9.77 g/m*3 11.51 C 0 km/h
702 24-09-2019 05:00:00 10.675 C 9.31 g/m*3 10.68 C 0 km/h
703 24-09-2019 06:00:00 10.25 C 9.1 g/m*3 10.25 C 0 km/h
704 24-09-2019 07:00:00 9.89167 C 8.94 g/m*3 9.89 C 0 km/h
705 24-09-2019 08:00:00 10.65 C 9.44 g/m*3 10.65 C 0 km/h
706 24-09-2019 09:00:00 11.35833 C 9.93 g/m*3 11.36 C 0.8 km/h
707 24-09-2019 10:00:00 12.49167 C 10.66 g/m*3 12.49 C 0 km/h
708 24-09-2019 11:00:00 14.48333 C 11.78 g/m*3 14.48 C 0.93333 km/h
709 24-09-2019 12:00:00 17.53333 C 12.03 g/m*3 17.53 C 3.88333 km/h
710 24-09-2019 13:00:00 18.59167 C 11.6 g/m*3 18.59 C 6.44167 km/h
711 24-09-2019 14:00:00 19.21667 C 11.33 g/m*3 19.22 C 1.60833 km/h
712 24-09-2019 15:00:00 18.63333 C 11.3 g/m*3 18.63 C 0.66667 km/h
713 24-09-2019 16:00:00 17.70833 C 12.37 g/m*3 17.71 C 0.93333 km/h
714 24-09-2019 17:00:00 16.95 C 12.96 g/m*3 16.95 C 0 km/h
715 24-09-2019 18:00:00 16.125 C 12.64 g/m*3 16.13 C 0 km/h
716 24-09-2019 19:00:00 15.1 C 12.01 g/m*3 15.1 C 0 km/h
717 24-09-2019 20:00:00 14.01667 C 11.37 g/m*3 14.02 C 0 km/h
718 24-09-2019 21:00:00 13.65 C 11.21 g/m*3 13.65 C 0 km/h
719 24-09-2019 22:00:00 13.64167 C 11.29 g/m*3 13.64 C 0 km/h
720 24-09-2019 23:00:00 13.775 C 11.42 g/m*3 13.78 C 0 km/h
721 25-09-2019 00:00:00 13.99167 C 11.57 g/m*3 13.99 C 0.13333 km/h
722 25-09-2019 01:00:00 14.13333 C 11.72 g/m*3 14.13 C 1.34167 km/h
723 25-09-2019 02:00:00 14.49167 C 11.93 g/m*3 14.49 C 3.35 km/h
724 25-09-2019 03:00:00 14.6 C 12.01 g/m*3 14.6 C 0.4 km/h
725 25-09-2019 04:00:00 14.55833 C 11.98 g/m*3 14.56 C 0.53333 km/h
Sensor: Nr:Datum:Temp:Abs-Feuchte:Windchill:Wind:
Aussen-T/F 726 25-09-2019 05:00:00 14.01667 C 11.59 g/m*3 14.02 C 1.33333 km/h
727 25-09-2019 06:00:00 13.64167 C 11.33 g/m*3 13.64 C 0.93333 km/h
728 25-09-2019 07:00:00 13.61667 C 11.33 g/m*3 13.62 C 0.8 km/h
729 25-09-2019 08:00:00 13.75 C 11.51 g/m*3 13.75 C 0 km/h
730 25-09-2019 09:00:00 14.33333 C 11.94 g/m*3 14.33 C 1.33333 km/h
731 25-09-2019 10:00:00 14.90833 C 12.03 g/m*3 14.91 C 8.475 km/h
732 25-09-2019 11:00:00 16.225 C 11.94 g/m*3 16.23 C 13.69167 km/h
733 25-09-2019 12:00:00 16.875 C 11.57 g/m*3 16.88 C 10.35833 km/h
734 25-09-2019 13:00:00 17.38333 C 11.46 g/m*3 17.38 C 11.81667 km/h
735 25-09-2019 14:00:00 17.38333 C 11.57 g/m*3 17.38 C 10.35833 km/h
736 25-09-2019 15:00:00 16.325 C 12.4 g/m*3 16.33 C 4.8 km/h
737 25-09-2019 16:00:00 17.08333 C 12.36 g/m*3 17.08 C 7.38333 km/h
738 25-09-2019 17:00:00 17.53333 C 12.19 g/m*3 17.53 C 7.24167 km/h
739 25-09-2019 18:00:00 16.775 C 11.91 g/m*3 16.77 C 2.54167 km/h
740 25-09-2019 19:00:00 15.625 C 11.72 g/m*3 15.63 C 0.53333 km/h
741 25-09-2019 20:00:00 15.10833 C 11.76 g/m*3 15.11 C 0 km/h
742 25-09-2019 21:00:00 14.71667 C 11.69 g/m*3 14.72 C 0.13333 km/h
743 25-09-2019 22:00:00 14.7 C 11.8 g/m*3 14.7 C 0 km/h
744 25-09-2019 23:00:00 14.65833 C 11.93 g/m*3 14.66 C 0 km/h
745 26-09-2019 00:00:00 14.55833 C 11.86 g/m*3 14.56 C 0.26667 km/h
746 26-09-2019 01:00:00 14.23333 C 11.65 g/m*3 14.23 C 0 km/h
747 26-09-2019 02:00:00 14.13333 C 11.67 g/m*3 14.13 C 0 km/h
748 26-09-2019 03:00:00 13.60833 C 11.29 g/m*3 13.61 C 0 km/h
749 26-09-2019 04:00:00 13.25833 C 11.08 g/m*3 13.26 C 0 km/h
750 26-09-2019 05:00:00 13.90833 C 11.6 g/m*3 13.91 C 2.01667 km/h
Sensor: Nr:Datum:Temp:Abs-Feuchte:Windchill:Wind:
Aussen-T/F 751 26-09-2019 06:00:00 14.125 C 11.78 g/m*3 14.13 C 0.53333 km/h
752 26-09-2019 07:00:00 14.35833 C 11.84 g/m*3 14.36 C 0.13333 km/h
753 26-09-2019 08:00:00 14.74167 C 12.12 g/m*3 14.74 C 0.26667 km/h
754 26-09-2019 09:00:00 15.10833 C 12.35 g/m*3 15.11 C 0.4 km/h
755 26-09-2019 10:00:00 15.86667 C 12.91 g/m*3 15.87 C 0.13333 km/h
756 26-09-2019 11:00:00 16.59167 C 13.37 g/m*3 16.59 C 0.93333 km/h
757 26-09-2019 12:00:00 17.61667 C 13.75 g/m*3 17.62 C 5.225 km/h
758 26-09-2019 13:00:00 17.775 C 13.9 g/m*3 17.77 C 1.06667 km/h
759 26-09-2019 14:00:00 17.51667 C 13.84 g/m*3 17.52 C 0.93333 km/h
760 26-09-2019 15:00:00 18.05833 C 14.13 g/m*3 18.06 C 1.2 km/h
761 26-09-2019 16:00:00 18.83333 C 14.32 g/m*3 18.83 C 4.15 km/h
762 26-09-2019 17:00:00 18.91667 C 14.2 g/m*3 18.92 C 4.675 km/h
763 26-09-2019 18:00:00 18.71667 C 14.24 g/m*3 18.72 C 2.68333 km/h
764 26-09-2019 19:00:00 18.04167 C 13.99 g/m*3 18.04 C 2.01667 km/h
765 26-09-2019 20:00:00 17.39167 C 13.29 g/m*3 17.39 C 6.03333 km/h
766 26-09-2019 21:00:00 17.36667 C 13.16 g/m*3 17.37 C 5.5 km/h
767 26-09-2019 22:00:00 17.725 C 13.08 g/m*3 17.73 C 10.23333 km/h
768 26-09-2019 23:00:00 17.81667 C 12.99 g/m*3 17.82 C 7.5 km/h
769 27-09-2019 00:00:00 17.98333 C 12.86 g/m*3 17.98 C 6.975 km/h
770 27-09-2019 01:00:00 18.05 C 12.68 g/m*3 18.05 C 10.20833 km/h
771 27-09-2019 02:00:00 17.96667 C 12.58 g/m*3 17.97 C 9.68333 km/h
772 27-09-2019 03:00:00 16.71667 C 12.82 g/m*3 16.72 C 6.18333 km/h
773 27-09-2019 04:00:00 16.29167 C 12.83 g/m*3 16.29 C 2.95 km/h
774 27-09-2019 05:00:00 16.16667 C 12.81 g/m*3 16.17 C 2.13333 km/h
775 27-09-2019 06:00:00 15.78333 C 12.67 g/m*3 15.78 C 2.15 km/h
Sensor: Nr:Datum:Temp:Abs-Feuchte:Windchill:Wind:
Aussen-T/F 776 27-09-2019 07:00:00 14.41667 C 11.71 g/m*3 14.42 C 2.28333 km/h
777 27-09-2019 08:00:00 14.1 C 11.62 g/m*3 14.1 C 0.66667 km/h
778 27-09-2019 09:00:00 13.99167 C 11.57 g/m*3 13.99 C 3.75 km/h
779 27-09-2019 10:00:00 14.69167 C 12.02 g/m*3 14.69 C 6.58333 km/h
780 27-09-2019 11:00:00 15.35 C 12.16 g/m*3 15.35 C 6.7 km/h
781 27-09-2019 12:00:00 15.96667 C 12.11 g/m*3 15.97 C 11.29167 km/h
782 27-09-2019 13:00:00 17.29167 C 11.95 g/m*3 17.29 C 12.9 km/h
783 27-09-2019 14:00:00 18.15833 C 11.77 g/m*3 18.16 C 14.9 km/h
784 27-09-2019 15:00:00 18.21667 C 11.79 g/m*3 18.22 C 13.83333 km/h
785 27-09-2019 16:00:00 17.96667 C 11.79 g/m*3 17.97 C 12.1 km/h
786 27-09-2019 17:00:00 18.98333 C 11.78 g/m*3 18.98 C 12.36667 km/h
787 27-09-2019 18:00:00 18.01667 C 11.54 g/m*3 18.02 C 10.75833 km/h
788 27-09-2019 19:00:00 16.05833 C 11.25 g/m*3 16.06 C 3.75833 km/h
789 27-09-2019 20:00:00 15.13333 C 11.37 g/m*3 15.13 C 0.26667 km/h
790 27-09-2019 21:00:00 14.275 C 11.06 g/m*3 14.28 C 0.26667 km/h
791 27-09-2019 22:00:00 13.83333 C 11.04 g/m*3 13.83 C 0 km/h
792 27-09-2019 23:00:00 13.5 C 10.98 g/m*3 13.5 C 0 km/h
793 28-09-2019 00:00:00 12.875 C 10.64 g/m*3 12.88 C 0.66667 km/h
794 28-09-2019 01:00:00 12.90833 C 10.72 g/m*3 12.91 C 3.21667 km/h
795 28-09-2019 02:00:00 14.21667 C 11.16 g/m*3 14.22 C 9.13333 km/h
796 28-09-2019 03:00:00 14.825 C 11.33 g/m*3 14.83 C 6.45 km/h
797 28-09-2019 04:00:00 14.04167 C 11.17 g/m*3 14.04 C 5.63333 km/h
798 28-09-2019 05:00:00 13.95 C 11.05 g/m*3 13.95 C 6.84167 km/h
799 28-09-2019 06:00:00 14.4 C 11.21 g/m*3 14.4 C 9.4 km/h
800 28-09-2019 07:00:00 14.1 C 11.28 g/m*3 14.1 C 1.875 km/h
Sensor: Nr:Datum:Temp:Abs-Feuchte:Windchill:Wind:
Aussen-T/F 801 28-09-2019 08:00:00 13.89167 C 11.18 g/m*3 13.89 C 7.94167 km/h
802 28-09-2019 09:00:00 14.35833 C 11.11 g/m*3 14.36 C 12.225 km/h
803 28-09-2019 10:00:00 15.4 C 11.21 g/m*3 15.4 C 12.75833 km/h
804 28-09-2019 11:00:00 16.30833 C 11.15 g/m*3 16.31 C 17.43333 km/h
805 28-09-2019 12:00:00 16.85 C 11.27 g/m*3 16.85 C 13.16667 km/h
806 28-09-2019 13:00:00 17.21667 C 11.3 g/m*3 17.22 C 17.3 km/h
807 28-09-2019 14:00:00 17.49167 C 11.4 g/m*3 17.49 C 17.3 km/h
808 28-09-2019 15:00:00 17.16667 C 11.3 g/m*3 17.17 C 15.43333 km/h
809 28-09-2019 16:00:00 17.35833 C 11.48 g/m*3 17.36 C 14.23333 km/h
810 28-09-2019 17:00:00 17.71667 C 11.43 g/m*3 17.72 C 15.96667 km/h
811 28-09-2019 18:00:00 17.14167 C 11.18 g/m*3 17.14 C 11.025 km/h
812 28-09-2019 19:00:00 15.7 C 10.78 g/m*3 15.7 C 8.99167 km/h
813 28-09-2019 20:00:00 15.24167 C 10.7 g/m*3 15.24 C 5.89167 km/h
814 28-09-2019 21:00:00 14.975 C 10.58 g/m*3 14.98 C 7.79167 km/h
815 28-09-2019 22:00:00 15.13333 C 10.51 g/m*3 15.13 C 9.53333 km/h
816 28-09-2019 23:00:00 14.15 C 10.33 g/m*3 14.15 C 4.55 km/h
817 29-09-2019 00:00:00 13.875 C 10.33 g/m*3 13.88 C 2.81667 km/h
818 29-09-2019 01:00:00 13.95 C 10.4 g/m*3 13.95 C 0.66667 km/h
819 29-09-2019 02:00:00 13.65 C 10.49 g/m*3 13.65 C 0 km/h
820 29-09-2019 03:00:00 13.48333 C 10.54 g/m*3 13.48 C 0 km/h
821 29-09-2019 04:00:00 13.525 C 10.66 g/m*3 13.53 C 0 km/h
822 29-09-2019 05:00:00 13.81667 C 10.66 g/m*3 13.82 C 0.26667 km/h
823 29-09-2019 06:00:00 13.94167 C 10.43 g/m*3 13.94 C 0.93333 km/h
824 29-09-2019 07:00:00 14.025 C 10.46 g/m*3 14.03 C 1.33333 km/h
825 29-09-2019 08:00:00 14.95833 C 10.59 g/m*3 14.96 C 5.75833 km/h
Sensor: Nr:Datum:Temp:Abs-Feuchte:Windchill:Wind:
Aussen-T/F 826 29-09-2019 09:00:00 16.53333 C 10.83 g/m*3 16.53 C 13.69167 km/h
827 29-09-2019 10:00:00 17.45833 C 10.94 g/m*3 17.46 C 19.175 km/h
828 29-09-2019 11:00:00 17.74167 C 11 g/m*3 17.74 C 17.84167 km/h
829 29-09-2019 12:00:00 18.25833 C 11.19 g/m*3 18.26 C 17.16667 km/h
830 29-09-2019 13:00:00 18.1 C 11.15 g/m*3 18.1 C 13.03333 km/h
831 29-09-2019 14:00:00 18.61667 C 10.9 g/m*3 18.62 C 21.325 km/h
832 29-09-2019 15:00:00 18.21667 C 11.38 g/m*3 18.22 C 17.44167 km/h
833 29-09-2019 16:00:00 17.10833 C 11.91 g/m*3 17.11 C 13.025 km/h
834 29-09-2019 17:00:00 17 C 11.93 g/m*3 17 C 12.35833 km/h
835 29-09-2019 18:00:00 17.5 C 12.36 g/m*3 17.5 C 12.1 km/h
836 29-09-2019 19:00:00 17.70833 C 12.54 g/m*3 17.71 C 15.56667 km/h
837 29-09-2019 20:00:00 17.275 C 12.96 g/m*3 17.27 C 5.9 km/h
838 29-09-2019 21:00:00 16.79167 C 13.17 g/m*3 16.79 C 5.63333 km/h
839 29-09-2019 22:00:00 16.91667 C 13.29 g/m*3 16.92 C 12.08333 km/h
840 29-09-2019 23:00:00 16.61667 C 13 g/m*3 16.62 C 14.49167 km/h
841 30-09-2019 00:00:00 15.65 C 11.66 g/m*3 15.65 C 18.11667 km/h
842 30-09-2019 01:00:00 15.34167 C 11.27 g/m*3 15.34 C 18.225 km/h
843 30-09-2019 02:00:00 15.15833 C 11.2 g/m*3 15.16 C 17.03333 km/h
844 30-09-2019 03:00:00 15.25833 C 11.31 g/m*3 15.26 C 15.3 km/h
845 30-09-2019 04:00:00 15.04167 C 11.38 g/m*3 15.04 C 11.95 km/h
846 30-09-2019 05:00:00 13.75833 C 10.95 g/m*3 13.76 C 9.925 km/h
847 30-09-2019 06:00:00 13.19167 C 10.65 g/m*3 13.19 C 9.93333 km/h
848 30-09-2019 07:00:00 13.08333 C 10.34 g/m*3 13.08 C 10.08333 km/h
849 30-09-2019 08:00:00 13.29167 C 10.07 g/m*3 13.29 C 12.1 km/h
850 30-09-2019 09:00:00 13.94167 C 10 g/m*3 13.94 C 13.3 km/h
Sensor: Nr:Datum:Temp:Abs-Feuchte:Windchill:Wind:
Aussen-T/F 851 30-09-2019 10:00:00 14.45 C 10.08 g/m*3 14.45 C 14.5 km/h
852 30-09-2019 11:00:00 15.13333 C 10.09 g/m*3 15.13 C 15.16667 km/h
853 30-09-2019 12:00:00 15.71667 C 9.81 g/m*3 15.72 C 16.76667 km/h
854 30-09-2019 13:00:00 16.40833 C 9.68 g/m*3 16.41 C 15.56667 km/h
855 30-09-2019 14:00:00 17.10833 C 9.71 g/m*3 17.11 C 14.23333 km/h
856 30-09-2019 15:00:00 17.75833 C 9.83 g/m*3 17.76 C 14.63333 km/h
857 30-09-2019 16:00:00 18.45833 C 9.85 g/m*3 18.46 C 14.36667 km/h
858 30-09-2019 17:00:00 18.45 C 9.54 g/m*3 18.45 C 12.1 km/h
859 30-09-2019 18:00:00 17.69167 C 10.24 g/m*3 17.69 C 3.34167 km/h
860 30-09-2019 19:00:00 14.83333 C 10.22 g/m*3 14.83 C 0.4 km/h
861 30-09-2019 20:00:00 14.20833 C 10.42 g/m*3 14.21 C 3.34167 km/h
862 30-09-2019 21:00:00 14.69167 C 10.71 g/m*3 14.69 C 3.74167 km/h
863 30-09-2019 22:00:00 14.68333 C 10.7 g/m*3 14.68 C 3.6 km/h
864 30-09-2019 23:00:00 14.23333 C 10.44 g/m*3 14.23 C 1.06667 km/h
865 01-10-2019 00:00:00 14.33333 C 10.41 g/m*3 14.33 C 0.4 km/h
866 01-10-2019 01:00:00 14.025 C 10.47 g/m*3 14.03 C 1.2 km/h
867 01-10-2019 02:00:00 13.60833 C 10.24 g/m*3 13.61 C 0 km/h
868 01-10-2019 03:00:00 12.65 C 9.88 g/m*3 12.65 C 0 km/h
869 01-10-2019 04:00:00 13.275 C 10.3 g/m*3 13.28 C 3.48333 km/h
870 01-10-2019 05:00:00 14.40833 C 10.55 g/m*3 14.41 C 7.8 km/h
871 01-10-2019 06:00:00 15.00833 C 10.98 g/m*3 15.01 C 11.55833 km/h
872 01-10-2019 07:00:00 15.375 C 11.38 g/m*3 15.38 C 15.56667 km/h
873 01-10-2019 08:00:00 15.5 C 11.54 g/m*3 15.5 C 14.1 km/h
874 01-10-2019 09:00:00 16.125 C 11.82 g/m*3 16.13 C 13.7 km/h
875 01-10-2019 10:00:00 17.09167 C 12.35 g/m*3 17.09 C 14.9 km/h
Sensor: Nr:Datum:Temp:Abs-Feuchte:Windchill:Wind:
Aussen-T/F 876 01-10-2019 11:00:00 17.53333 C 12.69 g/m*3 17.53 C 14.63333 km/h
877 01-10-2019 12:00:00 17.36667 C 13.11 g/m*3 17.37 C 12.225 km/h
878 01-10-2019 13:00:00 18.575 C 12.46 g/m*3 18.58 C 9.41667 km/h
879 01-10-2019 14:00:00 18.35833 C 13.01 g/m*3 18.36 C 8.34167 km/h
880 01-10-2019 15:00:00 19.08333 C 13.57 g/m*3 19.08 C 11.425 km/h
881 01-10-2019 16:00:00 18.26667 C 13.78 g/m*3 18.27 C 5.775 km/h
882 01-10-2019 17:00:00 17.6 C 13.95 g/m*3 17.6 C 0.66667 km/h
883 01-10-2019 18:00:00 16.725 C 13.21 g/m*3 16.73 C 1.2 km/h
884 01-10-2019 19:00:00 16.19167 C 12.98 g/m*3 16.19 C 0 km/h
885 01-10-2019 20:00:00 15.875 C 12.82 g/m*3 15.88 C 0.66667 km/h
886 01-10-2019 21:00:00 15.85 C 12.85 g/m*3 15.85 C 1.46667 km/h
887 01-10-2019 22:00:00 15.5 C 12.56 g/m*3 15.5 C 1.60833 km/h
888 01-10-2019 23:00:00 15.225 C 12.35 g/m*3 15.23 C 3.06667 km/h
889 02-10-2019 00:00:00 15.15833 C 12.3 g/m*3 15.16 C 3.35833 km/h
890 02-10-2019 01:00:00 15.20833 C 12.24 g/m*3 15.21 C 4.14167 km/h
891 02-10-2019 02:00:00 14.975 C 12 g/m*3 14.98 C 1.2 km/h
892 02-10-2019 03:00:00 14.95833 C 11.96 g/m*3 14.96 C 7.26667 km/h
893 02-10-2019 04:00:00 15.08333 C 11.86 g/m*3 15.08 C 4.55 km/h
894 02-10-2019 05:00:00 14.69167 C 11.66 g/m*3 14.69 C 3.48333 km/h
895 02-10-2019 06:00:00 13.59167 C 10.82 g/m*3 13.59 C 10.2 km/h
896 02-10-2019 07:00:00 11.80833 C 9.71 g/m*3 11.81 C 11.3 km/h
897 02-10-2019 08:00:00 10.74167 C 9.16 g/m*3 9.02 C 13.43333 km/h
898 02-10-2019 09:00:00 10.46667 C 8.8 g/m*3 9.65 C 7.51667 km/h
899 02-10-2019 10:00:00 10.86667 C 8.73 g/m*3 10.04 C 7.91667 km/h
900 02-10-2019 11:00:00 11.33333 C 8.56 g/m*3 11.33 C 11.01667 km/h
Sensor: Nr:Datum:Temp:Abs-Feuchte:Windchill:Wind:
Aussen-T/F 901 02-10-2019 12:00:00 11.86667 C 8.52 g/m*3 11.87 C 9.125 km/h
902 02-10-2019 13:00:00 12.65833 C 8.48 g/m*3 12.66 C 9.54167 km/h
903 02-10-2019 14:00:00 13.49167 C 8.19 g/m*3 13.49 C 9.55833 km/h
904 02-10-2019 15:00:00 13.66667 C 7.87 g/m*3 13.67 C 11.825 km/h
905 02-10-2019 16:00:00 13.8 C 7.37 g/m*3 13.8 C 14.1 km/h
906 02-10-2019 17:00:00 14.26667 C 7.55 g/m*3 14.27 C 12.21667 km/h
907 02-10-2019 18:00:00 12.9 C 7.68 g/m*3 12.9 C 10.89167 km/h
908 02-10-2019 19:00:00 11.325 C 7.61 g/m*3 11.33 C 5.76667 km/h
909 02-10-2019 20:00:00 10.04167 C 7.5 g/m*3 10.04 C 4.825 km/h
910 02-10-2019 21:00:00 9.875 C 7.51 g/m*3 9.88 C 3.20833 km/h
911 02-10-2019 22:00:00 8.61667 C 7.37 g/m*3 8.62 C 0.66667 km/h
912 02-10-2019 23:00:00 8.48333 C 7.43 g/m*3 8.48 C 3.875 km/h
913 03-10-2019 00:00:00 9.33333 C 7.66 g/m*3 9.33 C 4.41667 km/h
914 03-10-2019 01:00:00 9.25833 C 7.75 g/m*3 9.26 C 4.68333 km/h
915 03-10-2019 02:00:00 9.21667 C 7.73 g/m*3 9.22 C 3.73333 km/h
916 03-10-2019 03:00:00 8.525 C 7.52 g/m*3 8.53 C 1.86667 km/h
917 03-10-2019 04:00:00 7.63333 C 7.29 g/m*3 7.63 C 1.33333 km/h
918 03-10-2019 05:00:00 7.94167 C 7.49 g/m*3 7.94 C 4.41667 km/h
919 03-10-2019 06:00:00 7.45 C 7.26 g/m*3 7.45 C 1.2 km/h
920 03-10-2019 07:00:00 7.2 C 7.29 g/m*3 7.2 C 1.6 km/h
921 03-10-2019 08:00:00 7.74167 C 7.49 g/m*3 7.74 C 4.96667 km/h
922 03-10-2019 09:00:00 9.34167 C 7.9 g/m*3 8.53 C 6.70833 km/h
923 03-10-2019 10:00:00 10.36667 C 8.23 g/m*3 9.45 C 7.925 km/h
924 03-10-2019 11:00:00 12.23333 C 8.75 g/m*3 12.23 C 8.725 km/h
925 03-10-2019 12:00:00 12.55833 C 9.02 g/m*3 12.56 C 6.16667 km/h
Sensor: Nr:Datum:Temp:Abs-Feuchte:Windchill:Wind:
Aussen-T/F 926 03-10-2019 13:00:00 12.225 C 9.57 g/m*3 12.23 C 0.13333 km/h
927 03-10-2019 14:00:00 11.68333 C 9.65 g/m*3 11.68 C 0.8 km/h
928 03-10-2019 15:00:00 11.88333 C 10.01 g/m*3 11.88 C 0.8 km/h
929 03-10-2019 16:00:00 12.15833 C 10.02 g/m*3 12.16 C 2.41667 km/h
930 03-10-2019 17:00:00 11.75833 C 9.81 g/m*3 11.76 C 0 km/h
931 03-10-2019 18:00:00 10.81667 C 9.3 g/m*3 10.82 C 1.06667 km/h
932 03-10-2019 19:00:00 9.90833 C 8.84 g/m*3 9.91 C 0.8 km/h
933 03-10-2019 20:00:00 9.36667 C 8.58 g/m*3 9.37 C 0 km/h
934 03-10-2019 21:00:00 9.00833 C 8.45 g/m*3 9.01 C 0 km/h
935 03-10-2019 22:00:00 8.625 C 8.26 g/m*3 8.63 C 0 km/h
936 03-10-2019 23:00:00 8.375 C 8.13 g/m*3 8.38 C 0 km/h
937 04-10-2019 00:00:00 8.38333 C 8.14 g/m*3 8.38 C 0 km/h
938 04-10-2019 01:00:00 8.21667 C 8.07 g/m*3 8.22 C 0.13333 km/h
939 04-10-2019 02:00:00 8.19167 C 8.08 g/m*3 8.19 C 0 km/h
940 04-10-2019 03:00:00 8.05833 C 8.04 g/m*3 8.06 C 0 km/h
941 04-10-2019 04:00:00 7.71667 C 7.86 g/m*3 7.72 C 0 km/h
942 04-10-2019 05:00:00 7.90833 C 7.97 g/m*3 7.91 C 0 km/h
943 04-10-2019 06:00:00 7.96667 C 8 g/m*3 7.97 C 0.93333 km/h
944 04-10-2019 07:00:00 8.13333 C 8.09 g/m*3 8.13 C 2.68333 km/h
945 04-10-2019 08:00:00 8.45833 C 8.26 g/m*3 8.46 C 1.06667 km/h
946 04-10-2019 09:00:00 8.70833 C 8.39 g/m*3 8.71 C 0.8 km/h
947 04-10-2019 10:00:00 9.125 C 8.61 g/m*3 9.13 C 3.875 km/h
948 04-10-2019 11:00:00 9.75833 C 8.88 g/m*3 9.26 C 5.75833 km/h
949 04-10-2019 12:00:00 10.65 C 9.33 g/m*3 10.65 C 3.06667 km/h
950 04-10-2019 13:00:00 11.25833 C 9.61 g/m*3 11.26 C 2 km/h
Sensor: Nr:Datum:Temp:Abs-Feuchte:Windchill:Wind:
Aussen-T/F 951 04-10-2019 14:00:00 13.03333 C 10.33 g/m*3 13.03 C 7.53333 km/h
952 04-10-2019 15:00:00 13.81667 C 10.48 g/m*3 13.82 C 6.98333 km/h
953 04-10-2019 16:00:00 14.05833 C 10.83 g/m*3 14.06 C 1.875 km/h
954 04-10-2019 17:00:00 13.36667 C 10.78 g/m*3 13.37 C 2.13333 km/h
955 04-10-2019 18:00:00 12.35833 C 10.26 g/m*3 12.36 C 1.46667 km/h
956 04-10-2019 19:00:00 11.70833 C 9.98 g/m*3 11.71 C 1.06667 km/h
957 04-10-2019 20:00:00 11.63333 C 10 g/m*3 11.63 C 2.53333 km/h
958 04-10-2019 21:00:00 11.65833 C 10.01 g/m*3 11.66 C 5.775 km/h
959 04-10-2019 22:00:00 11.69167 C 9.97 g/m*3 11.69 C 4.29167 km/h
960 04-10-2019 23:00:00 11.71667 C 9.99 g/m*3 11.72 C 5.9 km/h
961 05-10-2019 00:00:00 11.96667 C 9.86 g/m*3 11.97 C 7.10833 km/h
962 05-10-2019 01:00:00 12.09167 C 9.86 g/m*3 12.09 C 6.85833 km/h
963 05-10-2019 02:00:00 12.225 C 9.8 g/m*3 12.23 C 7.64167 km/h
964 05-10-2019 03:00:00 12.3 C 9.94 g/m*3 12.3 C 3.20833 km/h
965 05-10-2019 04:00:00 11.55 C 9.64 g/m*3 11.55 C 5.90833 km/h
966 05-10-2019 05:00:00 10.75833 C 9.21 g/m*3 10.24 C 6.44167 km/h
967 05-10-2019 06:00:00 10.20833 C 8.93 g/m*3 10.21 C 2.275 km/h
968 05-10-2019 07:00:00 9.98333 C 8.77 g/m*3 9.98 C 3.6 km/h
969 05-10-2019 08:00:00 9.81667 C 8.54 g/m*3 9.82 C 2.26667 km/h
970 05-10-2019 09:00:00 10.18333 C 8.62 g/m*3 10.18 C 4.94167 km/h
971 05-10-2019 10:00:00 10.55833 C 8.61 g/m*3 9.6 C 8.325 km/h
972 05-10-2019 11:00:00 10.70833 C 8.11 g/m*3 9.72 C 8.60833 km/h
973 05-10-2019 12:00:00 11.2 C 8.17 g/m*3 11.2 C 6.575 km/h
974 05-10-2019 13:00:00 11.9 C 8.22 g/m*3 11.9 C 4.26667 km/h
975 05-10-2019 14:00:00 11.89167 C 8.27 g/m*3 11.89 C 2.40833 km/h
Sensor: Nr:Datum:Temp:Abs-Feuchte:Windchill:Wind:
Aussen-T/F 976 05-10-2019 15:00:00 12.23333 C 8.36 g/m*3 12.23 C 0.93333 km/h
977 05-10-2019 16:00:00 12.3 C 8.75 g/m*3 12.3 C 0.66667 km/h
978 05-10-2019 17:00:00 12.06667 C 9 g/m*3 12.07 C 0.13333 km/h
979 05-10-2019 18:00:00 11.125 C 8.64 g/m*3 11.13 C 0 km/h
980 05-10-2019 19:00:00 9.50833 C 7.87 g/m*3 9.51 C 0.4 km/h
981 05-10-2019 20:00:00 8.35833 C 7.46 g/m*3 8.36 C 1.33333 km/h
982 05-10-2019 21:00:00 7.875 C 7.44 g/m*3 7.88 C 0 km/h
983 05-10-2019 22:00:00 7.43333 C 7.44 g/m*3 7.43 C 0 km/h
984 05-10-2019 23:00:00 7.35 C 7.45 g/m*3 7.35 C 0 km/h
985 06-10-2019 00:00:00 7.13333 C 7.36 g/m*3 7.13 C 0 km/h
986 06-10-2019 01:00:00 6.55 C 7.11 g/m*3 6.55 C 0 km/h
987 06-10-2019 02:00:00 6.7 C 7.26 g/m*3 6.7 C 0 km/h
988 06-10-2019 03:00:00 7.05833 C 7.47 g/m*3 7.06 C 0 km/h
989 06-10-2019 04:00:00 7.2 C 7.54 g/m*3 7.2 C 0 km/h
990 06-10-2019 05:00:00 7.18333 C 7.53 g/m*3 7.18 C 0 km/h
991 06-10-2019 06:00:00 7.38333 C 7.63 g/m*3 7.38 C 0 km/h
992 06-10-2019 07:00:00 7.65833 C 7.76 g/m*3 7.66 C 0 km/h
993 06-10-2019 08:00:00 7.84167 C 7.86 g/m*3 7.84 C 0 km/h
994 06-10-2019 09:00:00 8.31667 C 8.1 g/m*3 8.32 C 0 km/h
995 06-10-2019 10:00:00 8.63333 C 8.22 g/m*3 8.63 C 0.8 km/h
996 06-10-2019 11:00:00 8.55833 C 8.21 g/m*3 8.56 C 3.6 km/h
997 06-10-2019 12:00:00 8.78333 C 8.35 g/m*3 8.78 C 0.26667 km/h
998 06-10-2019 13:00:00 9.06667 C 8.5 g/m*3 9.07 C 0.66667 km/h
999 06-10-2019 14:00:00 9.25 C 8.6 g/m*3 9.25 C 1.06667 km/h
1000 06-10-2019 15:00:00 9.45833 C 8.72 g/m*3 9.46 C 0.53333 km/h
Sensor: Nr:Datum:Temp:Abs-Feuchte:Windchill:Wind:
Aussen-T/F 1001 06-10-2019 16:00:00 9.61667 C 8.8 g/m*3 9.62 C 1.86667 km/h
1002 06-10-2019 17:00:00 9.51667 C 8.75 g/m*3 9.52 C 0.53333 km/h
1003 06-10-2019 18:00:00 9.325 C 8.64 g/m*3 9.32 C 3.225 km/h
1004 06-10-2019 19:00:00 9.15 C 8.57 g/m*3 9.15 C 3.60833 km/h
1005 06-10-2019 20:00:00 9.1 C 8.61 g/m*3 9.1 C 0.4 km/h
1006 06-10-2019 21:00:00 9.04167 C 8.57 g/m*3 9.04 C 1.74167 km/h
1007 06-10-2019 22:00:00 8.81667 C 8.45 g/m*3 8.82 C 1.875 km/h
1008 06-10-2019 23:00:00 8.83333 C 8.46 g/m*3 8.83 C 0 km/h
1009 07-10-2019 00:00:00 8.9 C 8.5 g/m*3 8.9 C 0.26667 km/h
1010 07-10-2019 01:00:00 8.725 C 8.4 g/m*3 8.73 C 2.95 km/h
1011 07-10-2019 02:00:00 8.69167 C 8.38 g/m*3 8.69 C 0.13333 km/h
1012 07-10-2019 03:00:00 8.60833 C 8.34 g/m*3 8.61 C 1.33333 km/h
1013 07-10-2019 04:00:00 8.7 C 8.39 g/m*3 8.7 C 0 km/h
1014 07-10-2019 05:00:00 8.64167 C 8.36 g/m*3 8.64 C 1.86667 km/h
1015 07-10-2019 06:00:00 8.6 C 8.34 g/m*3 8.6 C 0.13333 km/h
1016 07-10-2019 07:00:00 8.6 C 8.34 g/m*3 8.6 C 0 km/h
1017 07-10-2019 08:00:00 8.66667 C 8.37 g/m*3 8.67 C 0 km/h
1018 07-10-2019 09:00:00 8.83333 C 8.46 g/m*3 8.83 C 0.26667 km/h
1019 07-10-2019 10:00:00 9.08333 C 8.6 g/m*3 9.08 C 1.06667 km/h
1020 07-10-2019 11:00:00 9.65 C 8.88 g/m*3 9.65 C 3.34167 km/h
1021 07-10-2019 12:00:00 10.51667 C 9.05 g/m*3 10.52 C 2.4 km/h
1022 07-10-2019 13:00:00 10.84167 C 9 g/m*3 10.84 C 2.675 km/h
1023 07-10-2019 14:00:00 11.46667 C 9.1 g/m*3 11.47 C 5.89167 km/h
1024 07-10-2019 15:00:00 12.225 C 9.43 g/m*3 12.23 C 1.86667 km/h
1025 07-10-2019 16:00:00 12.29167 C 9.53 g/m*3 12.29 C 1.33333 km/h
Sensor: Nr:Datum:Temp:Abs-Feuchte:Windchill:Wind:
Aussen-T/F 1026 07-10-2019 17:00:00 12.3 C 9.56 g/m*3 12.3 C 2.4 km/h
1027 07-10-2019 18:00:00 11.86667 C 9.56 g/m*3 11.87 C 0.53333 km/h
1028 07-10-2019 19:00:00 11.09167 C 9.35 g/m*3 11.09 C 0 km/h
1029 07-10-2019 20:00:00 10.725 C 9.32 g/m*3 10.73 C 0 km/h
1030 07-10-2019 21:00:00 10.975 C 9.58 g/m*3 10.98 C 0 km/h
1031 07-10-2019 22:00:00 11.1 C 9.67 g/m*3 11.1 C 0.26667 km/h
1032 07-10-2019 23:00:00 11.1 C 9.67 g/m*3 11.1 C 0.26667 km/h
1033 08-10-2019 00:00:00 11.11667 C 9.75 g/m*3 11.12 C 0.53333 km/h
1034 08-10-2019 01:00:00 11.25 C 9.79 g/m*3 11.25 C 1.33333 km/h
1035 08-10-2019 02:00:00 11.44167 C 9.88 g/m*3 11.44 C 0.93333 km/h
1036 08-10-2019 03:00:00 11.75833 C 10.05 g/m*3 11.76 C 3.75833 km/h
1037 08-10-2019 04:00:00 11.9 C 10.03 g/m*3 11.9 C 3.61667 km/h
1038 08-10-2019 05:00:00 12.31667 C 10 g/m*3 12.32 C 8.46667 km/h
1039 08-10-2019 06:00:00 12.18333 C 9.96 g/m*3 12.18 C 4.3 km/h
1040 08-10-2019 07:00:00 11.79167 C 9.97 g/m*3 11.79 C 2.53333 km/h
1041 08-10-2019 08:00:00 11.825 C 10.1 g/m*3 11.83 C 5.775 km/h
1042 08-10-2019 09:00:00 12.03333 C 10.25 g/m*3 12.03 C 10.05833 km/h
1043 08-10-2019 10:00:00 12.49167 C 10.45 g/m*3 12.49 C 12.76667 km/h
1044 08-10-2019 11:00:00 13.5 C 10.89 g/m*3 13.5 C 13.7 km/h
1045 08-10-2019 12:00:00 13.85833 C 10.95 g/m*3 13.86 C 14.36667 km/h
1046 08-10-2019 13:00:00 14.225 C 11.19 g/m*3 14.23 C 9.93333 km/h
1047 08-10-2019 14:00:00 14.6 C 11.43 g/m*3 14.6 C 10.075 km/h
1048 08-10-2019 15:00:00 14.48333 C 11.47 g/m*3 14.48 C 9.55 km/h
1049 08-10-2019 16:00:00 14.225 C 11.56 g/m*3 14.23 C 6.70833 km/h
1050 08-10-2019 17:00:00 14.05833 C 11.55 g/m*3 14.06 C 3.61667 km/h
Sensor: Nr:Datum:Temp:Abs-Feuchte:Windchill:Wind:
Aussen-T/F 1051 08-10-2019 18:00:00 13.86667 C 11.49 g/m*3 13.87 C 3.09167 km/h
1052 08-10-2019 19:00:00 13.79167 C 11.43 g/m*3 13.79 C 1.875 km/h
1053 08-10-2019 20:00:00 13.55 C 11.3 g/m*3 13.55 C 0.53333 km/h
1054 08-10-2019 21:00:00 13.225 C 11.14 g/m*3 13.23 C 0.13333 km/h
1055 08-10-2019 22:00:00 12.825 C 10.88 g/m*3 12.83 C 0 km/h
1056 08-10-2019 23:00:00 11.68333 C 10.05 g/m*3 11.68 C 0.53333 km/h
1057 09-10-2019 00:00:00 10.78333 C 9.56 g/m*3 10.78 C 0.13333 km/h
1058 09-10-2019 01:00:00 10.34167 C 9.31 g/m*3 10.34 C 0.13333 km/h
1059 09-10-2019 02:00:00 10.35 C 9.33 g/m*3 10.35 C 1.2 km/h
1060 09-10-2019 03:00:00 10.625 C 9.52 g/m*3 10.63 C 3.35833 km/h
1061 09-10-2019 04:00:00 10.98333 C 9.72 g/m*3 10.77 C 5.36667 km/h
1062 09-10-2019 05:00:00 10.79167 C 9.58 g/m*3 10.59 C 5.225 km/h
1063 09-10-2019 06:00:00 10.925 C 9.66 g/m*3 10.37 C 6.69167 km/h
1064 09-10-2019 07:00:00 10.64167 C 9.4 g/m*3 10.64 C 4.54167 km/h
1065 09-10-2019 08:00:00 10.73333 C 9.48 g/m*3 10.73 C 4.95833 km/h
1066 09-10-2019 09:00:00 11.2 C 9.76 g/m*3 11.2 C 5.36667 km/h
1067 09-10-2019 10:00:00 12.55 C 10.19 g/m*3 12.55 C 7.38333 km/h
1068 09-10-2019 11:00:00 13.55833 C 10.43 g/m*3 13.56 C 3.46667 km/h
1069 09-10-2019 12:00:00 13.90833 C 10.64 g/m*3 13.91 C 5.225 km/h
1070 09-10-2019 13:00:00 13.59167 C 10.87 g/m*3 13.59 C 1.34167 km/h
1071 09-10-2019 14:00:00 12.925 C 10.43 g/m*3 12.93 C 3.74167 km/h
1072 09-10-2019 15:00:00 12.28333 C 10.09 g/m*3 12.28 C 9.01667 km/h
1073 09-10-2019 16:00:00 12.775 C 10.02 g/m*3 12.78 C 8.86667 km/h
1074 09-10-2019 17:00:00 12.975 C 9.81 g/m*3 12.98 C 10.20833 km/h
1075 09-10-2019 18:00:00 12.525 C 9.54 g/m*3 12.53 C 11.28333 km/h
Sensor: Nr:Datum:Temp:Abs-Feuchte:Windchill:Wind:
Aussen-T/F 1076 09-10-2019 19:00:00 11.84167 C 9.37 g/m*3 11.84 C 9.675 km/h
1077 09-10-2019 20:00:00 11.20833 C 9.09 g/m*3 11.21 C 6.3 km/h
1078 09-10-2019 21:00:00 11.06667 C 9.07 g/m*3 11.07 C 8.2 km/h
1079 09-10-2019 22:00:00 11.10833 C 8.69 g/m*3 11.11 C 14.23333 km/h
1080 09-10-2019 23:00:00 10.8 C 8.53 g/m*3 9.33 C 11.7 km/h
1081 10-10-2019 00:00:00 10.375 C 8.45 g/m*3 8.64 C 12.89167 km/h
1082 10-10-2019 01:00:00 10.15833 C 8.49 g/m*3 9.61 C 6.15833 km/h
1083 10-10-2019 02:00:00 10.39167 C 8.71 g/m*3 10.39 C 4.825 km/h
1084 10-10-2019 03:00:00 10.68333 C 8.93 g/m*3 10.68 C 4.81667 km/h
1085 10-10-2019 04:00:00 10.56667 C 8.95 g/m*3 9.64 C 8.18333 km/h
1086 10-10-2019 05:00:00 10.40833 C 9.02 g/m*3 10.41 C 3.2 km/h
1087 10-10-2019 06:00:00 10.44167 C 9.05 g/m*3 10.11 C 5.49167 km/h
1088 10-10-2019 07:00:00 10.09167 C 8.79 g/m*3 9.37 C 6.84167 km/h
1089 10-10-2019 08:00:00 9.81667 C 8.56 g/m*3 8.93 C 7.375 km/h
1090 10-10-2019 09:00:00 10.675 C 8.79 g/m*3 9.59 C 9.13333 km/h
1091 10-10-2019 10:00:00 11.29167 C 8.88 g/m*3 11.29 C 11.825 km/h
1092 10-10-2019 11:00:00 12.33333 C 9.13 g/m*3 12.33 C 12.89167 km/h
1093 10-10-2019 12:00:00 13.35 C 9.1 g/m*3 13.35 C 14.1 km/h
1094 10-10-2019 13:00:00 14.28333 C 8.73 g/m*3 14.28 C 16.5 km/h
1095 10-10-2019 14:00:00 14.53333 C 9.12 g/m*3 14.53 C 12.20833 km/h
1096 10-10-2019 15:00:00 15.09167 C 9.33 g/m*3 15.09 C 12.76667 km/h
1097 10-10-2019 16:00:00 15.37778 C 9.32 g/m*3 15.38 C 12.01111 km/h
1098 10-10-2019 17:00:00 13.83333 C 9.62 g/m*3 13.83 C 9.675 km/h
1099 10-10-2019 18:00:00 13.18333 C 9.53 g/m*3 13.18 C 4.15 km/h
1100 10-10-2019 19:00:00 11.68333 C 9.19 g/m*3 11.68 C 3.475 km/h
Sensor: Nr:Datum:Temp:Abs-Feuchte:Windchill:Wind:
Aussen-T/F 1101 10-10-2019 20:00:00 11.69167 C 9.23 g/m*3 11.69 C 4.95 km/h
1102 10-10-2019 21:00:00 10.88333 C 9 g/m*3 10.88 C 0.26667 km/h
1103 10-10-2019 22:00:00 10.18333 C 8.9 g/m*3 10.18 C 0.13333 km/h
1104 10-10-2019 23:00:00 9.8 C 8.77 g/m*3 9.8 C 0.93333 km/h
1105 11-10-2019 00:00:00 9.575 C 8.73 g/m*3 9.57 C 1.06667 km/h
1106 11-10-2019 01:00:00 9.19167 C 8.52 g/m*3 9.19 C 0.8 km/h
1107 11-10-2019 02:00:00 8.83333 C 8.36 g/m*3 8.83 C 0 km/h
1108 11-10-2019 03:00:00 8.98333 C 8.48 g/m*3 8.98 C 1.74167 km/h
1109 11-10-2019 04:00:00 9.49167 C 8.72 g/m*3 9.49 C 3.86667 km/h
1110 11-10-2019 05:00:00 9.45833 C 8.62 g/m*3 9.46 C 2.40833 km/h
1111 11-10-2019 06:00:00 9.43333 C 8.6 g/m*3 9.43 C 0.4 km/h
1112 11-10-2019 07:00:00 9.91667 C 8.89 g/m*3 9.92 C 1.60833 km/h
1113 11-10-2019 08:00:00 10.98333 C 9.5 g/m*3 10.98 C 2.80833 km/h
1114 11-10-2019 09:00:00 12.425 C 10.21 g/m*3 12.43 C 3.21667 km/h
1115 11-10-2019 10:00:00 13.35833 C 10.58 g/m*3 13.36 C 3.34167 km/h
1116 11-10-2019 11:00:00 14.85833 C 10.83 g/m*3 14.86 C 11.68333 km/h
1117 11-10-2019 12:00:00 15.85 C 10.72 g/m*3 15.85 C 16.1 km/h
1118 11-10-2019 13:00:00 16.39167 C 10.82 g/m*3 16.39 C 11.15 km/h
1119 11-10-2019 14:00:00 16.29167 C 10.86 g/m*3 16.29 C 11.275 km/h
1120 11-10-2019 15:00:00 16.56667 C 10.9 g/m*3 16.57 C 11.03333 km/h
1121 11-10-2019 16:00:00 16.6 C 11.02 g/m*3 16.6 C 10.61667 km/h
1122 11-10-2019 17:00:00 16.66667 C 11.09 g/m*3 16.67 C 9 km/h
1123 11-10-2019 18:00:00 16.04167 C 11.1 g/m*3 16.04 C 4.03333 km/h
1124 11-10-2019 19:00:00 14.19167 C 10.81 g/m*3 14.19 C 0.4 km/h
1125 11-10-2019 20:00:00 13.55833 C 10.81 g/m*3 13.56 C 0 km/h
Sensor: Nr:Datum:Temp:Abs-Feuchte:Windchill:Wind:
Aussen-T/F 1126 11-10-2019 21:00:00 12.80833 C 10.44 g/m*3 12.81 C 0 km/h
1127 11-10-2019 22:00:00 12.075 C 10.11 g/m*3 12.08 C 0 km/h
1128 11-10-2019 23:00:00 11.81667 C 10.03 g/m*3 11.82 C 0 km/h
1129 12-10-2019 00:00:00 11.11667 C 9.59 g/m*3 11.12 C 0 km/h
1130 12-10-2019 01:00:00 10.63333 C 9.39 g/m*3 10.63 C 0 km/h
1131 12-10-2019 02:00:00 10.30833 C 9.2 g/m*3 10.31 C 0.13333 km/h
1132 12-10-2019 03:00:00 9.95833 C 9 g/m*3 9.96 C 0 km/h
1133 12-10-2019 04:00:00 10.01667 C 9.12 g/m*3 10.02 C 0 km/h
1134 12-10-2019 05:00:00 9.58333 C 8.84 g/m*3 9.58 C 0 km/h
1135 12-10-2019 06:00:00 8.89167 C 8.49 g/m*3 8.89 C 0 km/h
1136 12-10-2019 07:00:00 8.74167 C 8.41 g/m*3 8.74 C 0 km/h
1137 12-10-2019 08:00:00 8.86667 C 8.48 g/m*3 8.87 C 0 km/h
1138 12-10-2019 09:00:00 9.28333 C 8.73 g/m*3 9.28 C 0.93333 km/h
1139 12-10-2019 10:00:00 11.75 C 10.28 g/m*3 11.75 C 5.225 km/h
1140 12-10-2019 11:00:00 14.25 C 11.36 g/m*3 14.25 C 9.80833 km/h
1141 12-10-2019 12:00:00 16.45 C 11.47 g/m*3 16.45 C 7.79167 km/h
1142 12-10-2019 13:00:00 17.975 C 11.63 g/m*3 17.98 C 11.825 km/h
1143 12-10-2019 14:00:00 19.40833 C 11.8 g/m*3 19.41 C 13.56667 km/h
1144 12-10-2019 15:00:00 19.93333 C 11.86 g/m*3 19.93 C 14.76667 km/h
1145 12-10-2019 16:00:00 19.6 C 12.11 g/m*3 19.6 C 13.7 km/h
1146 12-10-2019 17:00:00 18.85 C 12.1 g/m*3 18.85 C 9.26667 km/h
1147 12-10-2019 18:00:00 17.225 C 12.21 g/m*3 17.23 C 0.26667 km/h
1148 12-10-2019 19:00:00 15.61667 C 11.8 g/m*3 15.62 C 0 km/h
1149 12-10-2019 20:00:00 14.93333 C 11.5 g/m*3 14.93 C 0 km/h
1150 12-10-2019 21:00:00 14.51667 C 11.56 g/m*3 14.52 C 1.6 km/h
Sensor: Nr:Datum:Temp:Abs-Feuchte:Windchill:Wind:
Aussen-T/F 1151 12-10-2019 22:00:00 14.925 C 11.72 g/m*3 14.93 C 0.26667 km/h
1152 12-10-2019 23:00:00 14.375 C 11.54 g/m*3 14.38 C 0 km/h
1153 13-10-2019 00:00:00 13.65 C 11.13 g/m*3 13.65 C 0.13333 km/h
1154 13-10-2019 01:00:00 13.11667 C 10.87 g/m*3 13.12 C 0 km/h
1155 13-10-2019 02:00:00 13.30833 C 11.14 g/m*3 13.31 C 0 km/h
1156 13-10-2019 03:00:00 13.40833 C 11.18 g/m*3 13.41 C 0 km/h
1157 13-10-2019 04:00:00 13 C 10.94 g/m*3 13 C 0.26667 km/h
1158 13-10-2019 05:00:00 13.54167 C 11.37 g/m*3 13.54 C 0 km/h
1159 13-10-2019 06:00:00 13.79167 C 11.55 g/m*3 13.79 C 0 km/h
1160 13-10-2019 07:00:00 13.76667 C 11.53 g/m*3 13.77 C 0 km/h
1161 13-10-2019 08:00:00 13.11667 C 11.08 g/m*3 13.12 C 0.4 km/h
1162 13-10-2019 09:00:00 13.46667 C 11.38 g/m*3 13.47 C 0 km/h
1163 13-10-2019 10:00:00 14.23333 C 11.98 g/m*3 14.23 C 0 km/h
1164 13-10-2019 11:00:00 15.63333 C 13.06 g/m*3 15.63 C 1.2 km/h
1165 13-10-2019 12:00:00 17.325 C 14.43 g/m*3 17.33 C 2.14167 km/h
1166 13-10-2019 13:00:00 19.45833 C 15.3 g/m*3 19.46 C 2.00833 km/h
1167 13-10-2019 14:00:00 21.65833 C 14.76 g/m*3 21.66 C 4.54167 km/h
1168 13-10-2019 15:00:00 22.03333 C 14.76 g/m*3 22.03 C 4.025 km/h
1169 13-10-2019 16:00:00 21.96667 C 14.92 g/m*3 21.97 C 2.54167 km/h
1170 13-10-2019 17:00:00 21.125 C 14.87 g/m*3 21.13 C 0.93333 km/h
1171 13-10-2019 18:00:00 19.51667 C 14.41 g/m*3 19.52 C 0.8 km/h
1172 13-10-2019 19:00:00 18.45 C 13.93 g/m*3 18.45 C 0.4 km/h
1173 13-10-2019 20:00:00 18.11667 C 13.66 g/m*3 18.12 C 0.26667 km/h
1174 13-10-2019 21:00:00 17.41667 C 13.24 g/m*3 17.42 C 0.26667 km/h
1175 13-10-2019 22:00:00 17.06667 C 12.86 g/m*3 17.07 C 0.13333 km/h
Sensor: Nr:Datum:Temp:Abs-Feuchte:Windchill:Wind:
Aussen-T/F 1176 13-10-2019 23:00:00 16.56667 C 12.52 g/m*3 16.57 C 0.26667 km/h
1177 14-10-2019 00:00:00 15.825 C 12.14 g/m*3 15.83 C 0 km/h
1178 14-10-2019 01:00:00 15.41667 C 11.97 g/m*3 15.42 C 0 km/h
1179 14-10-2019 02:00:00 14.91667 C 11.73 g/m*3 14.92 C 0 km/h
1180 14-10-2019 03:00:00 14.14167 C 11.33 g/m*3 14.14 C 0.26667 km/h
1181 14-10-2019 04:00:00 13.45833 C 11 g/m*3 13.46 C 0 km/h
1182 14-10-2019 05:00:00 13.36667 C 11.08 g/m*3 13.37 C 0.26667 km/h
1183 14-10-2019 06:00:00 12.9 C 10.73 g/m*3 12.9 C 0 km/h
1184 14-10-2019 07:00:00 12.75 C 10.7 g/m*3 12.75 C 1.2 km/h
1185 14-10-2019 08:00:00 12.88333 C 10.81 g/m*3 12.88 C 0 km/h
1186 14-10-2019 09:00:00 13.24167 C 11.07 g/m*3 13.24 C 0 km/h
1187 14-10-2019 10:00:00 13.64167 C 11.39 g/m*3 13.64 C 0 km/h
1188 14-10-2019 11:00:00 14.90833 C 12.37 g/m*3 14.91 C 0 km/h
1189 14-10-2019 12:00:00 16.49167 C 13.51 g/m*3 16.49 C 0 km/h
1190 14-10-2019 13:00:00 18.55833 C 14.17 g/m*3 18.56 C 1.73333 km/h
1191 14-10-2019 14:00:00 21.1 C 14.13 g/m*3 21.1 C 3.75 km/h
1192 14-10-2019 15:00:00 21.11667 C 13.92 g/m*3 21.12 C 2.675 km/h
1193 14-10-2019 16:00:00 20.775 C 13.38 g/m*3 20.78 C 2.81667 km/h
1194 14-10-2019 17:00:00 19.81667 C 13.44 g/m*3 19.82 C 0 km/h
1195 14-10-2019 18:00:00 18.93333 C 13.13 g/m*3 18.93 C 0.26667 km/h
1196 14-10-2019 19:00:00 17.43333 C 12.92 g/m*3 17.43 C 0.26667 km/h
1197 14-10-2019 20:00:00 16.71667 C 12.54 g/m*3 16.72 C 0.13333 km/h
1198 14-10-2019 21:00:00 15.88333 C 12.05 g/m*3 15.88 C 0 km/h
1199 14-10-2019 22:00:00 14.875 C 11.7 g/m*3 14.88 C 0.26667 km/h
1200 14-10-2019 23:00:00 15.075 C 11.86 g/m*3 15.08 C 0.26667 km/h
Sensor: Nr:Datum:Temp:Abs-Feuchte:Windchill:Wind:
Aussen-T/F 1201 15-10-2019 00:00:00 15.08333 C 11.86 g/m*3 15.08 C 0.13333 km/h
1202 15-10-2019 01:00:00 14.4 C 11.41 g/m*3 14.4 C 0.13333 km/h
1203 15-10-2019 02:00:00 13.43333 C 10.9 g/m*3 13.43 C 0 km/h
1204 15-10-2019 03:00:00 12.725 C 10.54 g/m*3 12.73 C 0 km/h
1205 15-10-2019 04:00:00 12.38333 C 10.41 g/m*3 12.38 C 0.8 km/h
1206 15-10-2019 05:00:00 11.95833 C 10.18 g/m*3 11.96 C 0 km/h
1207 15-10-2019 06:00:00 12.09167 C 10.35 g/m*3 12.09 C 0.26667 km/h
1208 15-10-2019 07:00:00 11.96667 C 10.24 g/m*3 11.97 C 0 km/h
1209 15-10-2019 08:00:00 11.79167 C 10.19 g/m*3 11.79 C 0 km/h
1210 15-10-2019 09:00:00 12.36667 C 10.58 g/m*3 12.37 C 0 km/h
1211 15-10-2019 10:00:00 13.25833 C 11.18 g/m*3 13.26 C 0.8 km/h
1212 15-10-2019 11:00:00 15.375 C 12.54 g/m*3 15.38 C 2.54167 km/h
1213 15-10-2019 12:00:00 17.68333 C 12.87 g/m*3 17.68 C 6.58333 km/h
1214 15-10-2019 13:00:00 18.10833 C 12.43 g/m*3 18.11 C 9 km/h
1215 15-10-2019 14:00:00 17.73333 C 12.25 g/m*3 17.73 C 7.11667 km/h
1216 15-10-2019 15:00:00 17.21667 C 12.02 g/m*3 17.22 C 5.625 km/h
1217 15-10-2019 16:00:00 16.65833 C 12.09 g/m*3 16.66 C 1.86667 km/h
1218 15-10-2019 17:00:00 16.28333 C 12.2 g/m*3 16.28 C 0.13333 km/h
1219 15-10-2019 18:00:00 15.11667 C 11.88 g/m*3 15.12 C 0.66667 km/h
1220 15-10-2019 19:00:00 14.29167 C 11.58 g/m*3 14.29 C 0 km/h
1221 15-10-2019 20:00:00 13.925 C 11.41 g/m*3 13.93 C 0 km/h
1222 15-10-2019 21:00:00 13.65 C 11.27 g/m*3 13.65 C 0 km/h
1223 15-10-2019 22:00:00 13.41667 C 11.17 g/m*3 13.42 C 2.275 km/h
1224 15-10-2019 23:00:00 12.925 C 10.73 g/m*3 12.93 C 7.39167 km/h
1225 16-10-2019 00:00:00 12.10833 C 10.18 g/m*3 12.11 C 3.48333 km/h
Sensor: Nr:Datum:Temp:Abs-Feuchte:Windchill:Wind:
Aussen-T/F 1226 16-10-2019 01:00:00 11.85833 C 10.11 g/m*3 11.86 C 0.13333 km/h
1227 16-10-2019 02:00:00 11.8 C 10.1 g/m*3 11.8 C 0.26667 km/h
1228 16-10-2019 03:00:00 11.775 C 10.09 g/m*3 11.78 C 4.425 km/h
1229 16-10-2019 04:00:00 11.625 C 9.99 g/m*3 11.63 C 2.675 km/h
1230 16-10-2019 05:00:00 11.425 C 9.87 g/m*3 11.43 C 1.33333 km/h
1231 16-10-2019 06:00:00 11.18333 C 9.63 g/m*3 11.18 C 6.975 km/h
1232 16-10-2019 07:00:00 10.95833 C 9.38 g/m*3 10.96 C 2.26667 km/h
1233 16-10-2019 08:00:00 10.65 C 9.2 g/m*3 10.65 C 2.81667 km/h
1234 16-10-2019 09:00:00 10.925 C 9.44 g/m*3 10.93 C 1.6 km/h
1235 16-10-2019 10:00:00 12.44167 C 9.99 g/m*3 12.44 C 3.2 km/h
1236 16-10-2019 11:00:00 13.79167 C 10.29 g/m*3 13.79 C 5.9 km/h
1237 16-10-2019 12:00:00 14.55 C 10.54 g/m*3 14.55 C 5.64167 km/h
1238 16-10-2019 13:00:00 14.08333 C 11.05 g/m*3 14.08 C 0.53333 km/h
1239 16-10-2019 14:00:00 13.51667 C 11.02 g/m*3 13.52 C 2.275 km/h
1240 16-10-2019 15:00:00 13.91667 C 11.37 g/m*3 13.92 C 1.73333 km/h
1241 16-10-2019 16:00:00 14.34167 C 11.6 g/m*3 14.34 C 2.4 km/h
1242 16-10-2019 17:00:00 14.36667 C 11.66 g/m*3 14.37 C 0.26667 km/h
1243 16-10-2019 18:00:00 13.90833 C 11.39 g/m*3 13.91 C 0.13333 km/h
1244 16-10-2019 19:00:00 13.53333 C 11.25 g/m*3 13.53 C 0 km/h
1245 16-10-2019 20:00:00 13.25 C 11.06 g/m*3 13.25 C 0.26667 km/h
1246 16-10-2019 21:00:00 12.71667 C 10.7 g/m*3 12.72 C 0.26667 km/h
1247 16-10-2019 22:00:00 12.55833 C 10.59 g/m*3 12.56 C 0.26667 km/h
1248 16-10-2019 23:00:00 12.4 C 10.53 g/m*3 12.4 C 0.66667 km/h
1249 17-10-2019 00:00:00 12.64167 C 10.65 g/m*3 12.64 C 0.26667 km/h
1250 17-10-2019 01:00:00 12.61667 C 10.63 g/m*3 12.62 C 0.26667 km/h
Sensor: Nr:Datum:Temp:Abs-Feuchte:Windchill:Wind:
Aussen-T/F 1251 17-10-2019 02:00:00 12.375 C 10.47 g/m*3 12.38 C 0.26667 km/h
1252 17-10-2019 03:00:00 12.76667 C 10.67 g/m*3 12.77 C 1.2 km/h
1253 17-10-2019 04:00:00 13.575 C 10.86 g/m*3 13.58 C 1.6 km/h
1254 17-10-2019 05:00:00 14.19167 C 10.9 g/m*3 14.19 C 3.20833 km/h
1255 17-10-2019 06:00:00 14.23333 C 10.88 g/m*3 14.23 C 4.00833 km/h
1256 17-10-2019 07:00:00 14.24167 C 10.97 g/m*3 14.24 C 2.68333 km/h
1257 17-10-2019 08:00:00 14.58333 C 10.96 g/m*3 14.58 C 6.85 km/h
1258 17-10-2019 09:00:00 15.36667 C 11.12 g/m*3 15.37 C 7.39167 km/h
1259 17-10-2019 10:00:00 15.86667 C 11.24 g/m*3 15.87 C 9.39167 km/h
1260 17-10-2019 11:00:00 16.65833 C 11.61 g/m*3 16.66 C 3.88333 km/h
1261 17-10-2019 12:00:00 16.65833 C 11.92 g/m*3 16.66 C 2.26667 km/h
1262 17-10-2019 13:00:00 16.81667 C 11.88 g/m*3 16.82 C 5.50833 km/h
1263 17-10-2019 14:00:00 16.84167 C 12.29 g/m*3 16.84 C 0.93333 km/h
1264 17-10-2019 15:00:00 16.63333 C 12.31 g/m*3 16.63 C 0.8 km/h
1265 17-10-2019 16:00:00 15.85 C 12.31 g/m*3 15.85 C 0.26667 km/h
1266 17-10-2019 17:00:00 15.14167 C 12.15 g/m*3 15.14 C 0.13333 km/h
1267 17-10-2019 18:00:00 14.61667 C 11.9 g/m*3 14.62 C 0.26667 km/h
1268 17-10-2019 19:00:00 14.15833 C 11.65 g/m*3 14.16 C 0 km/h
1269 17-10-2019 20:00:00 14.08333 C 11.64 g/m*3 14.08 C 0.4 km/h
1270 17-10-2019 21:00:00 13.9 C 11.6 g/m*3 13.9 C 0.53333 km/h
1271 17-10-2019 22:00:00 13.85 C 11.59 g/m*3 13.85 C 0.13333 km/h
1272 17-10-2019 23:00:00 13.89167 C 11.62 g/m*3 13.89 C 0.66667 km/h
1273 18-10-2019 00:00:00 13.825 C 11.58 g/m*3 13.83 C 0.93333 km/h
1274 18-10-2019 01:00:00 12.83333 C 10.88 g/m*3 12.83 C 0.4 km/h
1275 18-10-2019 02:00:00 12.125 C 10.42 g/m*3 12.13 C 0 km/h
Sensor: Nr:Datum:Temp:Abs-Feuchte:Windchill:Wind:
Aussen-T/F 1276 18-10-2019 03:00:00 11.58333 C 10.07 g/m*3 11.58 C 0.4 km/h
1277 18-10-2019 04:00:00 11.49167 C 10.01 g/m*3 11.49 C 0.26667 km/h
1278 18-10-2019 05:00:00 11.80833 C 10.25 g/m*3 11.81 C 0.66667 km/h
1279 18-10-2019 06:00:00 12.7 C 10.91 g/m*3 12.7 C 1.6 km/h
1280 18-10-2019 07:00:00 12.60833 C 10.81 g/m*3 12.61 C 0.13333 km/h
1281 18-10-2019 08:00:00 12.8 C 10.98 g/m*3 12.8 C 0.26667 km/h
1282 18-10-2019 09:00:00 13.4 C 11.39 g/m*3 13.4 C 0 km/h
1283 18-10-2019 10:00:00 14.38333 C 12.1 g/m*3 14.38 C 1.33333 km/h
1284 18-10-2019 11:00:00 14.66667 C 12.23 g/m*3 14.67 C 3.88333 km/h
1285 18-10-2019 12:00:00 15.46667 C 11.78 g/m*3 15.47 C 7.25 km/h
1286 18-10-2019 13:00:00 14.95833 C 10.73 g/m*3 14.96 C 15.175 km/h
1287 18-10-2019 14:00:00 12.91667 C 9.64 g/m*3 12.92 C 16.50833 km/h
1288 18-10-2019 15:00:00 13.8 C 9.6 g/m*3 13.8 C 12.89167 km/h
1289 18-10-2019 16:00:00 14.23333 C 9.29 g/m*3 14.23 C 15.425 km/h
1290 18-10-2019 17:00:00 14.40833 C 9.06 g/m*3 14.41 C 9.8 km/h
1291 18-10-2019 18:00:00 12.64167 C 8.93 g/m*3 12.64 C 2.41667 km/h
1292 18-10-2019 19:00:00 10.63333 C 8.68 g/m*3 10.63 C 0.26667 km/h
1293 18-10-2019 20:00:00 9.75833 C 8.5 g/m*3 9.76 C 0 km/h
1294 18-10-2019 21:00:00 9.20833 C 8.34 g/m*3 9.21 C 0 km/h
1295 18-10-2019 22:00:00 9.23333 C 8.49 g/m*3 9.23 C 0 km/h
1296 18-10-2019 23:00:00 9.14167 C 8.45 g/m*3 9.14 C 0 km/h
1297 19-10-2019 00:00:00 9.14167 C 8.47 g/m*3 9.14 C 0.66667 km/h
1298 19-10-2019 01:00:00 9.64167 C 8.68 g/m*3 9.64 C 0.4 km/h
1299 19-10-2019 02:00:00 9.65833 C 8.67 g/m*3 9.66 C 0 km/h
1300 19-10-2019 03:00:00 9.875 C 8.76 g/m*3 9.88 C 0 km/h
Sensor: Nr:Datum:Temp:Abs-Feuchte:Windchill:Wind:
Aussen-T/F 1301 19-10-2019 04:00:00 10.10833 C 8.89 g/m*3 10.11 C 0.53333 km/h
1302 19-10-2019 05:00:00 10.68333 C 9.21 g/m*3 10.68 C 0.93333 km/h
1303 19-10-2019 06:00:00 10.70833 C 9.19 g/m*3 10.71 C 0 km/h
1304 19-10-2019 07:00:00 10.64167 C 9.23 g/m*3 10.64 C 0 km/h
1305 19-10-2019 08:00:00 11.05 C 9.54 g/m*3 11.05 C 0.26667 km/h
1306 19-10-2019 09:00:00 11.875 C 9.97 g/m*3 11.88 C 0.4 km/h
1307 19-10-2019 10:00:00 13.025 C 10.3 g/m*3 13.03 C 1.2 km/h
1308 19-10-2019 11:00:00 13.825 C 10.9 g/m*3 13.83 C 3.35 km/h
1309 19-10-2019 12:00:00 15.40833 C 11.24 g/m*3 15.41 C 3.34167 km/h
1310 19-10-2019 13:00:00 16.2 C 11.32 g/m*3 16.2 C 4.95833 km/h
1311 19-10-2019 14:00:00 16.9 C 11.41 g/m*3 16.9 C 7.5 km/h
1312 19-10-2019 15:00:00 17.24167 C 11.33 g/m*3 17.24 C 6.30833 km/h
1313 19-10-2019 16:00:00 17.15 C 11.4 g/m*3 17.15 C 1.475 km/h
1314 19-10-2019 17:00:00 16.84167 C 11.6 g/m*3 16.84 C 2.00833 km/h
1315 19-10-2019 18:00:00 15.16364 C 11.61 g/m*3 15.16 C 0.87273 km/h
1316 19-10-2019 19:00:00 14.03333 C 11.32 g/m*3 14.03 C 0 km/h
1317 19-10-2019 20:00:00 13.625 C 11.19 g/m*3 13.63 C 0 km/h
1318 19-10-2019 21:00:00 13.43333 C 11.14 g/m*3 13.43 C 0.53333 km/h
1319 19-10-2019 22:00:00 13.21667 C 11.03 g/m*3 13.22 C 0 km/h
1320 19-10-2019 23:00:00 13.00833 C 10.89 g/m*3 13.01 C 0 km/h
1321 20-10-2019 00:00:00 13 C 10.96 g/m*3 13 C 0 km/h
1322 20-10-2019 01:00:00 13.13333 C 11.09 g/m*3 13.13 C 0 km/h
1323 20-10-2019 02:00:00 13.11667 C 11.08 g/m*3 13.12 C 0 km/h
1324 20-10-2019 03:00:00 13.1 C 11.07 g/m*3 13.1 C 0 km/h
1325 20-10-2019 04:00:00 13.16667 C 11.11 g/m*3 13.17 C 0 km/h
Sensor: Nr:Datum:Temp:Abs-Feuchte:Windchill:Wind:
Aussen-T/F 1326 20-10-2019 05:00:00 12.96667 C 10.98 g/m*3 12.97 C 0.26667 km/h
1327 20-10-2019 06:00:00 12.74167 C 10.83 g/m*3 12.74 C 0 km/h
1328 20-10-2019 07:00:00 12.65 C 10.76 g/m*3 12.65 C 0 km/h
1329 20-10-2019 08:00:00 12.70833 C 10.8 g/m*3 12.71 C 0 km/h
1330 20-10-2019 09:00:00 12.84167 C 10.96 g/m*3 12.84 C 0.13333 km/h
1331 20-10-2019 10:00:00 13.04167 C 11.1 g/m*3 13.04 C 0.13333 km/h
1332 20-10-2019 11:00:00 13.25833 C 11.26 g/m*3 13.26 C 0.53333 km/h
1333 20-10-2019 12:00:00 13.69167 C 11.6 g/m*3 13.69 C 0 km/h
1334 20-10-2019 13:00:00 13.96667 C 11.8 g/m*3 13.97 C 0.13333 km/h
1335 20-10-2019 14:00:00 14.275 C 12.02 g/m*3 14.28 C 0.53333 km/h
1336 20-10-2019 15:00:00 14.525 C 12.21 g/m*3 14.53 C 0 km/h
1337 20-10-2019 16:00:00 14.83333 C 12.44 g/m*3 14.83 C 0.26667 km/h
1338 20-10-2019 17:00:00 14.85 C 12.45 g/m*3 14.85 C 0 km/h
1339 20-10-2019 18:00:00 14.45833 C 12.16 g/m*3 14.46 C 0 km/h
1340 20-10-2019 19:00:00 14.20833 C 11.97 g/m*3 14.21 C 0 km/h
1341 20-10-2019 20:00:00 14.03333 C 11.85 g/m*3 14.03 C 0 km/h
1342 20-10-2019 21:00:00 14.05833 C 11.86 g/m*3 14.06 C 0.26667 km/h
1343 20-10-2019 22:00:00 13.90909 C 11.76 g/m*3 13.91 C 0 km/h
1344 20-10-2019 23:00:00 13.925 C 11.77 g/m*3 13.93 C 0.26667 km/h
1345 21-10-2019 00:00:00 14.24167 C 12 g/m*3 14.24 C 4.95833 km/h
1346 21-10-2019 01:00:00 14.14167 C 11.92 g/m*3 14.14 C 0 km/h
1347 21-10-2019 02:00:00 13.74167 C 11.63 g/m*3 13.74 C 0 km/h
1348 21-10-2019 03:00:00 13.66667 C 11.58 g/m*3 13.67 C 0 km/h
1349 21-10-2019 04:00:00 13.11667 C 11.19 g/m*3 13.12 C 0 km/h
1350 21-10-2019 05:00:00 13.21667 C 11.26 g/m*3 13.22 C 0.13333 km/h
Sensor: Nr:Datum:Temp:Abs-Feuchte:Windchill:Wind:
Aussen-T/F 1351 21-10-2019 06:00:00 13.60833 C 11.54 g/m*3 13.61 C 0 km/h
1352 21-10-2019 07:00:00 13.31667 C 11.33 g/m*3 13.32 C 0 km/h
1353 21-10-2019 08:00:00 12.70833 C 10.91 g/m*3 12.71 C 0 km/h
1354 21-10-2019 09:00:00 12.9 C 11.05 g/m*3 12.9 C 0 km/h
1355 21-10-2019 10:00:00 13.49167 C 11.49 g/m*3 13.49 C 0.4 km/h
1356 21-10-2019 11:00:00 14.00833 C 11.83 g/m*3 14.01 C 2 km/h
1357 21-10-2019 12:00:00 14.60833 C 12.29 g/m*3 14.61 C 3.35 km/h
1358 21-10-2019 13:00:00 15.91667 C 12.04 g/m*3 15.92 C 11.025 km/h
1359 21-10-2019 14:00:00 16.70833 C 11.69 g/m*3 16.71 C 6.31667 km/h
1360 21-10-2019 15:00:00 16.375 C 11.27 g/m*3 16.38 C 6.96667 km/h
1361 21-10-2019 16:00:00 15.86667 C 10.94 g/m*3 15.87 C 4.95 km/h
1362 21-10-2019 17:00:00 14.73333 C 10.79 g/m*3 14.73 C 1.60833 km/h
1363 21-10-2019 18:00:00 13.72727 C 10.33 g/m*3 13.73 C 0.87273 km/h
1364 21-10-2019 19:00:00 12.49167 C 9.92 g/m*3 12.49 C 0 km/h
1365 21-10-2019 20:00:00 11.75 C 9.69 g/m*3 11.75 C 0 km/h
1366 21-10-2019 21:00:00 11.38333 C 9.6 g/m*3 11.38 C 0 km/h
1367 21-10-2019 22:00:00 11.325 C 9.6 g/m*3 11.33 C 0 km/h
1368 21-10-2019 23:00:00 11.21667 C 9.52 g/m*3 11.22 C 0 km/h
1369 22-10-2019 00:00:00 10.825 C 9.36 g/m*3 10.83 C 0 km/h
1370 22-10-2019 01:00:00 11.01667 C 9.52 g/m*3 11.02 C 0.26667 km/h
1371 22-10-2019 02:00:00 10.94167 C 9.47 g/m*3 10.94 C 0 km/h
1372 22-10-2019 03:00:00 10.875 C 9.42 g/m*3 10.88 C 0 km/h
1373 22-10-2019 04:00:00 10.66667 C 9.29 g/m*3 10.67 C 0 km/h
1374 22-10-2019 05:00:00 10 C 8.92 g/m*3 10 C 0 km/h
1375 22-10-2019 06:00:00 10.1 C 9.08 g/m*3 10.1 C 0 km/h
Sensor: Nr:Datum:Temp:Abs-Feuchte:Windchill:Wind:
Aussen-T/F 1376 22-10-2019 07:00:00 9.975 C 8.95 g/m*3 9.98 C 0 km/h
1377 22-10-2019 08:00:00 9.875 C 8.95 g/m*3 9.88 C 0 km/h
1378 22-10-2019 09:00:00 10.44167 C 9.25 g/m*3 10.44 C 1.2 km/h
1379 22-10-2019 10:00:00 11.36667 C 9.62 g/m*3 11.37 C 3.6 km/h
1380 22-10-2019 11:00:00 12.78333 C 9.88 g/m*3 12.78 C 4.675 km/h
1381 22-10-2019 12:00:00 13.61667 C 10 g/m*3 13.62 C 1.06667 km/h
1382 22-10-2019 13:00:00 14.35714 C 10.15 g/m*3 14.36 C 1.82857 km/h
1383 22-10-2019 14:00:00 15.08333 C 9.99 g/m*3 15.08 C 3.2 km/h
1384 22-10-2019 15:00:00 14.68333 C 10.31 g/m*3 14.68 C 0.26667 km/h
1385 22-10-2019 16:00:00 13.78333 C 10.36 g/m*3 13.78 C 0 km/h
1386 22-10-2019 17:00:00 13.31667 C 10.17 g/m*3 13.32 C 0.13333 km/h
1387 22-10-2019 18:00:00 12.55 C 9.64 g/m*3 12.55 C 1.33333 km/h
1388 22-10-2019 19:00:00 11.74167 C 9.48 g/m*3 11.74 C 0 km/h
1389 22-10-2019 20:00:00 10.70833 C 9.16 g/m*3 10.71 C 0 km/h
1390 22-10-2019 21:00:00 10.125 C 8.96 g/m*3 10.13 C 0 km/h
1391 22-10-2019 22:00:00 10.20833 C 9.13 g/m*3 10.21 C 0 km/h
1392 22-10-2019 23:00:00 9.9 C 8.94 g/m*3 9.9 C 0 km/h
1393 23-10-2019 00:00:00 8.98333 C 8.43 g/m*3 8.98 C 0 km/h
1394 23-10-2019 01:00:00 8.61667 C 8.26 g/m*3 8.62 C 0 km/h
1395 23-10-2019 02:00:00 8.20833 C 8.04 g/m*3 8.21 C 0 km/h
1396 23-10-2019 03:00:00 8.00833 C 8 g/m*3 8.01 C 0 km/h
1397 23-10-2019 04:00:00 7.83333 C 7.93 g/m*3 7.83 C 0 km/h
1398 23-10-2019 05:00:00 8.16667 C 8.11 g/m*3 8.17 C 0 km/h
1399 23-10-2019 06:00:00 8.13333 C 8.09 g/m*3 8.13 C 0 km/h
1400 23-10-2019 07:00:00 7.95 C 7.99 g/m*3 7.95 C 0 km/h
Sensor: Nr:Datum:Temp:Abs-Feuchte:Windchill:Wind:
Aussen-T/F 1401 23-10-2019 08:00:00 7.86667 C 7.97 g/m*3 7.87 C 0.13333 km/h
1402 23-10-2019 09:00:00 8.70833 C 8.47 g/m*3 8.71 C 1.06667 km/h
1403 23-10-2019 10:00:00 9.60833 C 8.98 g/m*3 9.61 C 0.13333 km/h
1404 23-10-2019 11:00:00 10.98333 C 9.8 g/m*3 10.98 C 3.20833 km/h
1405 23-10-2019 12:00:00 11.825 C 10.16 g/m*3 11.83 C 7.11667 km/h
1406 23-10-2019 13:00:00 12.95833 C 10.43 g/m*3 12.96 C 5.50833 km/h
1407 23-10-2019 14:00:00 13.84167 C 10.72 g/m*3 13.84 C 6.975 km/h
1408 23-10-2019 15:00:00 14.3 C 10.94 g/m*3 14.3 C 3.34167 km/h
1409 23-10-2019 16:00:00 14.79167 C 11.3 g/m*3 14.79 C 0.93333 km/h
1410 23-10-2019 17:00:00 14.94167 C 11.51 g/m*3 14.94 C 0.13333 km/h
1411 23-10-2019 18:00:00 14.175 C 11.18 g/m*3 14.18 C 0 km/h
1412 23-10-2019 19:00:00 13.39167 C 10.86 g/m*3 13.39 C 0.13333 km/h
1413 23-10-2019 20:00:00 13.24167 C 10.86 g/m*3 13.24 C 0 km/h
1414 23-10-2019 21:00:00 13.19167 C 10.9 g/m*3 13.19 C 0 km/h
1415 23-10-2019 22:00:00 12.94167 C 10.73 g/m*3 12.94 C 0 km/h
1416 23-10-2019 23:00:00 12.76667 C 10.62 g/m*3 12.77 C 0 km/h
1417 24-10-2019 00:00:00 12.39167 C 10.44 g/m*3 12.39 C 0 km/h
1418 24-10-2019 01:00:00 12.15833 C 10.33 g/m*3 12.16 C 0.66667 km/h
1419 24-10-2019 02:00:00 12.25833 C 10.43 g/m*3 12.26 C 0 km/h
1420 24-10-2019 03:00:00 11.81667 C 10.11 g/m*3 11.82 C 0 km/h
1421 24-10-2019 04:00:00 11.59167 C 10.06 g/m*3 11.59 C 0 km/h
1422 24-10-2019 05:00:00 11.85 C 10.24 g/m*3 11.85 C 0.13333 km/h
1423 24-10-2019 06:00:00 11.89167 C 10.28 g/m*3 11.89 C 0.53333 km/h
1424 24-10-2019 07:00:00 12.33333 C 10.56 g/m*3 12.33 C 0.66667 km/h
1425 24-10-2019 08:00:00 12.49167 C 10.66 g/m*3 12.49 C 0.66667 km/h
Sensor: Nr:Datum:Temp:Abs-Feuchte:Windchill:Wind:
Aussen-T/F 1426 24-10-2019 09:00:00 13.01667 C 11.01 g/m*3 13.02 C 0 km/h
1427 24-10-2019 10:00:00 13.58333 C 11.38 g/m*3 13.58 C 0.93333 km/h
1428 24-10-2019 11:00:00 14.51667 C 11.65 g/m*3 14.52 C 0.53333 km/h
1429 24-10-2019 12:00:00 15.175 C 12 g/m*3 15.18 C 0 km/h
1430 24-10-2019 13:00:00 16.45833 C 12.57 g/m*3 16.46 C 1.74167 km/h
1431 24-10-2019 14:00:00 17.46667 C 12.93 g/m*3 17.47 C 0.66667 km/h
1432 24-10-2019 15:00:00 18.525 C 13.34 g/m*3 18.52 C 1.2 km/h
1433 24-10-2019 16:00:00 18.44167 C 12.48 g/m*3 18.44 C 4.01667 km/h
1434 24-10-2019 17:00:00 17.525 C 12.19 g/m*3 17.52 C 2.28333 km/h
1435 24-10-2019 18:00:00 15.70833 C 11.42 g/m*3 15.71 C 1.86667 km/h
1436 24-10-2019 19:00:00 14.69167 C 11.11 g/m*3 14.69 C 1.06667 km/h
1437 24-10-2019 20:00:00 13.85833 C 10.81 g/m*3 13.86 C 0.66667 km/h
1438 24-10-2019 21:00:00 13.54167 C 10.67 g/m*3 13.54 C 0.26667 km/h
1439 24-10-2019 22:00:00 13.075 C 10.53 g/m*3 13.08 C 0 km/h
1440 24-10-2019 23:00:00 13.18333 C 10.74 g/m*3 13.18 C 0 km/h
1441 25-10-2019 00:00:00 12.40833 C 10.23 g/m*3 12.41 C 0 km/h
1442 25-10-2019 01:00:00 11.95 C 10.09 g/m*3 11.95 C 0 km/h
1443 25-10-2019 02:00:00 11.49167 C 9.82 g/m*3 11.49 C 1.075 km/h
1444 25-10-2019 03:00:00 12.34167 C 10.22 g/m*3 12.34 C 1.875 km/h
1445 25-10-2019 04:00:00 12.88333 C 10.32 g/m*3 12.88 C 1.73333 km/h
1446 25-10-2019 05:00:00 12.65833 C 10.09 g/m*3 12.66 C 2.95 km/h
1447 25-10-2019 06:00:00 12.63333 C 10.2 g/m*3 12.63 C 1.86667 km/h
1448 25-10-2019 07:00:00 13.175 C 10.39 g/m*3 13.18 C 2.40833 km/h
1449 25-10-2019 08:00:00 12.68333 C 10.19 g/m*3 12.68 C 1.46667 km/h
1450 25-10-2019 09:00:00 12.93333 C 10.5 g/m*3 12.93 C 1.86667 km/h
Sensor: Nr:Datum:Temp:Abs-Feuchte:Windchill:Wind:
Aussen-T/F 1451 25-10-2019 10:00:00 13.775 C 10.6 g/m*3 13.78 C 6.30833 km/h
1452 25-10-2019 11:00:00 14.90833 C 10.52 g/m*3 14.91 C 9.40833 km/h
1453 25-10-2019 12:00:00 15.275 C 10.34 g/m*3 15.28 C 9.95833 km/h
1454 25-10-2019 13:00:00 16.19167 C 10.17 g/m*3 16.19 C 9.275 km/h
1455 25-10-2019 14:00:00 16.29167 C 10.24 g/m*3 16.29 C 7.525 km/h
1456 25-10-2019 15:00:00 16.43333 C 9.86 g/m*3 16.43 C 9.68333 km/h
1457 25-10-2019 16:00:00 16.05833 C 10 g/m*3 16.06 C 6.575 km/h
1458 25-10-2019 17:00:00 14.56667 C 10.21 g/m*3 14.57 C 0.66667 km/h
1459 25-10-2019 18:00:00 13.01667 C 9.81 g/m*3 13.02 C 0.8 km/h
1460 25-10-2019 19:00:00 11.99167 C 9.58 g/m*3 11.99 C 0.13333 km/h
1461 25-10-2019 20:00:00 11.45 C 9.4 g/m*3 11.45 C 0 km/h
1462 25-10-2019 21:00:00 11.025 C 9.26 g/m*3 11.03 C 0 km/h
1463 25-10-2019 22:00:00 11.3 C 9.56 g/m*3 11.3 C 0.53333 km/h
1464 25-10-2019 23:00:00 12.46667 C 10.12 g/m*3 12.47 C 1.6 km/h
1465 26-10-2019 00:00:00 13.48333 C 10.42 g/m*3 13.48 C 1.46667 km/h
1466 26-10-2019 01:00:00 13.675 C 10.41 g/m*3 13.68 C 1.2 km/h
1467 26-10-2019 02:00:00 13.53333 C 10.28 g/m*3 13.53 C 1.06667 km/h
1468 26-10-2019 03:00:00 12.26667 C 9.88 g/m*3 12.27 C 0.53333 km/h
1469 26-10-2019 04:00:00 11.59167 C 9.73 g/m*3 11.59 C 1.74167 km/h
1470 26-10-2019 05:00:00 12.29167 C 10.1 g/m*3 12.29 C 2.28333 km/h
1471 26-10-2019 06:00:00 11.86667 C 9.86 g/m*3 11.87 C 0.13333 km/h
1472 26-10-2019 07:00:00 11.1 C 9.47 g/m*3 11.1 C 0 km/h
1473 26-10-2019 08:00:00 10.15833 C 8.99 g/m*3 10.16 C 0 km/h
1474 26-10-2019 09:00:00 10.325 C 9.21 g/m*3 10.33 C 0 km/h
1475 26-10-2019 10:00:00 11.26667 C 9.84 g/m*3 11.27 C 0 km/h
Sensor: Nr:Datum:Temp:Abs-Feuchte:Windchill:Wind:
Aussen-T/F 1476 26-10-2019 11:00:00 12.475 C 10.63 g/m*3 12.48 C 0 km/h
1477 26-10-2019 12:00:00 13.81667 C 11.34 g/m*3 13.82 C 1.2 km/h
1478 26-10-2019 13:00:00 15.18333 C 11.66 g/m*3 15.18 C 0.93333 km/h
1479 26-10-2019 14:00:00 16.53333 C 11.97 g/m*3 16.53 C 2.26667 km/h
1480 26-10-2019 15:00:00 16.78333 C 12.09 g/m*3 16.78 C 0.66667 km/h
1481 26-10-2019 16:00:00 16.53333 C 12.06 g/m*3 16.53 C 1.06667 km/h
1482 26-10-2019 17:00:00 15.31667 C 11.43 g/m*3 15.32 C 1.6 km/h
1483 26-10-2019 18:00:00 13.925 C 10.7 g/m*3 13.93 C 0.53333 km/h
1484 26-10-2019 19:00:00 12.975 C 10.3 g/m*3 12.98 C 0.26667 km/h
1485 26-10-2019 20:00:00 12.86667 C 10.42 g/m*3 12.87 C 0.4 km/h
1486 26-10-2019 21:00:00 12.99167 C 10.44 g/m*3 12.99 C 0 km/h
1487 26-10-2019 22:00:00 12.64167 C 10.32 g/m*3 12.64 C 0 km/h
1488 26-10-2019 23:00:00 12.625 C 10.4 g/m*3 12.63 C 0.4 km/h
1489 27-10-2019 00:00:00 13.45833 C 10.54 g/m*3 13.46 C 3.35 km/h
1490 27-10-2019 01:00:00 13.74167 C 10.39 g/m*3 13.74 C 0.8 km/h
1491 27-10-2019 02:00:00 12.98333 C 10.14 g/m*3 12.98 C 2 km/h
1492 27-10-2019 04:00:00 12.17391 C 9.93 g/m*3 12.17 C 1.04348 km/h
1493 27-10-2019 05:00:00 12.87692 C 10.27 g/m*3 12.88 C 0.98462 km/h
1494 27-10-2019 06:00:00 14.125 C 10.45 g/m*3 14.13 C 7.10833 km/h
1495 27-10-2019 07:00:00 14.16667 C 10.64 g/m*3 14.17 C 9.66667 km/h
1496 27-10-2019 08:00:00 11.975 C 9.77 g/m*3 11.98 C 10.89167 km/h
1497 27-10-2019 09:00:00 10.425 C 8.96 g/m*3 9.15 C 9.93333 km/h
1498 27-10-2019 10:00:00 9.44167 C 8.49 g/m*3 9.44 C 1.6 km/h
1499 27-10-2019 11:00:00 9.75833 C 8.74 g/m*3 9.76 C 0.93333 km/h
1500 27-10-2019 12:00:00 10 C 8.87 g/m*3 10 C 0.4 km/h
Sensor: Nr:Datum:Temp:Abs-Feuchte:Windchill:Wind:
Aussen-T/F 1501 27-10-2019 13:00:00 9.9 C 8.84 g/m*3 9.9 C 0 km/h
1502 27-10-2019 14:00:00 9.53333 C 8.6 g/m*3 9.53 C 0.4 km/h
1503 27-10-2019 15:00:00 9.43333 C 8.61 g/m*3 9.43 C 0 km/h
1504 27-10-2019 16:00:00 9.16667 C 8.47 g/m*3 9.17 C 0 km/h
1505 27-10-2019 17:00:00 8.55 C 8.17 g/m*3 8.55 C 0 km/h
1506 27-10-2019 18:00:00 8.35 C 8.12 g/m*3 8.35 C 0 km/h
1507 27-10-2019 19:00:00 8.275 C 8.08 g/m*3 8.28 C 0 km/h
1508 27-10-2019 20:00:00 7.50833 C 7.69 g/m*3 7.51 C 0 km/h
1509 27-10-2019 21:00:00 6.91667 C 7.4 g/m*3 6.92 C 0.4 km/h
1510 27-10-2019 22:00:00 5.925 C 6.93 g/m*3 5.93 C 0 km/h
1511 27-10-2019 23:00:00 5.125 C 6.6 g/m*3 5.13 C 0.26667 km/h
1512 28-10-2019 00:00:00 5.325 C 6.73 g/m*3 5.33 C 0.13333 km/h
1513 28-10-2019 01:00:00 5.8 C 6.95 g/m*3 5.8 C 0.13333 km/h
1514 28-10-2019 02:00:00 5.59167 C 6.85 g/m*3 5.59 C 0 km/h
1515 28-10-2019 03:00:00 5.44167 C 6.79 g/m*3 5.44 C 0.26667 km/h
1516 28-10-2019 04:00:00 5.30833 C 6.73 g/m*3 5.31 C 0 km/h
1517 28-10-2019 05:00:00 5.2 C 6.68 g/m*3 5.2 C 0 km/h
1518 28-10-2019 06:00:00 5.13333 C 6.65 g/m*3 5.13 C 0 km/h
1519 28-10-2019 07:00:00 5.26667 C 6.71 g/m*3 5.27 C 0.8 km/h
1520 28-10-2019 08:00:00 5.51667 C 6.84 g/m*3 5.52 C 2 km/h
1521 28-10-2019 09:00:00 5.8 C 7.02 g/m*3 5.8 C 1.2 km/h
1522 28-10-2019 10:00:00 6.18333 C 7.2 g/m*3 6.18 C 2.26667 km/h
1523 28-10-2019 11:00:00 6.38333 C 7.29 g/m*3 6.38 C 1.6 km/h
1524 28-10-2019 12:00:00 6.5 C 7.33 g/m*3 5.48 C 5.88333 km/h
1525 28-10-2019 13:00:00 6.725 C 7.38 g/m*3 6.73 C 1.86667 km/h
Sensor: Nr:Datum:Temp:Abs-Feuchte:Windchill:Wind:
Aussen-T/F 1526 28-10-2019 14:00:00 7.39167 C 7.68 g/m*3 7.39 C 0.13333 km/h
1527 28-10-2019 15:00:00 8.01667 C 7.88 g/m*3 8.02 C 0.13333 km/h
1528 28-10-2019 16:00:00 7.79167 C 7.74 g/m*3 7.79 C 0 km/h
1529 28-10-2019 17:00:00 7 C 7.39 g/m*3 7 C 0 km/h
1530 28-10-2019 18:00:00 7.175 C 7.52 g/m*3 7.18 C 0 km/h
1531 28-10-2019 19:00:00 7.15833 C 7.52 g/m*3 7.16 C 0 km/h
1532 28-10-2019 20:00:00 6.99167 C 7.47 g/m*3 6.99 C 0 km/h
1533 28-10-2019 21:00:00 6.94167 C 7.46 g/m*3 6.94 C 0 km/h
1534 28-10-2019 22:00:00 6.78333 C 7.41 g/m*3 6.78 C 0.53333 km/h
1535 28-10-2019 23:00:00 6.7 C 7.33 g/m*3 6.7 C 1.73333 km/h
1536 29-10-2019 00:00:00 6.68333 C 7.29 g/m*3 6.68 C 2.4 km/h
1537 29-10-2019 01:00:00 6.41667 C 7.16 g/m*3 6.42 C 3.73333 km/h
1538 29-10-2019 02:00:00 6.3 C 7.11 g/m*3 6.3 C 0.26667 km/h
1539 29-10-2019 03:00:00 6.275 C 7.09 g/m*3 6.28 C 1.2 km/h
1540 29-10-2019 04:00:00 6.2 C 7.06 g/m*3 6.2 C 0.93333 km/h
1541 29-10-2019 05:00:00 6.2 C 7.06 g/m*3 6.2 C 1.46667 km/h
1542 29-10-2019 06:00:00 6.10833 C 7 g/m*3 6.11 C 1.06667 km/h
1543 29-10-2019 07:00:00 5.975 C 6.91 g/m*3 5.98 C 0.8 km/h
1544 29-10-2019 08:00:00 6.225 C 7.04 g/m*3 6.23 C 0.66667 km/h
1545 29-10-2019 09:00:00 6.69167 C 7.2 g/m*3 6.69 C 0 km/h
1546 29-10-2019 10:00:00 7.475 C 7.41 g/m*3 7.48 C 0.53333 km/h
1547 29-10-2019 11:00:00 8.23333 C 7.6 g/m*3 8.23 C 0 km/h
1548 29-10-2019 12:00:00 8.925 C 7.75 g/m*3 8.93 C 0.66667 km/h
1549 29-10-2019 13:00:00 9.74167 C 7.8 g/m*3 9.74 C 3.88333 km/h
1550 29-10-2019 14:00:00 10.59167 C 7.45 g/m*3 9.92 C 6.96667 km/h
Sensor: Nr:Datum:Temp:Abs-Feuchte:Windchill:Wind:
Aussen-T/F 1551 29-10-2019 15:00:00 9.575 C 7.35 g/m*3 9.57 C 1.74167 km/h
1552 29-10-2019 16:00:00 8.275 C 7.43 g/m*3 8.28 C 0.4 km/h
1553 29-10-2019 17:00:00 6.94167 C 6.9 g/m*3 6.94 C 1.86667 km/h
1554 29-10-2019 18:00:00 5.96667 C 6.58 g/m*3 5.97 C 0.66667 km/h
1555 29-10-2019 19:00:00 4.96667 C 6.27 g/m*3 4.97 C 0 km/h
1556 29-10-2019 20:00:00 4.425 C 6.15 g/m*3 4.43 C 0 km/h
1557 29-10-2019 21:00:00 3.63333 C 5.84 g/m*3 3.63 C 0 km/h
1558 29-10-2019 22:00:00 2.99167 C 5.65 g/m*3 2.99 C 0 km/h
1559 29-10-2019 23:00:00 2.775 C 5.61 g/m*3 2.78 C 0 km/h
1560 30-10-2019 00:00:00 2.20833 C 5.4 g/m*3 2.21 C 0 km/h
1561 30-10-2019 01:00:00 1.98333 C 5.33 g/m*3 1.98 C 0 km/h
1562 30-10-2019 02:00:00 1.98333 C 5.33 g/m*3 1.98 C 0 km/h
1563 30-10-2019 03:00:00 1.51667 C 5.16 g/m*3 1.52 C 0 km/h
1564 30-10-2019 04:00:00 1.14167 C 5.05 g/m*3 1.14 C 0 km/h
1565 30-10-2019 05:00:00 1.35 C 5.14 g/m*3 1.35 C 0.26667 km/h
1566 30-10-2019 06:00:00 1.4 C 5.17 g/m*3 1.4 C 0 km/h
1567 30-10-2019 07:00:00 1.45833 C 5.19 g/m*3 1.46 C 0.26667 km/h
1568 30-10-2019 08:00:00 1.85833 C 5.34 g/m*3 1.86 C 0.26667 km/h
1569 30-10-2019 09:00:00 2.4 C 5.54 g/m*3 2.4 C 0.13333 km/h
1570 30-10-2019 10:00:00 3.69167 C 6.09 g/m*3 3.69 C 0 km/h
1571 30-10-2019 11:00:00 4.94167 C 6.63 g/m*3 4.94 C 0.66667 km/h
1572 30-10-2019 12:00:00 5.71667 C 6.9 g/m*3 5.72 C 0.26667 km/h
1573 30-10-2019 13:00:00 6.63333 C 6.88 g/m*3 6.63 C 2.66667 km/h
1574 30-10-2019 14:00:00 7.58333 C 6.8 g/m*3 7.58 C 2.675 km/h
1575 30-10-2019 15:00:00 7.75 C 6.86 g/m*3 7.75 C 0.4 km/h
Sensor: Nr:Datum:Temp:Abs-Feuchte:Windchill:Wind:
Aussen-T/F 1576 30-10-2019 16:00:00 7.01667 C 6.83 g/m*3 7.02 C 0 km/h
1577 30-10-2019 17:00:00 5.76667 C 6.37 g/m*3 5.77 C 0 km/h
1578 30-10-2019 18:00:00 4.46667 C 5.94 g/m*3 4.47 C 0.26667 km/h
1579 30-10-2019 19:00:00 3.8 C 5.77 g/m*3 3.8 C 0 km/h
1580 30-10-2019 20:00:00 3.23333 C 5.64 g/m*3 3.23 C 0.66667 km/h
1581 30-10-2019 21:00:00 2.70833 C 5.5 g/m*3 2.71 C 0.53333 km/h
1582 30-10-2019 22:00:00 2.25 C 5.35 g/m*3 2.25 C 0.13333 km/h
1583 30-10-2019 23:00:00 1.80833 C 5.21 g/m*3 1.81 C 0 km/h
1584 31-10-2019 00:00:00 1.025 C 4.94 g/m*3 1.02 C 0 km/h
1585 31-10-2019 01:00:00 0.89167 C 4.94 g/m*3 0.89 C 0 km/h
1586 31-10-2019 02:00:00 0.53333 C 4.83 g/m*3 0.53 C 0 km/h
1587 31-10-2019 03:00:00 0.28333 C 4.74 g/m*3 0.28 C 0 km/h
1588 31-10-2019 04:00:00 0.06667 C 4.67 g/m*3 0.07 C 0 km/h
1589 31-10-2019 05:00:00 -0.325 C 4.55 g/m*3 -0.33 C 0 km/h
1590 31-10-2019 06:00:00 -0.50833 C 4.49 g/m*3 -0.51 C 0 km/h
1591 31-10-2019 07:00:00 -0.75 C 4.43 g/m*3 -0.75 C 0 km/h
1592 31-10-2019 08:00:00 -0.61667 C 4.48 g/m*3 -0.62 C 0 km/h
1593 31-10-2019 09:00:00 0.05 C 4.72 g/m*3 0.05 C 0 km/h
1594 31-10-2019 10:00:00 1.13333 C 5.09 g/m*3 1.13 C 0.93333 km/h
1595 31-10-2019 11:00:00 2.85833 C 5.76 g/m*3 2.86 C 0.53333 km/h
1596 31-10-2019 12:00:00 4.16667 C 6.28 g/m*3 4.17 C 1.2 km/h
1597 31-10-2019 13:00:00 5.60833 C 6.68 g/m*3 5.61 C 4.55833 km/h
1598 31-10-2019 14:00:00 7.29167 C 6.65 g/m*3 7.29 C 3.875 km/h
1599 31-10-2019 15:00:00 7.44167 C 6.65 g/m*3 7.44 C 2.54167 km/h
1600 31-10-2019 16:00:00 6.125 C 6.4 g/m*3 6.13 C 1.73333 km/h
Sensor: Nr:Datum:Temp:Abs-Feuchte:Windchill:Wind:
Aussen-T/F 1601 31-10-2019 17:00:00 4.63333 C 5.86 g/m*3 4.63 C 0.8 km/h
1602 31-10-2019 18:00:00 3.70833 C 5.55 g/m*3 3.71 C 0 km/h
1603 31-10-2019 19:00:00 3.175 C 5.44 g/m*3 3.18 C 0 km/h
1604 31-10-2019 20:00:00 2.325 C 5.23 g/m*3 2.33 C 0 km/h
1605 31-10-2019 21:00:00 1.71667 C 5.11 g/m*3 1.72 C 0 km/h
1606 31-10-2019 22:00:00 1.48333 C 5.06 g/m*3 1.48 C 0 km/h
1607 31-10-2019 23:00:00 1.30833 C 5.04 g/m*3 1.31 C 0 km/h
1608 01-11-2019 00:00:00 0.88333 C 4.89 g/m*3 0.88 C 0 km/h
1609 01-11-2019 01:00:00 0.6 C 4.81 g/m*3 0.6 C 0 km/h
1610 01-11-2019 02:00:00 0.55833 C 4.83 g/m*3 0.56 C 0 km/h
1611 01-11-2019 03:00:00 0.44167 C 4.8 g/m*3 0.44 C 0 km/h
1612 01-11-2019 04:00:00 1.03333 C 5.02 g/m*3 1.03 C 0 km/h
1613 01-11-2019 05:00:00 2.16667 C 5.45 g/m*3 2.17 C 0 km/h
1614 01-11-2019 06:00:00 2.85833 C 5.71 g/m*3 2.86 C 0 km/h
1615 01-11-2019 07:00:00 3.55 C 5.98 g/m*3 3.55 C 0 km/h
1616 01-11-2019 08:00:00 4.35833 C 6.32 g/m*3 4.36 C 0 km/h
1617 01-11-2019 09:00:00 5.40833 C 6.77 g/m*3 5.41 C 0 km/h
1618 01-11-2019 10:00:00 6.38333 C 7.22 g/m*3 6.38 C 0.8 km/h
1619 01-11-2019 11:00:00 7.29167 C 7.55 g/m*3 7.29 C 1.86667 km/h
1620 01-11-2019 12:00:00 8.09167 C 7.76 g/m*3 8.09 C 3.35 km/h
1621 01-11-2019 13:00:00 8.53333 C 7.96 g/m*3 8.53 C 1.06667 km/h
1622 01-11-2019 14:00:00 8.73333 C 8.2 g/m*3 8.73 C 1.33333 km/h
1623 01-11-2019 15:00:00 8.7 C 8.27 g/m*3 8.7 C 1.46667 km/h
1624 01-11-2019 16:00:00 8.8 C 8.36 g/m*3 8.8 C 0 km/h
1625 01-11-2019 17:00:00 8.85833 C 8.39 g/m*3 8.86 C 1.2 km/h
Sensor: Nr:Datum:Temp:Abs-Feuchte:Windchill:Wind:
Aussen-T/F 1626 01-11-2019 18:00:00 8.86667 C 8.41 g/m*3 8.87 C 0.4 km/h
1627 01-11-2019 19:00:00 8.93333 C 8.52 g/m*3 8.93 C 0 km/h
1628 01-11-2019 20:00:00 9.225 C 8.68 g/m*3 9.23 C 0 km/h
1629 01-11-2019 21:00:00 9.64167 C 8.92 g/m*3 9.64 C 0 km/h
1630 01-11-2019 22:00:00 10.15 C 9.3 g/m*3 10.15 C 0.26667 km/h
1631 01-11-2019 23:00:00 10.525 C 9.52 g/m*3 10.53 C 0 km/h
1632 02-11-2019 00:00:00 11.18333 C 9.92 g/m*3 11.18 C 0 km/h
1633 02-11-2019 01:00:00 11.96667 C 10.42 g/m*3 11.97 C 0.93333 km/h
1634 02-11-2019 02:00:00 12.21667 C 10.59 g/m*3 12.22 C 1.33333 km/h
1635 02-11-2019 03:00:00 12.28333 C 10.63 g/m*3 12.28 C 2.13333 km/h
1636 02-11-2019 04:00:00 12.25 C 10.61 g/m*3 12.25 C 2 km/h
1637 02-11-2019 05:00:00 12.65833 C 10.88 g/m*3 12.66 C 1.46667 km/h
1638 02-11-2019 06:00:00 13.1 C 11.18 g/m*3 13.1 C 2.94167 km/h
1639 02-11-2019 07:00:00 13.48333 C 11.45 g/m*3 13.48 C 0.93333 km/h
1640 02-11-2019 08:00:00 13.84167 C 11.71 g/m*3 13.84 C 2.275 km/h
1641 02-11-2019 09:00:00 14.30833 C 12.03 g/m*3 14.31 C 12.21667 km/h
1642 02-11-2019 10:00:00 14.925 C 11.87 g/m*3 14.93 C 14.625 km/h
1643 02-11-2019 11:00:00 15.74167 C 11.57 g/m*3 15.74 C 16.5 km/h
1644 02-11-2019 12:00:00 16.15833 C 11.05 g/m*3 16.16 C 20.23333 km/h
1645 02-11-2019 13:00:00 16.04167 C 10.29 g/m*3 16.04 C 15.03333 km/h
1646 02-11-2019 14:00:00 15.8 C 10.01 g/m*3 15.8 C 10.35833 km/h
1647 02-11-2019 15:00:00 15.10833 C 9.97 g/m*3 15.11 C 5.35833 km/h
1648 02-11-2019 16:00:00 14.55833 C 9.75 g/m*3 14.56 C 8.06667 km/h
1649 02-11-2019 17:00:00 13.78333 C 9.71 g/m*3 13.78 C 11.28333 km/h
1650 02-11-2019 18:00:00 11.90833 C 9.55 g/m*3 11.91 C 2.66667 km/h
Sensor: Nr:Datum:Temp:Abs-Feuchte:Windchill:Wind:
Aussen-T/F 1651 02-11-2019 19:00:00 11.425 C 9.44 g/m*3 11.43 C 2.13333 km/h
1652 02-11-2019 20:00:00 11.30833 C 9.3 g/m*3 11.31 C 4.01667 km/h
1653 02-11-2019 21:00:00 11.15 C 8.96 g/m*3 11.15 C 4.55 km/h
1654 02-11-2019 22:00:00 10.98333 C 8.84 g/m*3 10.98 C 1.06667 km/h
1655 02-11-2019 23:00:00 10.56667 C 8.68 g/m*3 10.57 C 3.625 km/h
1656 03-11-2019 00:00:00 10.475 C 8.55 g/m*3 10.48 C 0.53333 km/h
1657 03-11-2019 01:00:00 10.41667 C 8.7 g/m*3 10.42 C 0.4 km/h
1658 03-11-2019 02:00:00 10.03333 C 8.62 g/m*3 10.03 C 0.26667 km/h
1659 03-11-2019 03:00:00 10 C 8.75 g/m*3 10 C 0.8 km/h
1660 03-11-2019 04:00:00 10.26667 C 9.02 g/m*3 10.27 C 0.66667 km/h
1661 03-11-2019 05:00:00 10.25 C 9.07 g/m*3 10.25 C 0.8 km/h
1662 03-11-2019 06:00:00 10.3 C 9.19 g/m*3 10.3 C 0 km/h
1663 03-11-2019 07:00:00 10.325 C 9.21 g/m*3 10.33 C 0 km/h
1664 03-11-2019 08:00:00 10.48333 C 9.37 g/m*3 10.48 C 0 km/h
1665 03-11-2019 09:00:00 11.3 C 9.89 g/m*3 11.3 C 0 km/h
1666 03-11-2019 10:00:00 12.26667 C 10.36 g/m*3 12.27 C 0.93333 km/h
1667 03-11-2019 11:00:00 13.53333 C 10.65 g/m*3 13.53 C 2.675 km/h
1668 03-11-2019 12:00:00 14.85 C 10.6 g/m*3 14.85 C 4.55 km/h
1669 03-11-2019 13:00:00 15.39167 C 10.7 g/m*3 15.39 C 6.30833 km/h
1670 03-11-2019 14:00:00 15.46667 C 10.78 g/m*3 15.47 C 5.08333 km/h
1671 03-11-2019 15:00:00 14.81667 C 10.57 g/m*3 14.82 C 6.83333 km/h
1672 03-11-2019 16:00:00 14.00833 C 10.41 g/m*3 14.01 C 2 km/h
1673 03-11-2019 17:00:00 13.00833 C 10.25 g/m*3 13.01 C 0.4 km/h
1674 03-11-2019 18:00:00 12.35833 C 10.22 g/m*3 12.36 C 0.13333 km/h
1675 03-11-2019 19:00:00 11.71667 C 9.95 g/m*3 11.72 C 0.53333 km/h
Sensor: Nr:Datum:Temp:Abs-Feuchte:Windchill:Wind:
Aussen-T/F 1676 03-11-2019 20:00:00 11.075 C 9.63 g/m*3 11.08 C 0.53333 km/h
1677 03-11-2019 21:00:00 10.75833 C 9.46 g/m*3 10.76 C 1.46667 km/h
1678 03-11-2019 22:00:00 10.7 C 9.43 g/m*3 10.7 C 0.8 km/h
1679 03-11-2019 23:00:00 10.60833 C 9.37 g/m*3 10.61 C 4.96667 km/h
1680 04-11-2019 00:00:00 11.075 C 9.31 g/m*3 11.08 C 10.475 km/h
1681 04-11-2019 01:00:00 11.025 C 9.11 g/m*3 11.03 C 6.44167 km/h
1682 04-11-2019 02:00:00 10.15833 C 8.79 g/m*3 10.16 C 2.00833 km/h
1683 04-11-2019 03:00:00 9.9 C 8.78 g/m*3 9.9 C 1.61667 km/h
1684 04-11-2019 04:00:00 10.18333 C 9.03 g/m*3 10.18 C 2.13333 km/h
1685 04-11-2019 05:00:00 10.38333 C 9.12 g/m*3 9.94 C 5.9 km/h
1686 04-11-2019 06:00:00 9.79167 C 8.76 g/m*3 9.79 C 2.8 km/h
1687 04-11-2019 07:00:00 9.26667 C 8.51 g/m*3 9.27 C 2.66667 km/h
1688 04-11-2019 08:00:00 9.5 C 8.69 g/m*3 9.5 C 0.13333 km/h
1689 04-11-2019 09:00:00 10.00833 C 8.83 g/m*3 10.01 C 1.475 km/h
1690 04-11-2019 10:00:00 10.875 C 9.14 g/m*3 10.88 C 1.73333 km/h
1691 04-11-2019 11:00:00 10.91667 C 9.26 g/m*3 10.92 C 1.33333 km/h
1692 04-11-2019 12:00:00 11.25 C 9.46 g/m*3 11.25 C 1.86667 km/h
1693 04-11-2019 13:00:00 12.025 C 9.75 g/m*3 12.03 C 5.23333 km/h
1694 04-11-2019 14:00:00 12.58333 C 9.58 g/m*3 12.58 C 13.56667 km/h
1695 04-11-2019 15:00:00 12.625 C 9.37 g/m*3 12.63 C 6.31667 km/h
1696 04-11-2019 16:00:00 11.44167 C 9.06 g/m*3 11.44 C 0.93333 km/h
1697 04-11-2019 17:00:00 10.275 C 8.76 g/m*3 10.28 C 0.66667 km/h
1698 04-11-2019 18:00:00 9.60833 C 8.5 g/m*3 9.61 C 0 km/h
1699 04-11-2019 19:00:00 9.18333 C 8.43 g/m*3 9.18 C 0.94167 km/h
1700 04-11-2019 20:00:00 9.5 C 8.71 g/m*3 9.5 C 0 km/h
Sensor: Nr:Datum:Temp:Abs-Feuchte:Windchill:Wind:
Aussen-T/F 1701 04-11-2019 21:00:00 9.24167 C 8.58 g/m*3 9.24 C 0.13333 km/h
1702 04-11-2019 22:00:00 8.29167 C 8.07 g/m*3 8.29 C 0.4 km/h
1703 04-11-2019 23:00:00 8.89167 C 8.48 g/m*3 8.42 C 5.24167 km/h
1704 05-11-2019 00:00:00 9.275 C 8.49 g/m*3 9.28 C 4.275 km/h
1705 05-11-2019 01:00:00 9.14167 C 8.29 g/m*3 9.14 C 3.74167 km/h
1706 05-11-2019 02:00:00 9.225 C 8.34 g/m*3 9.23 C 1.875 km/h
1707 05-11-2019 03:00:00 9.40833 C 8.27 g/m*3 8.9 C 5.625 km/h
1708 05-11-2019 04:00:00 9.46667 C 8.14 g/m*3 9.47 C 4.40833 km/h
1709 05-11-2019 05:00:00 9.525 C 8.15 g/m*3 9.53 C 4.95833 km/h
1710 05-11-2019 06:00:00 9.25 C 8.13 g/m*3 9.25 C 4.14167 km/h
1711 05-11-2019 07:00:00 9.15833 C 8.1 g/m*3 9.16 C 1.86667 km/h
1712 05-11-2019 08:00:00 8.95833 C 8.07 g/m*3 8.96 C 2.675 km/h
1713 05-11-2019 09:00:00 9.45833 C 8.15 g/m*3 9.46 C 2.26667 km/h
1714 05-11-2019 10:00:00 10.48333 C 8.33 g/m*3 10.48 C 3.625 km/h
1715 05-11-2019 11:00:00 11.225 C 8.32 g/m*3 11.23 C 5.5 km/h
1716 05-11-2019 12:00:00 11.83333 C 8.23 g/m*3 11.83 C 9.275 km/h
1717 05-11-2019 13:00:00 11.89167 C 8.41 g/m*3 11.89 C 4.68333 km/h
1718 05-11-2019 14:00:00 12.06667 C 8.62 g/m*3 12.07 C 1.86667 km/h
1719 05-11-2019 15:00:00 11.875 C 8.69 g/m*3 11.88 C 2.14167 km/h
1720 05-11-2019 16:00:00 10.85833 C 8.62 g/m*3 10.86 C 0 km/h
1721 05-11-2019 17:00:00 9.85833 C 8.46 g/m*3 9.86 C 0.13333 km/h
1722 05-11-2019 18:00:00 9.025 C 8.18 g/m*3 9.03 C 0 km/h
1723 05-11-2019 19:00:00 8.54167 C 8.03 g/m*3 8.54 C 0.13333 km/h
1724 05-11-2019 20:00:00 8.425 C 8.02 g/m*3 8.43 C 0.13333 km/h
1725 05-11-2019 21:00:00 7.95833 C 7.83 g/m*3 7.96 C 0 km/h
Sensor: Nr:Datum:Temp:Abs-Feuchte:Windchill:Wind:
Aussen-T/F 1726 05-11-2019 22:00:00 8.00833 C 7.88 g/m*3 8.01 C 0 km/h
1727 05-11-2019 23:00:00 8.11667 C 8 g/m*3 8.12 C 0 km/h
1728 06-11-2019 00:00:00 8.2 C 8.04 g/m*3 8.2 C 0 km/h
1729 06-11-2019 01:00:00 8.2 C 8.04 g/m*3 8.2 C 1.06667 km/h
1730 06-11-2019 02:00:00 8.175 C 8.05 g/m*3 8.18 C 0.26667 km/h
1731 06-11-2019 03:00:00 7.79167 C 7.83 g/m*3 7.79 C 0.13333 km/h
1732 06-11-2019 04:00:00 7.45 C 7.7 g/m*3 7.45 C 0 km/h
1733 06-11-2019 05:00:00 7.49167 C 7.76 g/m*3 7.49 C 0.26667 km/h
1734 06-11-2019 06:00:00 7.65 C 7.84 g/m*3 7.65 C 0.4 km/h
1735 06-11-2019 07:00:00 7.65 C 7.84 g/m*3 7.65 C 0.13333 km/h
1736 06-11-2019 08:00:00 7.975 C 8.01 g/m*3 7.98 C 0.53333 km/h
1737 06-11-2019 09:00:00 8.81667 C 8.42 g/m*3 8.82 C 4.15 km/h
1738 06-11-2019 10:00:00 9.68333 C 8.51 g/m*3 8.83 C 7.13333 km/h
1739 06-11-2019 11:00:00 10.15 C 8.71 g/m*3 9.64 C 6.025 km/h
1740 06-11-2019 12:00:00 10.35 C 8.85 g/m*3 9.87 C 6.03333 km/h
1741 06-11-2019 13:00:00 10.6 C 8.84 g/m*3 9.76 C 7.78333 km/h
1742 06-11-2019 14:00:00 10.43333 C 8.83 g/m*3 10.43 C 4.40833 km/h
1743 06-11-2019 15:00:00 10.24167 C 8.91 g/m*3 10.24 C 0.66667 km/h
1744 06-11-2019 16:00:00 10 C 8.84 g/m*3 10 C 0.13333 km/h
1745 06-11-2019 17:00:00 9.68333 C 8.75 g/m*3 9.68 C 0 km/h
1746 06-11-2019 18:00:00 9.6 C 8.77 g/m*3 9.6 C 0 km/h
1747 06-11-2019 19:00:00 9.40833 C 8.69 g/m*3 9.41 C 0 km/h
1748 06-11-2019 20:00:00 9.13333 C 8.54 g/m*3 9.13 C 0 km/h
1749 06-11-2019 21:00:00 8.975 C 8.51 g/m*3 8.98 C 0 km/h
1750 06-11-2019 22:00:00 8.9 C 8.42 g/m*3 8.9 C 0 km/h
Sensor: Nr:Datum:Temp:Abs-Feuchte:Windchill:Wind:
Aussen-T/F 1751 06-11-2019 23:00:00 8.85833 C 8.47 g/m*3 8.86 C 0.53333 km/h
1752 07-11-2019 00:00:00 8.51667 C 8.29 g/m*3 8.52 C 0 km/h
1753 07-11-2019 01:00:00 8.06667 C 8.05 g/m*3 8.07 C 0 km/h
1754 07-11-2019 02:00:00 7.98333 C 8.01 g/m*3 7.98 C 0 km/h
1755 07-11-2019 03:00:00 7.91667 C 7.98 g/m*3 7.92 C 0 km/h
1756 07-11-2019 04:00:00 7.49167 C 7.76 g/m*3 7.49 C 0 km/h
1757 07-11-2019 05:00:00 7.55 C 7.79 g/m*3 7.55 C 0.4 km/h
1758 07-11-2019 06:00:00 7.375 C 7.7 g/m*3 7.38 C 0 km/h
1759 07-11-2019 07:00:00 7.59167 C 7.84 g/m*3 7.59 C 0.4 km/h
1760 07-11-2019 08:00:00 8.24167 C 8.23 g/m*3 8.24 C 0.26667 km/h
1761 07-11-2019 09:00:00 8.875 C 8.57 g/m*3 8.88 C 1.06667 km/h
1762 07-11-2019 10:00:00 9.29167 C 8.77 g/m*3 9.29 C 3.35 km/h
1763 07-11-2019 11:00:00 9.39167 C 8.69 g/m*3 9.39 C 2.8 km/h
1764 07-11-2019 12:00:00 9.31667 C 8.52 g/m*3 9.32 C 2.95 km/h
1765 07-11-2019 13:00:00 9.625 C 8.55 g/m*3 9.63 C 4.00833 km/h
1766 07-11-2019 14:00:00 9.375 C 8.35 g/m*3 9.38 C 4.41667 km/h
1767 07-11-2019 15:00:00 9.76667 C 8.64 g/m*3 9.77 C 4.41667 km/h
1768 07-11-2019 16:00:00 9.65 C 8.24 g/m*3 7.67 C 13.55833 km/h
1769 07-11-2019 17:00:00 8.55833 C 7.73 g/m*3 7.46 C 7.38333 km/h
1770 07-11-2019 18:00:00 7.24167 C 7.22 g/m*3 7.24 C 1.075 km/h
1771 07-11-2019 19:00:00 6.76667 C 7.21 g/m*3 6.77 C 0.8 km/h
1772 07-11-2019 20:00:00 6.18333 C 6.96 g/m*3 6.18 C 0.4 km/h
1773 07-11-2019 21:00:00 5.65833 C 6.77 g/m*3 5.66 C 0.13333 km/h
1774 07-11-2019 22:00:00 5.00833 C 6.51 g/m*3 5.01 C 0 km/h
1775 07-11-2019 23:00:00 5.025 C 6.56 g/m*3 5.03 C 0.26667 km/h
Sensor: Nr:Datum:Temp:Abs-Feuchte:Windchill:Wind:
Aussen-T/F 1776 08-11-2019 00:00:00 4.675 C 6.38 g/m*3 4.68 C 0.26667 km/h
1777 08-11-2019 01:00:00 4.24167 C 6.2 g/m*3 4.24 C 0.26667 km/h
1778 08-11-2019 02:00:00 3.28333 C 5.82 g/m*3 3.28 C 0 km/h
1779 08-11-2019 03:00:00 3.1 C 5.79 g/m*3 3.1 C 0 km/h
1780 08-11-2019 04:00:00 2.75833 C 5.66 g/m*3 2.76 C 0 km/h
1781 08-11-2019 05:00:00 2.34167 C 5.52 g/m*3 2.34 C 0 km/h
1782 08-11-2019 06:00:00 2.31667 C 5.51 g/m*3 2.32 C 0 km/h
1783 08-11-2019 07:00:00 2.35 C 5.52 g/m*3 2.35 C 0 km/h
1784 08-11-2019 08:00:00 3.05 C 5.81 g/m*3 3.05 C 0 km/h
1785 08-11-2019 09:00:00 3.78333 C 6.1 g/m*3 3.78 C 0.53333 km/h
1786 08-11-2019 10:00:00 4.43333 C 6.4 g/m*3 4.43 C 0.4 km/h
1787 08-11-2019 11:00:00 5.15833 C 6.73 g/m*3 5.16 C 0.8 km/h
1788 08-11-2019 12:00:00 6 C 7.11 g/m*3 6 C 0.8 km/h
1789 08-11-2019 13:00:00 6.8 C 7.44 g/m*3 6.8 C 0.13333 km/h
1790 08-11-2019 14:00:00 7.44167 C 7.63 g/m*3 7.44 C 1.86667 km/h
1791 08-11-2019 15:00:00 7.73333 C 7.71 g/m*3 7.73 C 0 km/h
1792 08-11-2019 16:00:00 7.61667 C 7.63 g/m*3 7.62 C 0 km/h
1793 08-11-2019 17:00:00 6.85833 C 7.29 g/m*3 6.86 C 0 km/h
1794 08-11-2019 18:00:00 6.65 C 7.26 g/m*3 6.65 C 0 km/h
1795 08-11-2019 19:00:00 6.475 C 7.19 g/m*3 6.48 C 0 km/h
1796 08-11-2019 20:00:00 6.21667 C 7.07 g/m*3 6.22 C 0 km/h
1797 08-11-2019 21:00:00 5.7 C 6.83 g/m*3 5.7 C 0 km/h
1798 08-11-2019 22:00:00 5.39167 C 6.76 g/m*3 5.39 C 0.26667 km/h
1799 08-11-2019 23:00:00 5.49167 C 6.81 g/m*3 5.49 C 2.53333 km/h
1800 09-11-2019 00:00:00 5.34167 C 6.74 g/m*3 4.34 C 5.35 km/h
Sensor: Nr:Datum:Temp:Abs-Feuchte:Windchill:Wind:
Aussen-T/F 1801 09-11-2019 01:00:00 5.15833 C 6.66 g/m*3 4.18 C 5.225 km/h
1802 09-11-2019 02:00:00 5.1 C 6.63 g/m*3 3.79 C 6.15833 km/h
1803 09-11-2019 03:00:00 5.125 C 6.65 g/m*3 5.13 C 3.33333 km/h
1804 09-11-2019 04:00:00 4.96667 C 6.58 g/m*3 4.97 C 1.46667 km/h
1805 09-11-2019 05:00:00 4.78333 C 6.51 g/m*3 4.78 C 3.075 km/h
1806 09-11-2019 06:00:00 4.45 C 6.32 g/m*3 3.13 C 5.9 km/h
1807 09-11-2019 07:00:00 3.44167 C 5.88 g/m*3 3.44 C 0.8 km/h
1808 09-11-2019 08:00:00 3.29167 C 5.86 g/m*3 3.29 C 0.13333 km/h
1809 09-11-2019 09:00:00 4.53333 C 6.37 g/m*3 3.46 C 5.25 km/h
1810 09-11-2019 10:00:00 5.65833 C 6.55 g/m*3 3.11 C 11.7 km/h
1811 09-11-2019 11:00:00 5.91667 C 6.56 g/m*3 3.82 C 9.68333 km/h
1812 09-11-2019 12:00:00 6.375 C 6.66 g/m*3 4.51 C 9.00833 km/h
1813 09-11-2019 13:00:00 7.04167 C 6.76 g/m*3 5.39 C 8.59167 km/h
1814 09-11-2019 14:00:00 6.93333 C 6.77 g/m*3 5.67 C 6.96667 km/h
1815 09-11-2019 15:00:00 6.68333 C 6.88 g/m*3 6.68 C 3.20833 km/h
1816 09-11-2019 16:00:00 6.56667 C 6.94 g/m*3 6.57 C 1.33333 km/h
1817 09-11-2019 17:00:00 6.175 C 6.83 g/m*3 6.18 C 0.26667 km/h
1818 09-11-2019 18:00:00 5.375 C 6.48 g/m*3 5.38 C 0.13333 km/h
1819 09-11-2019 19:00:00 4.875 C 6.35 g/m*3 4.88 C 2.00833 km/h
1820 09-11-2019 20:00:00 4.03333 C 5.94 g/m*3 4.03 C 0 km/h
1821 09-11-2019 21:00:00 3.25833 C 5.73 g/m*3 3.26 C 0 km/h
1822 09-11-2019 22:00:00 2.725 C 5.56 g/m*3 2.73 C 0 km/h
1823 09-11-2019 23:00:00 1.99167 C 5.28 g/m*3 1.99 C 0 km/h
1824 10-11-2019 00:00:00 1.25833 C 5.05 g/m*3 1.26 C 0 km/h
1825 10-11-2019 01:00:00 1.31667 C 5.11 g/m*3 1.32 C 0 km/h
Sensor: Nr:Datum:Temp:Abs-Feuchte:Windchill:Wind:
Aussen-T/F 1826 10-11-2019 02:00:00 1.65833 C 5.24 g/m*3 1.66 C 0 km/h
1827 10-11-2019 03:00:00 1.59167 C 5.24 g/m*3 1.59 C 0.53333 km/h
1828 10-11-2019 04:00:00 1.28333 C 5.13 g/m*3 1.28 C 0.8 km/h
1829 10-11-2019 05:00:00 1.38333 C 5.17 g/m*3 1.38 C 0 km/h
1830 10-11-2019 06:00:00 1.70833 C 5.28 g/m*3 1.71 C 2.93333 km/h
1831 10-11-2019 07:00:00 1.61667 C 5.25 g/m*3 1.62 C 1.86667 km/h
1832 10-11-2019 08:00:00 1.81667 C 5.35 g/m*3 1.82 C 0.53333 km/h
1833 10-11-2019 09:00:00 2.25 C 5.52 g/m*3 2.25 C 0.66667 km/h
1834 10-11-2019 10:00:00 2.66667 C 5.7 g/m*3 2.67 C 0.93333 km/h
1835 10-11-2019 11:00:00 3.2 C 5.91 g/m*3 3.2 C 2.26667 km/h
1836 10-11-2019 12:00:00 3.4 C 5.91 g/m*3 2.24 C 5.075 km/h
1837 10-11-2019 13:00:00 3.86667 C 5.99 g/m*3 3.87 C 4.26667 km/h
1838 10-11-2019 14:00:00 4.29167 C 6.06 g/m*3 4.29 C 3.2 km/h
1839 10-11-2019 15:00:00 4.65833 C 6.17 g/m*3 4.66 C 1.86667 km/h
1840 10-11-2019 16:00:00 4.58333 C 6.08 g/m*3 4.58 C 1.46667 km/h
1841 10-11-2019 17:00:00 4.35833 C 6.06 g/m*3 4.36 C 1.2 km/h
1842 10-11-2019 18:00:00 4.275 C 6.07 g/m*3 4.28 C 1.2 km/h
1843 10-11-2019 19:00:00 4.15 C 6.04 g/m*3 4.15 C 1.6 km/h
1844 10-11-2019 20:00:00 4.25 C 6.14 g/m*3 4.25 C 0.26667 km/h
1845 10-11-2019 21:00:00 4.3 C 6.16 g/m*3 4.3 C 0.26667 km/h
1846 10-11-2019 22:00:00 4.275 C 6.15 g/m*3 4.28 C 0 km/h
1847 10-11-2019 23:00:00 4.36667 C 6.14 g/m*3 4.37 C 0.53333 km/h
1848 11-11-2019 00:00:00 4.25833 C 6.03 g/m*3 4.26 C 0.93333 km/h
1849 11-11-2019 01:00:00 3.85 C 5.84 g/m*3 3.85 C 2.53333 km/h
1850 11-11-2019 02:00:00 3.58333 C 5.75 g/m*3 3.58 C 0.4 km/h
Sensor: Nr:Datum:Temp:Abs-Feuchte:Windchill:Wind:
Aussen-T/F 1851 11-11-2019 03:00:00 3.30833 C 5.65 g/m*3 3.31 C 2.4 km/h
1852 11-11-2019 04:00:00 3.14167 C 5.58 g/m*3 3.14 C 1.06667 km/h
1853 11-11-2019 05:00:00 3.23333 C 5.64 g/m*3 3.23 C 0.4 km/h
1854 11-11-2019 06:00:00 3.3 C 5.66 g/m*3 3.3 C 0 km/h
1855 11-11-2019 07:00:00 3.39167 C 5.74 g/m*3 3.39 C 0.53333 km/h
1856 11-11-2019 08:00:00 4.16667 C 5.97 g/m*3 2.66 C 6.3 km/h
1857 11-11-2019 09:00:00 4.98333 C 6.13 g/m*3 3.17 C 7.79167 km/h
1858 11-11-2019 10:00:00 5.24167 C 6.15 g/m*3 3.62 C 7.24167 km/h
1859 11-11-2019 11:00:00 5.54167 C 6.22 g/m*3 3.97 C 7.25 km/h
1860 11-11-2019 12:00:00 6.025 C 6.32 g/m*3 4.57 C 7.11667 km/h
1861 11-11-2019 13:00:00 6.425 C 6.42 g/m*3 5.48 C 5.625 km/h
1862 11-11-2019 14:00:00 6.11667 C 6.33 g/m*3 4.76 C 6.83333 km/h
1863 11-11-2019 15:00:00 5.61667 C 6.28 g/m*3 4.75 C 5.08333 km/h
1864 11-11-2019 16:00:00 5.25833 C 6.22 g/m*3 4.1 C 5.75833 km/h
1865 11-11-2019 17:00:00 5.09167 C 6.15 g/m*3 3.6 C 6.71667 km/h
1866 11-11-2019 18:00:00 4.85833 C 6.1 g/m*3 4.86 C 4.14167 km/h
1867 11-11-2019 19:00:00 4.83333 C 6.22 g/m*3 4.83 C 0.8 km/h
1868 11-11-2019 20:00:00 4.8 C 6.3 g/m*3 4.8 C 0.13333 km/h
1869 11-11-2019 21:00:00 4.975 C 6.44 g/m*3 4.97 C 1.06667 km/h
1870 11-11-2019 22:00:00 5.13333 C 6.51 g/m*3 5.13 C 1.06667 km/h
1871 11-11-2019 23:00:00 5.18333 C 6.6 g/m*3 5.18 C 0.13333 km/h
1872 12-11-2019 00:00:00 5.05 C 6.53 g/m*3 5.05 C 0.13333 km/h
1873 12-11-2019 01:00:00 5.05 C 6.54 g/m*3 4.05 C 5.23333 km/h
1874 12-11-2019 02:00:00 5.375 C 6.55 g/m*3 5.38 C 3.21667 km/h
1875 12-11-2019 03:00:00 5.475 C 6.47 g/m*3 5.48 C 3.48333 km/h
Sensor: Nr:Datum:Temp:Abs-Feuchte:Windchill:Wind:
Aussen-T/F 1876 12-11-2019 04:00:00 5.6 C 6.45 g/m*3 5.6 C 2.275 km/h
1877 12-11-2019 05:00:00 5.45833 C 6.41 g/m*3 5.46 C 1.06667 km/h
1878 12-11-2019 06:00:00 5.375 C 6.4 g/m*3 5.38 C 2.26667 km/h
1879 12-11-2019 07:00:00 5.7 C 6.39 g/m*3 5.7 C 2.4 km/h
1880 12-11-2019 08:00:00 5.88333 C 6.42 g/m*3 5.88 C 2 km/h
1881 12-11-2019 09:00:00 6.58333 C 6.53 g/m*3 6.58 C 2.94167 km/h
1882 12-11-2019 10:00:00 7.66667 C 6.68 g/m*3 6.7 C 6.3 km/h
1883 12-11-2019 11:00:00 8.03333 C 6.79 g/m*3 6.34 C 9.7 km/h
1884 12-11-2019 12:00:00 7.91667 C 6.89 g/m*3 5.25 C 15.7 km/h
1885 12-11-2019 13:00:00 7.73333 C 6.67 g/m*3 4.97 C 16.1 km/h
1886 12-11-2019 14:00:00 7.76667 C 6.55 g/m*3 5.68 C 11.55833 km/h
1887 12-11-2019 15:00:00 7.75833 C 6.52 g/m*3 5.99 C 9.81667 km/h
1888 12-11-2019 16:00:00 7.31667 C 6.41 g/m*3 5.6 C 9.14167 km/h
1889 12-11-2019 17:00:00 6.60833 C 6.23 g/m*3 5.78 C 5.35833 km/h
1890 12-11-2019 18:00:00 5.85 C 6.26 g/m*3 5.85 C 0.53333 km/h
1891 12-11-2019 19:00:00 4.65833 C 5.93 g/m*3 4.66 C 0 km/h
1892 12-11-2019 20:00:00 3.29167 C 5.55 g/m*3 3.29 C 0.13333 km/h
1893 12-11-2019 21:00:00 3.23333 C 5.65 g/m*3 3.23 C 0.4 km/h
1894 12-11-2019 22:00:00 3.85 C 5.94 g/m*3 3.85 C 2.4 km/h
1895 12-11-2019 23:00:00 4.66667 C 6.06 g/m*3 4.67 C 3.21667 km/h
1896 13-11-2019 00:00:00 4.89167 C 5.98 g/m*3 4.89 C 1.6 km/h
1897 13-11-2019 01:00:00 4.65833 C 5.91 g/m*3 4.66 C 0.26667 km/h
1898 13-11-2019 02:00:00 3.33333 C 5.52 g/m*3 3.33 C 0.8 km/h
1899 13-11-2019 03:00:00 4.14167 C 5.76 g/m*3 4.14 C 2.81667 km/h
1900 13-11-2019 04:00:00 4.48333 C 5.82 g/m*3 4.48 C 0.93333 km/h
Sensor: Nr:Datum:Temp:Abs-Feuchte:Windchill:Wind:
Aussen-T/F 1901 13-11-2019 05:00:00 4.53333 C 5.87 g/m*3 4.53 C 0.66667 km/h
1902 13-11-2019 06:00:00 4.50833 C 5.89 g/m*3 4.51 C 0.53333 km/h
1903 13-11-2019 07:00:00 4.16667 C 5.82 g/m*3 4.17 C 0 km/h
1904 13-11-2019 08:00:00 4.58333 C 5.99 g/m*3 4.58 C 0.4 km/h
1905 13-11-2019 09:00:00 5.43333 C 6.19 g/m*3 4 C 6.725 km/h
1906 13-11-2019 10:00:00 6.01667 C 6.27 g/m*3 4.97 C 5.75833 km/h
1907 13-11-2019 11:00:00 6.30833 C 6.36 g/m*3 4.37 C 9.28333 km/h
1908 13-11-2019 12:00:00 6.81667 C 6.46 g/m*3 4.73 C 10.48333 km/h
1909 13-11-2019 13:00:00 6.775 C 6.44 g/m*3 5.17 C 8.20833 km/h
1910 13-11-2019 14:00:00 6.65 C 6.48 g/m*3 4.69 C 9.68333 km/h
1911 13-11-2019 15:00:00 6.69167 C 6.52 g/m*3 5.11 C 8.04167 km/h
1912 13-11-2019 16:00:00 6.6 C 6.52 g/m*3 5.68 C 5.625 km/h
1913 13-11-2019 17:00:00 6.41667 C 6.49 g/m*3 6.42 C 1.33333 km/h
1914 13-11-2019 18:00:00 6.35 C 6.51 g/m*3 6.35 C 0.26667 km/h
1915 13-11-2019 19:00:00 6.225 C 6.53 g/m*3 6.23 C 2.53333 km/h
1916 13-11-2019 20:00:00 6.26667 C 6.51 g/m*3 6.27 C 4.15 km/h
1917 13-11-2019 21:00:00 5.9 C 6.44 g/m*3 5.9 C 0 km/h
1918 13-11-2019 22:00:00 5.025 C 6.18 g/m*3 5.03 C 0.53333 km/h
1919 13-11-2019 23:00:00 4.60833 C 6.09 g/m*3 4.61 C 0.26667 km/h
1920 14-11-2019 00:00:00 4.95 C 6.32 g/m*3 4.95 C 0.26667 km/h
1921 14-11-2019 01:00:00 4.81667 C 6.23 g/m*3 4.82 C 1.06667 km/h
1922 14-11-2019 02:00:00 4.8 C 6.32 g/m*3 4.8 C 0.26667 km/h
1923 14-11-2019 03:00:00 5.425 C 6.56 g/m*3 5.43 C 1.73333 km/h
1924 14-11-2019 04:00:00 5.69167 C 6.56 g/m*3 5.69 C 1.46667 km/h
1925 14-11-2019 05:00:00 4.84167 C 6.26 g/m*3 4.84 C 0 km/h
Sensor: Nr:Datum:Temp:Abs-Feuchte:Windchill:Wind:
Aussen-T/F 1926 14-11-2019 06:00:00 4.70833 C 6.28 g/m*3 4.71 C 0.8 km/h
1927 14-11-2019 07:00:00 5.25833 C 6.3 g/m*3 4.34 C 5.09167 km/h
1928 14-11-2019 08:00:00 5.28333 C 6.17 g/m*3 5.28 C 3.46667 km/h
1929 14-11-2019 09:00:00 5.64167 C 6.2 g/m*3 5.64 C 4 km/h
1930 14-11-2019 10:00:00 6.68333 C 6.33 g/m*3 6.68 C 4.55 km/h
1931 14-11-2019 11:00:00 7.86667 C 6.26 g/m*3 7.17 C 5.49167 km/h
1932 14-11-2019 12:00:00 8.725 C 6.09 g/m*3 7.78 C 6.84167 km/h
1933 14-11-2019 13:00:00 8.68333 C 6.07 g/m*3 8.68 C 4.53333 km/h
1934 14-11-2019 14:00:00 9.01667 C 5.98 g/m*3 9.02 C 4.825 km/h
1935 14-11-2019 15:00:00 8.2 C 6.17 g/m*3 8.2 C 1.2 km/h
1936 14-11-2019 16:00:00 6.66667 C 6.05 g/m*3 6.67 C 0 km/h
1937 14-11-2019 17:00:00 4.96667 C 5.66 g/m*3 4.97 C 0.53333 km/h
1938 14-11-2019 18:00:00 4.48333 C 5.6 g/m*3 4.48 C 0.66667 km/h
1939 14-11-2019 19:00:00 3.86667 C 5.46 g/m*3 3.87 C 0 km/h
1940 14-11-2019 20:00:00 3.45 C 5.44 g/m*3 3.45 C 0.13333 km/h
1941 14-11-2019 21:00:00 2.86667 C 5.32 g/m*3 2.87 C 0 km/h
1942 14-11-2019 22:00:00 2.55833 C 5.32 g/m*3 2.56 C 0 km/h
1943 14-11-2019 23:00:00 2.725 C 5.44 g/m*3 2.73 C 0 km/h
1944 15-11-2019 00:00:00 2.975 C 5.57 g/m*3 2.98 C 0 km/h
1945 15-11-2019 01:00:00 3.43333 C 5.73 g/m*3 3.43 C 0 km/h
1946 15-11-2019 02:00:00 3.43333 C 5.69 g/m*3 3.43 C 0.13333 km/h
1947 15-11-2019 03:00:00 3.4 C 5.63 g/m*3 3.4 C 0.4 km/h
1948 15-11-2019 04:00:00 3.36667 C 5.59 g/m*3 3.37 C 2.4 km/h
1949 15-11-2019 05:00:00 3.53333 C 5.56 g/m*3 3.53 C 0.8 km/h
1950 15-11-2019 06:00:00 3.89167 C 5.55 g/m*3 3.89 C 4.29167 km/h
Sensor: Nr:Datum:Temp:Abs-Feuchte:Windchill:Wind:
Aussen-T/F 1951 15-11-2019 07:00:00 3.88333 C 5.52 g/m*3 3.88 C 2.66667 km/h
1952 15-11-2019 08:00:00 4.05833 C 5.58 g/m*3 4.06 C 1.88333 km/h
1953 15-11-2019 09:00:00 4.275 C 5.67 g/m*3 4.28 C 1.74167 km/h
1954 15-11-2019 10:00:00 5.38333 C 5.82 g/m*3 5.38 C 3.2 km/h
1955 15-11-2019 11:00:00 5.86667 C 5.88 g/m*3 5.03 C 5.1 km/h
1956 15-11-2019 12:00:00 6.55 C 6.08 g/m*3 6.55 C 3.35 km/h
1957 15-11-2019 13:00:00 7.05 C 6.26 g/m*3 7.05 C 1.06667 km/h
1958 15-11-2019 14:00:00 7.68333 C 6.42 g/m*3 7.68 C 2.13333 km/h
1959 15-11-2019 15:00:00 7.875 C 6.45 g/m*3 7.88 C 2.26667 km/h
1960 15-11-2019 16:00:00 6.54167 C 6.22 g/m*3 6.54 C 0.13333 km/h
1961 15-11-2019 17:00:00 4.75833 C 5.93 g/m*3 4.76 C 0 km/h
1962 15-11-2019 18:00:00 4.63333 C 6.01 g/m*3 4.63 C 0.26667 km/h
1963 15-11-2019 19:00:00 4.50833 C 6.02 g/m*3 4.51 C 0 km/h
1964 15-11-2019 20:00:00 4.2 C 5.93 g/m*3 4.2 C 0 km/h
1965 15-11-2019 21:00:00 4.05 C 5.93 g/m*3 4.05 C 0 km/h
1966 15-11-2019 22:00:00 3.70833 C 5.81 g/m*3 3.71 C 0 km/h
1967 15-11-2019 23:00:00 3.49167 C 5.77 g/m*3 3.49 C 0 km/h
1968 16-11-2019 00:00:00 3.30833 C 5.71 g/m*3 3.31 C 0 km/h
1969 16-11-2019 01:00:00 3.225 C 5.73 g/m*3 3.23 C 0.13333 km/h
1970 16-11-2019 02:00:00 3.11667 C 5.69 g/m*3 3.12 C 0.13333 km/h
1971 16-11-2019 03:00:00 2.63333 C 5.5 g/m*3 2.63 C 0 km/h
1972 16-11-2019 04:00:00 1.85 C 5.2 g/m*3 1.85 C 0 km/h
1973 16-11-2019 05:00:00 0.85 C 4.88 g/m*3 0.85 C 0 km/h
1974 16-11-2019 06:00:00 0.08333 C 4.63 g/m*3 0.08 C 0 km/h
1975 16-11-2019 07:00:00 -0.30833 C 4.52 g/m*3 -0.31 C 0.26667 km/h
Sensor: Nr:Datum:Temp:Abs-Feuchte:Windchill:Wind:
Aussen-T/F 1976 16-11-2019 08:00:00 0.24167 C 4.73 g/m*3 0.24 C 2.13333 km/h
1977 16-11-2019 09:00:00 0.31667 C 4.77 g/m*3 0.32 C 4.53333 km/h
1978 16-11-2019 10:00:00 0.74167 C 4.95 g/m*3 0.74 C 2.8 km/h
1979 16-11-2019 11:00:00 1.425 C 5.18 g/m*3 1.43 C 2.53333 km/h
1980 16-11-2019 12:00:00 2.25833 C 5.49 g/m*3 2.26 C 0 km/h
1981 16-11-2019 13:00:00 3.375 C 5.91 g/m*3 3.38 C 0 km/h
1982 16-11-2019 14:00:00 4.20833 C 6.25 g/m*3 4.21 C 0.13333 km/h
1983 16-11-2019 15:00:00 4.66667 C 6.39 g/m*3 4.67 C 0.4 km/h
1984 16-11-2019 16:00:00 4.58333 C 6.18 g/m*3 4.58 C 0.26667 km/h
1985 16-11-2019 17:00:00 3.94167 C 5.92 g/m*3 3.94 C 0.26667 km/h
1986 16-11-2019 18:00:00 3.20833 C 5.7 g/m*3 3.21 C 0.4 km/h
1987 16-11-2019 19:00:00 2.55833 C 5.48 g/m*3 2.56 C 0.13333 km/h
1988 16-11-2019 20:00:00 1.94167 C 5.29 g/m*3 1.94 C 0 km/h
1989 16-11-2019 21:00:00 1.55833 C 5.17 g/m*3 1.56 C 0 km/h
1990 16-11-2019 22:00:00 0.79167 C 4.91 g/m*3 0.79 C 0.13333 km/h
1991 16-11-2019 23:00:00 0.15833 C 4.7 g/m*3 0.16 C 0 km/h
1992 17-11-2019 00:00:00 -0.3 C 4.56 g/m*3 -0.3 C 0 km/h
1993 17-11-2019 01:00:00 -0.69167 C 4.44 g/m*3 -0.69 C 0 km/h
1994 17-11-2019 02:00:00 -0.11667 C 4.65 g/m*3 -0.12 C 0 km/h
1995 17-11-2019 03:00:00 0.8 C 4.97 g/m*3 0.8 C 0 km/h
1996 17-11-2019 04:00:00 1.475 C 5.2 g/m*3 1.48 C 0 km/h
1997 17-11-2019 05:00:00 1.65833 C 5.27 g/m*3 1.66 C 0 km/h
1998 17-11-2019 06:00:00 1.7 C 5.28 g/m*3 1.7 C 0 km/h
1999 17-11-2019 07:00:00 1.825 C 5.33 g/m*3 1.83 C 0 km/h
2000 17-11-2019 08:00:00 1.96667 C 5.38 g/m*3 1.97 C 0 km/h
Sensor: Nr:Datum:Temp:Abs-Feuchte:Windchill:Wind:
Aussen-T/F 2001 17-11-2019 09:00:00 2.475 C 5.58 g/m*3 2.48 C 0 km/h
2002 17-11-2019 10:00:00 3.15 C 5.89 g/m*3 3.15 C 0.26667 km/h
2003 17-11-2019 11:00:00 3.91667 C 6.2 g/m*3 3.92 C 0.13333 km/h
2004 17-11-2019 12:00:00 4.31667 C 6.36 g/m*3 4.32 C 0 km/h
2005 17-11-2019 13:00:00 4.90833 C 6.62 g/m*3 4.91 C 0 km/h
2006 17-11-2019 14:00:00 5.1 C 6.69 g/m*3 5.1 C 0.93333 km/h
2007 17-11-2019 15:00:00 4.88333 C 6.54 g/m*3 4.88 C 1.33333 km/h
2008 17-11-2019 16:00:00 4.65 C 6.44 g/m*3 4.65 C 2.66667 km/h
2009 17-11-2019 17:00:00 4.43333 C 6.35 g/m*3 4.43 C 2.13333 km/h
2010 17-11-2019 18:00:00 4.63333 C 6.43 g/m*3 4.63 C 1.6 km/h
2011 17-11-2019 19:00:00 4.7 C 6.46 g/m*3 3.15 C 6.70833 km/h
2012 17-11-2019 20:00:00 4.71667 C 6.47 g/m*3 4.72 C 3.74167 km/h
2013 17-11-2019 21:00:00 4.7 C 6.46 g/m*3 3.51 C 5.625 km/h
2014 17-11-2019 22:00:00 4.7 C 6.46 g/m*3 4.7 C 1.2 km/h
2015 17-11-2019 23:00:00 4.625 C 6.43 g/m*3 4.63 C 2.95 km/h
2016 18-11-2019 00:00:00 4.375 C 6.32 g/m*3 3.18 C 5.5 km/h
2017 18-11-2019 01:00:00 4.2 C 6.25 g/m*3 2.71 C 6.29167 km/h
2018 18-11-2019 02:00:00 4.2 C 6.25 g/m*3 4.2 C 4.41667 km/h
2019 18-11-2019 03:00:00 4.2 C 6.25 g/m*3 4.2 C 2.93333 km/h
2020 18-11-2019 04:00:00 4.2 C 6.25 g/m*3 4.2 C 4.00833 km/h
2021 18-11-2019 05:00:00 4.175 C 6.24 g/m*3 4.18 C 1.73333 km/h
2022 18-11-2019 06:00:00 4.1 C 6.21 g/m*3 4.1 C 0.53333 km/h
2023 18-11-2019 07:00:00 4.08333 C 6.2 g/m*3 4.08 C 0.4 km/h
2024 18-11-2019 08:00:00 4.14167 C 6.23 g/m*3 4.14 C 0 km/h
2025 18-11-2019 09:00:00 4.40833 C 6.34 g/m*3 4.41 C 0.13333 km/h
Sensor: Nr:Datum:Temp:Abs-Feuchte:Windchill:Wind:
Aussen-T/F 2026 18-11-2019 10:00:00 4.86667 C 6.58 g/m*3 4.87 C 0.26667 km/h
2027 18-11-2019 11:00:00 5.025 C 6.6 g/m*3 5.03 C 0.93333 km/h
2028 18-11-2019 12:00:00 5.30833 C 6.7 g/m*3 5.31 C 3.46667 km/h
2029 18-11-2019 13:00:00 5.33333 C 6.67 g/m*3 5.33 C 3.46667 km/h
2030 18-11-2019 14:00:00 5.35833 C 6.63 g/m*3 5.36 C 4 km/h
2031 18-11-2019 15:00:00 5.19167 C 6.54 g/m*3 5.19 C 3.6 km/h
2032 18-11-2019 16:00:00 4.86667 C 6.4 g/m*3 4.87 C 4.29167 km/h
2033 18-11-2019 17:00:00 4.78333 C 6.36 g/m*3 4.78 C 4.55 km/h
2034 18-11-2019 18:00:00 4.65833 C 6.31 g/m*3 4.66 C 4.01667 km/h
2035 18-11-2019 19:00:00 4.08333 C 6.07 g/m*3 2.01 C 8.19167 km/h
2036 18-11-2019 20:00:00 3.23333 C 5.74 g/m*3 0.59 C 9.81667 km/h
2037 18-11-2019 21:00:00 2.55833 C 5.51 g/m*3 -0.5 C 11.03333 km/h
2038 18-11-2019 22:00:00 2.88333 C 5.66 g/m*3 0.08 C 10.23333 km/h
2039 18-11-2019 23:00:00 3.25 C 5.8 g/m*3 0.22 C 11.56667 km/h
2040 19-11-2019 00:00:00 3.7 C 5.98 g/m*3 1.02 C 10.35833 km/h
2041 19-11-2019 01:00:00 4.01667 C 6.11 g/m*3 2.19 C 7.25833 km/h
2042 19-11-2019 02:00:00 4.2 C 6.19 g/m*3 2.84 C 5.89167 km/h
2043 19-11-2019 03:00:00 4.25833 C 6.21 g/m*3 4.26 C 3.2 km/h
2044 19-11-2019 04:00:00 4.325 C 6.24 g/m*3 2.67 C 6.85833 km/h
2045 19-11-2019 05:00:00 3.475 C 5.88 g/m*3 3.48 C 0.8 km/h
2046 19-11-2019 06:00:00 2.85 C 5.66 g/m*3 2.85 C 2.66667 km/h
2047 19-11-2019 07:00:00 2.93333 C 5.72 g/m*3 2.93 C 0.53333 km/h
2048 19-11-2019 08:00:00 3.18333 C 5.84 g/m*3 3.18 C 2.13333 km/h
2049 19-11-2019 09:00:00 4.025 C 6.17 g/m*3 2.79 C 5.48333 km/h
2050 19-11-2019 10:00:00 4.00833 C 6.14 g/m*3 4.01 C 2 km/h
Sensor: Nr:Datum:Temp:Abs-Feuchte:Windchill:Wind:
Aussen-T/F 2051 19-11-2019 11:00:00 4.65833 C 6.44 g/m*3 4.66 C 3.89167 km/h
2052 19-11-2019 12:00:00 6.175 C 6.72 g/m*3 4.71 C 7.24167 km/h
2053 19-11-2019 13:00:00 6.35 C 6.55 g/m*3 5.18 C 6.30833 km/h
2054 19-11-2019 14:00:00 6.63333 C 6.58 g/m*3 5.72 C 5.61667 km/h
2055 19-11-2019 15:00:00 6.55 C 6.77 g/m*3 6.55 C 0.93333 km/h
2056 19-11-2019 16:00:00 5.54167 C 6.53 g/m*3 5.54 C 2.53333 km/h
2057 19-11-2019 17:00:00 4.175 C 6.03 g/m*3 4.18 C 1.33333 km/h
2058 19-11-2019 18:00:00 3.325 C 5.77 g/m*3 3.33 C 0.26667 km/h
2059 19-11-2019 19:00:00 2.74167 C 5.56 g/m*3 2.74 C 0.13333 km/h
2060 19-11-2019 20:00:00 2.3 C 5.45 g/m*3 2.3 C 0.4 km/h
2061 19-11-2019 21:00:00 2.80833 C 5.67 g/m*3 2.81 C 2.14167 km/h
2062 19-11-2019 22:00:00 2.45 C 5.51 g/m*3 2.45 C 0.4 km/h
2063 19-11-2019 23:00:00 1.10833 C 5.02 g/m*3 1.11 C 0 km/h
2064 20-11-2019 00:00:00 0.60833 C 4.85 g/m*3 0.61 C 0.13333 km/h
2065 20-11-2019 01:00:00 0.23333 C 4.73 g/m*3 0.23 C 0 km/h
2066 20-11-2019 02:00:00 0.35833 C 4.82 g/m*3 0.36 C 0 km/h
2067 20-11-2019 03:00:00 0.55833 C 4.88 g/m*3 0.56 C 2.14167 km/h
2068 20-11-2019 04:00:00 0.39167 C 4.83 g/m*3 0.39 C 2.80833 km/h
2069 20-11-2019 05:00:00 0.675 C 4.92 g/m*3 0.68 C 2.66667 km/h
2070 20-11-2019 06:00:00 0.75833 C 4.95 g/m*3 0.76 C 0.13333 km/h
2071 20-11-2019 07:00:00 1.01667 C 5.04 g/m*3 1.02 C 0.26667 km/h
2072 20-11-2019 08:00:00 1.275 C 5.15 g/m*3 1.27 C 0 km/h
2073 20-11-2019 09:00:00 1.85 C 5.39 g/m*3 1.85 C 0.26667 km/h
2074 20-11-2019 10:00:00 2.61667 C 5.68 g/m*3 2.62 C 0.26667 km/h
2075 20-11-2019 11:00:00 3.025 C 5.82 g/m*3 3.03 C 1.46667 km/h
Sensor: Nr:Datum:Temp:Abs-Feuchte:Windchill:Wind:
Aussen-T/F 2076 20-11-2019 12:00:00 4.16667 C 6.22 g/m*3 4.17 C 4.54167 km/h
2077 20-11-2019 13:00:00 4.9 C 6.09 g/m*3 2.97 C 8.19167 km/h
2078 20-11-2019 14:00:00 5.275 C 5.97 g/m*3 5.28 C 4.15 km/h
2079 20-11-2019 15:00:00 5.225 C 5.87 g/m*3 5.23 C 1.33333 km/h
2080 20-11-2019 16:00:00 3.54167 C 5.45 g/m*3 3.54 C 0.26667 km/h
2081 20-11-2019 17:00:00 2.34167 C 5.25 g/m*3 2.34 C 0 km/h
2082 20-11-2019 18:00:00 1.31667 C 4.96 g/m*3 1.32 C 0.13333 km/h
2083 20-11-2019 19:00:00 0.4 C 4.7 g/m*3 0.4 C 0 km/h
2084 20-11-2019 20:00:00 -0.19167 C 4.54 g/m*3 -0.19 C 0 km/h
2085 20-11-2019 21:00:00 -0.59167 C 4.45 g/m*3 -0.59 C 0 km/h
2086 20-11-2019 22:00:00 -0.85 C 4.39 g/m*3 -0.85 C 0.26667 km/h
2087 20-11-2019 23:00:00 -0.6 C 4.47 g/m*3 -0.6 C 0 km/h
2088 21-11-2019 00:00:00 -0.6 C 4.48 g/m*3 -0.6 C 0 km/h
2089 21-11-2019 01:00:00 -1.19167 C 4.28 g/m*3 -1.19 C 0 km/h
2090 21-11-2019 02:00:00 -1.4 C 4.22 g/m*3 -1.4 C 0 km/h
2091 21-11-2019 03:00:00 -1.23333 C 4.31 g/m*3 -1.23 C 0 km/h
2092 21-11-2019 04:00:00 -0.40833 C 4.57 g/m*3 -0.41 C 0 km/h
2093 21-11-2019 05:00:00 0.16667 C 4.75 g/m*3 0.17 C 0 km/h
2094 21-11-2019 06:00:00 0.65 C 4.92 g/m*3 0.65 C 0.13333 km/h
2095 21-11-2019 07:00:00 0.775 C 4.96 g/m*3 0.78 C 0 km/h
2096 21-11-2019 08:00:00 0.85 C 4.98 g/m*3 0.85 C 0.4 km/h
2097 21-11-2019 09:00:00 1.225 C 5.11 g/m*3 1.23 C 0.26667 km/h
2098 21-11-2019 10:00:00 1.775 C 5.31 g/m*3 1.78 C 0 km/h
2099 21-11-2019 11:00:00 2.53333 C 5.59 g/m*3 2.53 C 0.53333 km/h
2100 21-11-2019 12:00:00 2.925 C 5.68 g/m*3 2.93 C 1.6 km/h
Sensor: Nr:Datum:Temp:Abs-Feuchte:Windchill:Wind:
Aussen-T/F 2101 21-11-2019 13:00:00 3.6 C 5.92 g/m*3 3.6 C 1.6 km/h
2102 21-11-2019 14:00:00 4.33333 C 6.13 g/m*3 4.33 C 0.53333 km/h
2103 21-11-2019 15:00:00 4.78333 C 6.29 g/m*3 4.78 C 0 km/h
2104 21-11-2019 16:00:00 4.975 C 6.38 g/m*3 4.97 C 0 km/h
2105 21-11-2019 17:00:00 4.48333 C 6.23 g/m*3 4.48 C 0 km/h
2106 21-11-2019 18:00:00 4.18333 C 6.12 g/m*3 4.18 C 0 km/h
2107 21-11-2019 19:00:00 3.975 C 6.06 g/m*3 3.98 C 0 km/h
2108 21-11-2019 20:00:00 3.10833 C 5.7 g/m*3 3.11 C 0.4 km/h
2109 21-11-2019 21:00:00 2.35 C 5.46 g/m*3 2.35 C 0.4 km/h
2110 21-11-2019 22:00:00 1.89167 C 5.3 g/m*3 1.89 C 0.13333 km/h
2111 21-11-2019 23:00:00 2.05 C 5.41 g/m*3 2.05 C 0.13333 km/h
2112 22-11-2019 00:00:00 2.24167 C 5.48 g/m*3 2.24 C 0.13333 km/h
2113 22-11-2019 01:00:00 2 C 5.39 g/m*3 2 C 0.13333 km/h
2114 22-11-2019 02:00:00 1.6 C 5.24 g/m*3 1.6 C 0.26667 km/h
2115 22-11-2019 03:00:00 1.725 C 5.29 g/m*3 1.73 C 0.13333 km/h
2116 22-11-2019 04:00:00 2.11667 C 5.43 g/m*3 2.12 C 0 km/h
2117 22-11-2019 05:00:00 2.69167 C 5.68 g/m*3 2.69 C 0.13333 km/h
2118 22-11-2019 06:00:00 3.55833 C 6.05 g/m*3 3.56 C 0 km/h
2119 22-11-2019 07:00:00 3.99167 C 6.23 g/m*3 3.99 C 0.13333 km/h
2120 22-11-2019 08:00:00 4.55833 C 6.47 g/m*3 4.56 C 3.06667 km/h
2121 22-11-2019 09:00:00 4.65833 C 6.48 g/m*3 4.66 C 3.88333 km/h
2122 22-11-2019 10:00:00 4.50833 C 6.39 g/m*3 4.51 C 2.26667 km/h
2123 22-11-2019 11:00:00 5.18333 C 6.68 g/m*3 5.18 C 4.93333 km/h
2124 22-11-2019 12:00:00 5.7 C 6.86 g/m*3 4.39 C 6.45 km/h
2125 22-11-2019 13:00:00 5.88333 C 6.79 g/m*3 4.82 C 5.75 km/h
Sensor: Nr:Datum:Temp:Abs-Feuchte:Windchill:Wind:
Aussen-T/F 2126 22-11-2019 14:00:00 6.06667 C 6.78 g/m*3 4.41 C 7.91667 km/h
2127 22-11-2019 15:00:00 6.16667 C 6.75 g/m*3 6.17 C 4.00833 km/h
2128 22-11-2019 16:00:00 5.90833 C 6.66 g/m*3 5.91 C 1.73333 km/h
2129 22-11-2019 17:00:00 5.73333 C 6.66 g/m*3 5.73 C 1.46667 km/h
2130 22-11-2019 18:00:00 5.63333 C 6.64 g/m*3 5.63 C 1.46667 km/h
2131 22-11-2019 19:00:00 5.49167 C 6.55 g/m*3 5.49 C 2.26667 km/h
2132 22-11-2019 20:00:00 5.275 C 6.43 g/m*3 5.28 C 3.48333 km/h
2133 22-11-2019 21:00:00 5.08333 C 6.35 g/m*3 5.08 C 1.33333 km/h
2134 22-11-2019 22:00:00 4.88333 C 6.25 g/m*3 4.88 C 2.26667 km/h
2135 22-11-2019 23:00:00 4.725 C 6.16 g/m*3 4.72 C 2.13333 km/h
2136 23-11-2019 00:00:00 4.725 C 6.16 g/m*3 4.72 C 2.53333 km/h
2137 23-11-2019 01:00:00 4.83333 C 6.15 g/m*3 4.83 C 3.88333 km/h
2138 23-11-2019 02:00:00 4.775 C 6.13 g/m*3 4.78 C 1.06667 km/h
2139 23-11-2019 03:00:00 4.425 C 6.08 g/m*3 4.43 C 1.86667 km/h
2140 23-11-2019 04:00:00 4 C 5.96 g/m*3 4 C 0.26667 km/h
2141 23-11-2019 05:00:00 3.69167 C 5.9 g/m*3 3.69 C 0.8 km/h
2142 23-11-2019 06:00:00 3.68333 C 5.94 g/m*3 3.68 C 0.4 km/h
2143 23-11-2019 07:00:00 3.94167 C 6.08 g/m*3 3.94 C 0.53333 km/h
2144 23-11-2019 08:00:00 4.15 C 6.17 g/m*3 4.15 C 1.60833 km/h
2145 23-11-2019 09:00:00 5.00833 C 6.52 g/m*3 5.01 C 1.86667 km/h
2146 23-11-2019 10:00:00 6.15833 C 6.75 g/m*3 6.16 C 3.74167 km/h
2147 23-11-2019 11:00:00 7.225 C 6.91 g/m*3 7.23 C 4.14167 km/h
2148 23-11-2019 12:00:00 7.35833 C 7.14 g/m*3 7.36 C 1.33333 km/h
2149 23-11-2019 13:00:00 7.65 C 7.27 g/m*3 7.65 C 2 km/h
2150 23-11-2019 14:00:00 7.53333 C 7.39 g/m*3 7.53 C 2.53333 km/h
Sensor: Nr:Datum:Temp:Abs-Feuchte:Windchill:Wind:
Aussen-T/F 2151 23-11-2019 15:00:00 8.36667 C 7.53 g/m*3 7.83 C 5.225 km/h
2152 23-11-2019 16:00:00 7.625 C 7.15 g/m*3 7.63 C 2.275 km/h
2153 23-11-2019 17:00:00 6.25833 C 6.81 g/m*3 6.26 C 2.53333 km/h
2154 23-11-2019 18:00:00 5.76667 C 6.7 g/m*3 5.77 C 0.8 km/h
2155 23-11-2019 19:00:00 5.56667 C 6.69 g/m*3 5.57 C 1.46667 km/h
2156 23-11-2019 20:00:00 5.00833 C 6.46 g/m*3 5.01 C 0.26667 km/h
2157 23-11-2019 21:00:00 4.41667 C 6.22 g/m*3 4.42 C 0.13333 km/h
2158 23-11-2019 22:00:00 3.85833 C 6.04 g/m*3 3.86 C 0.4 km/h
2159 23-11-2019 23:00:00 3.28333 C 5.82 g/m*3 3.28 C 0.13333 km/h
2160 24-11-2019 00:00:00 2.8 C 5.63 g/m*3 2.8 C 0.13333 km/h
2161 24-11-2019 01:00:00 2.38333 C 5.49 g/m*3 2.38 C 0 km/h
2162 24-11-2019 02:00:00 2.16667 C 5.45 g/m*3 2.17 C 0 km/h
2163 24-11-2019 03:00:00 2.1 C 5.43 g/m*3 2.1 C 0 km/h
2164 24-11-2019 04:00:00 1.7 C 5.28 g/m*3 1.7 C 0 km/h
2165 24-11-2019 05:00:00 1.825 C 5.33 g/m*3 1.83 C 0.26667 km/h
2166 24-11-2019 06:00:00 1.48333 C 5.2 g/m*3 1.48 C 0 km/h
2167 24-11-2019 07:00:00 1.14167 C 5.08 g/m*3 1.14 C 0.13333 km/h
2168 24-11-2019 08:00:00 1.15 C 5.09 g/m*3 1.15 C 0 km/h
2169 24-11-2019 09:00:00 1.525 C 5.23 g/m*3 1.53 C 0.26667 km/h
2170 24-11-2019 10:00:00 2.25833 C 5.54 g/m*3 2.26 C 0.53333 km/h
2171 24-11-2019 11:00:00 3.01667 C 5.83 g/m*3 3.02 C 0.13333 km/h
2172 24-11-2019 12:00:00 3.81667 C 6.15 g/m*3 3.82 C 0 km/h
2173 24-11-2019 13:00:00 4.81667 C 6.58 g/m*3 4.82 C 0 km/h
2174 24-11-2019 14:00:00 5.39167 C 6.83 g/m*3 5.39 C 0 km/h
2175 24-11-2019 15:00:00 5.39167 C 6.83 g/m*3 5.39 C 0 km/h
Sensor: Nr:Datum:Temp:Abs-Feuchte:Windchill:Wind:
Aussen-T/F 2176 24-11-2019 16:00:00 4.71667 C 6.47 g/m*3 4.72 C 0 km/h
2177 24-11-2019 17:00:00 3.95 C 6.15 g/m*3 3.95 C 0 km/h
2178 24-11-2019 18:00:00 3.625 C 6.01 g/m*3 3.63 C 0 km/h
2179 24-11-2019 19:00:00 3.55 C 5.98 g/m*3 3.55 C 0 km/h
2180 24-11-2019 20:00:00 3.21667 C 5.85 g/m*3 3.22 C 0 km/h
2181 24-11-2019 21:00:00 3 C 5.77 g/m*3 3 C 0 km/h
2182 24-11-2019 22:00:00 2.48333 C 5.57 g/m*3 2.48 C 0 km/h
2183 24-11-2019 23:00:00 2.11667 C 5.44 g/m*3 2.12 C 0 km/h
2184 25-11-2019 00:00:00 2.06667 C 5.43 g/m*3 2.07 C 0 km/h
2185 25-11-2019 01:00:00 2.41667 C 5.6 g/m*3 2.42 C 0 km/h
2186 25-11-2019 02:00:00 2.26667 C 5.54 g/m*3 2.27 C 0 km/h
2187 25-11-2019 03:00:00 2.40833 C 5.6 g/m*3 2.41 C 0 km/h
2188 25-11-2019 04:00:00 2.7 C 5.71 g/m*3 2.7 C 0 km/h
2189 25-11-2019 05:00:00 3.06667 C 5.85 g/m*3 3.07 C 0 km/h
2190 25-11-2019 06:00:00 3.31667 C 5.95 g/m*3 3.32 C 0 km/h
2191 25-11-2019 07:00:00 3.575 C 6.06 g/m*3 3.58 C 0 km/h
2192 25-11-2019 08:00:00 3.80833 C 6.15 g/m*3 3.81 C 0 km/h
2193 25-11-2019 09:00:00 4.26667 C 6.34 g/m*3 4.27 C 0 km/h
2194 25-11-2019 10:00:00 4.73333 C 6.54 g/m*3 4.73 C 0 km/h
2195 25-11-2019 11:00:00 5.41667 C 6.85 g/m*3 5.42 C 0.13333 km/h
2196 25-11-2019 12:00:00 6.05 C 7.13 g/m*3 6.05 C 0.13333 km/h
2197 25-11-2019 13:00:00 6.675 C 7.35 g/m*3 6.68 C 0 km/h
2198 25-11-2019 14:00:00 7.08333 C 7.48 g/m*3 7.08 C 0.26667 km/h
2199 25-11-2019 15:00:00 7.225 C 7.48 g/m*3 7.23 C 0 km/h
2200 25-11-2019 16:00:00 7.15833 C 7.49 g/m*3 7.16 C 0 km/h
Sensor: Nr:Datum:Temp:Abs-Feuchte:Windchill:Wind:
Aussen-T/F 2201 25-11-2019 17:00:00 6.8 C 7.34 g/m*3 6.8 C 0 km/h
2202 25-11-2019 18:00:00 6.68333 C 7.29 g/m*3 6.68 C 0 km/h
2203 25-11-2019 19:00:00 6.19167 C 7.06 g/m*3 6.19 C 0 km/h
2204 25-11-2019 20:00:00 6.125 C 7.1 g/m*3 6.13 C 0.13333 km/h
2205 25-11-2019 21:00:00 5.86667 C 6.94 g/m*3 5.87 C 0 km/h
2206 25-11-2019 22:00:00 5.21667 C 6.63 g/m*3 5.22 C 0 km/h
2207 25-11-2019 23:00:00 4.28333 C 6.22 g/m*3 4.28 C 0 km/h
2208 26-11-2019 00:00:00 3.66667 C 6.02 g/m*3 3.67 C 0 km/h
2209 26-11-2019 01:00:00 4.225 C 6.26 g/m*3 4.22 C 0 km/h
2210 26-11-2019 02:00:00 4.71667 C 6.5 g/m*3 4.72 C 0.13333 km/h
2211 26-11-2019 03:00:00 5.25833 C 6.76 g/m*3 5.26 C 0.13333 km/h
2212 26-11-2019 04:00:00 5.88333 C 7.06 g/m*3 5.88 C 0 km/h
2213 26-11-2019 05:00:00 6.50833 C 7.35 g/m*3 6.51 C 0 km/h
2214 26-11-2019 06:00:00 6.75833 C 7.47 g/m*3 6.76 C 0.4 km/h
2215 26-11-2019 07:00:00 7.25 C 7.72 g/m*3 7.25 C 0.26667 km/h
2216 26-11-2019 08:00:00 7.45833 C 7.82 g/m*3 7.46 C 1.2 km/h
2217 26-11-2019 09:00:00 8.05833 C 8.13 g/m*3 8.06 C 2.66667 km/h
2218 26-11-2019 10:00:00 9.175 C 8.62 g/m*3 9.18 C 1.73333 km/h
2219 26-11-2019 11:00:00 10.38333 C 8.91 g/m*3 10.38 C 3.61667 km/h
2220 26-11-2019 12:00:00 10.98333 C 9.07 g/m*3 10.98 C 1.2 km/h
2221 26-11-2019 13:00:00 11.175 C 9.13 g/m*3 11.18 C 1.875 km/h
2222 26-11-2019 14:00:00 11.10833 C 9.19 g/m*3 11.11 C 0.66667 km/h
2223 26-11-2019 15:00:00 11.24167 C 9.17 g/m*3 11.24 C 1.2 km/h
2224 26-11-2019 16:00:00 10.69167 C 8.97 g/m*3 10.69 C 0.53333 km/h
2225 26-11-2019 17:00:00 10.01667 C 8.69 g/m*3 10.02 C 0.13333 km/h
Sensor: Nr:Datum:Temp:Abs-Feuchte:Windchill:Wind:
Aussen-T/F 2226 26-11-2019 18:00:00 9.73333 C 8.67 g/m*3 9.73 C 2 km/h
2227 26-11-2019 19:00:00 10.16667 C 8.78 g/m*3 10.17 C 2.93333 km/h
2228 26-11-2019 20:00:00 9.75 C 8.48 g/m*3 9.75 C 0.53333 km/h
2229 26-11-2019 21:00:00 9.15 C 8.43 g/m*3 9.15 C 0 km/h
2230 26-11-2019 22:00:00 9.225 C 8.43 g/m*3 9.23 C 0.4 km/h
2231 26-11-2019 23:00:00 8.66667 C 8.19 g/m*3 8.67 C 0.13333 km/h
2232 27-11-2019 00:00:00 8.46667 C 8.14 g/m*3 8.47 C 0.53333 km/h
2233 27-11-2019 01:00:00 8.38333 C 8.12 g/m*3 8.38 C 0.4 km/h
2234 27-11-2019 02:00:00 8.73333 C 8.36 g/m*3 8.73 C 0 km/h
2235 27-11-2019 03:00:00 8.21667 C 8.06 g/m*3 8.22 C 0 km/h
2236 27-11-2019 04:00:00 8.25833 C 8.15 g/m*3 8.26 C 3.06667 km/h
2237 27-11-2019 05:00:00 8.39167 C 8.15 g/m*3 7.82 C 5.34167 km/h
2238 27-11-2019 06:00:00 8.64167 C 8.21 g/m*3 8.64 C 1.46667 km/h
2239 27-11-2019 07:00:00 8.725 C 8.28 g/m*3 8.73 C 3.74167 km/h
2240 27-11-2019 08:00:00 9.13333 C 8.45 g/m*3 9.13 C 2.66667 km/h
2241 27-11-2019 09:00:00 9.60833 C 8.71 g/m*3 9.61 C 1.33333 km/h
2242 27-11-2019 10:00:00 10.00833 C 8.91 g/m*3 10.01 C 2.40833 km/h
2243 27-11-2019 11:00:00 11.66667 C 8.92 g/m*3 11.67 C 6.15833 km/h
2244 27-11-2019 12:00:00 12.65 C 8.78 g/m*3 12.65 C 12.625 km/h
2245 27-11-2019 13:00:00 12.775 C 8.66 g/m*3 12.78 C 10.61667 km/h
2246 27-11-2019 14:00:00 12.96667 C 8.63 g/m*3 12.97 C 7.375 km/h
2247 27-11-2019 15:00:00 12.8 C 8.56 g/m*3 12.8 C 12.21667 km/h
2248 27-11-2019 16:00:00 11.73333 C 8.77 g/m*3 11.73 C 4.95 km/h
2249 27-11-2019 17:00:00 10.73333 C 8.89 g/m*3 10.73 C 4.275 km/h
2250 27-11-2019 18:00:00 10.70833 C 8.97 g/m*3 10.49 C 5.225 km/h
Sensor: Nr:Datum:Temp:Abs-Feuchte:Windchill:Wind:
Aussen-T/F 2251 27-11-2019 19:00:00 10.75 C 9.05 g/m*3 9.96 C 7.65 km/h
2252 27-11-2019 20:00:00 11.26667 C 8.94 g/m*3 11.27 C 8.99167 km/h
2253 27-11-2019 21:00:00 10.76667 C 9.02 g/m*3 9.7 C 9.125 km/h
2254 27-11-2019 22:00:00 11.29167 C 8.86 g/m*3 11.29 C 16.375 km/h
2255 27-11-2019 23:00:00 11.6 C 8.61 g/m*3 11.6 C 17.175 km/h
2256 28-11-2019 00:00:00 11.575 C 8.47 g/m*3 11.58 C 19.7 km/h
2257 28-11-2019 01:00:00 11.61667 C 8.43 g/m*3 11.62 C 23.46667 km/h
2258 28-11-2019 02:00:00 11.20833 C 8.36 g/m*3 11.21 C 21.19167 km/h
2259 28-11-2019 03:00:00 11.05 C 8.04 g/m*3 11.05 C 19.70833 km/h
2260 28-11-2019 04:00:00 10.96667 C 7.93 g/m*3 8.7 C 18.9 km/h
2261 28-11-2019 05:00:00 10.66667 C 7.96 g/m*3 8.31 C 19.04167 km/h
2262 28-11-2019 06:00:00 10.66667 C 8.14 g/m*3 8.57 C 16.5 km/h
2263 28-11-2019 07:00:00 10.60833 C 7.98 g/m*3 8.38 C 17.56667 km/h
2264 28-11-2019 08:00:00 10.58333 C 7.94 g/m*3 8.28 C 18.24167 km/h
2265 28-11-2019 09:00:00 11.025 C 8.03 g/m*3 11.03 C 16.23333 km/h
2266 28-11-2019 10:00:00 11.58333 C 8.06 g/m*3 11.58 C 17.7 km/h
2267 28-11-2019 11:00:00 11.95833 C 8.23 g/m*3 11.96 C 20.76667 km/h
2268 28-11-2019 12:00:00 11.49167 C 8.53 g/m*3 11.49 C 19.16667 km/h
2269 28-11-2019 13:00:00 11.7 C 8.66 g/m*3 11.7 C 17.7 km/h
2270 28-11-2019 14:00:00 11.45 C 8.57 g/m*3 11.45 C 15.03333 km/h
2271 28-11-2019 15:00:00 11.16667 C 8.46 g/m*3 11.17 C 15.03333 km/h
2272 28-11-2019 16:00:00 10.83333 C 8.42 g/m*3 8.89 C 15.44167 km/h
2273 28-11-2019 17:00:00 10.41667 C 8.55 g/m*3 8.64 C 13.3 km/h
2274 28-11-2019 18:00:00 10.43333 C 8.46 g/m*3 8.56 C 14.1 km/h
2275 28-11-2019 19:00:00 10.41667 C 8.44 g/m*3 8.92 C 11.29167 km/h
Sensor: Nr:Datum:Temp:Abs-Feuchte:Windchill:Wind:
Aussen-T/F 2276 28-11-2019 20:00:00 10.31667 C 8.51 g/m*3 8.84 C 11.03333 km/h
2277 28-11-2019 21:00:00 10.33333 C 8.49 g/m*3 8.69 C 12.23333 km/h
2278 28-11-2019 22:00:00 10.19167 C 8.54 g/m*3 8.63 C 11.425 km/h
2279 28-11-2019 23:00:00 10.00833 C 8.53 g/m*3 9.12 C 7.50833 km/h
2280 29-11-2019 00:00:00 9.44167 C 8.49 g/m*3 8.86 C 5.89167 km/h
2281 29-11-2019 01:00:00 9.05 C 8.36 g/m*3 9.05 C 2.93333 km/h
2282 29-11-2019 02:00:00 8.825 C 8.3 g/m*3 8.82 C 0 km/h
2283 29-11-2019 03:00:00 8.58333 C 8.23 g/m*3 8.58 C 0.26667 km/h
2284 29-11-2019 04:00:00 8.21667 C 8.04 g/m*3 8.22 C 2.15 km/h
2285 29-11-2019 05:00:00 7.15 C 7.34 g/m*3 7.15 C 4.55 km/h
2286 29-11-2019 06:00:00 6.79167 C 7.26 g/m*3 6.79 C 2.80833 km/h
2287 29-11-2019 07:00:00 6.38333 C 7.01 g/m*3 6.38 C 2.00833 km/h
2288 29-11-2019 08:00:00 5.95833 C 6.88 g/m*3 5.96 C 0.4 km/h
2289 29-11-2019 09:00:00 5.525 C 6.68 g/m*3 5.53 C 1.73333 km/h
2290 29-11-2019 10:00:00 5.73333 C 6.69 g/m*3 5.73 C 3.06667 km/h
2291 29-11-2019 11:00:00 6.45833 C 6.76 g/m*3 6.46 C 4.00833 km/h
2292 29-11-2019 12:00:00 7.34167 C 6.65 g/m*3 5.26 C 11.01667 km/h
2293 29-11-2019 13:00:00 6.99167 C 6.45 g/m*3 6 C 6.04167 km/h
2294 29-11-2019 14:00:00 7.49167 C 6.11 g/m*3 6.08 C 7.925 km/h
2295 29-11-2019 15:00:00 7.675 C 5.92 g/m*3 5.94 C 9.55 km/h
2296 29-11-2019 16:00:00 6.63333 C 5.89 g/m*3 6.63 C 4.00833 km/h
2297 29-11-2019 17:00:00 4.95833 C 5.73 g/m*3 4.96 C 3.33333 km/h
2298 29-11-2019 18:00:00 4.88333 C 5.86 g/m*3 4.88 C 1.46667 km/h
2299 29-11-2019 19:00:00 5.13333 C 5.83 g/m*3 5.13 C 2.53333 km/h
2300 29-11-2019 20:00:00 4.80833 C 5.8 g/m*3 4.81 C 3.46667 km/h
Sensor: Nr:Datum:Temp:Abs-Feuchte:Windchill:Wind:
Aussen-T/F 2301 29-11-2019 21:00:00 4.55833 C 5.8 g/m*3 4.56 C 2.8 km/h
2302 29-11-2019 22:00:00 3.55 C 5.55 g/m*3 3.55 C 0.93333 km/h
2303 29-11-2019 23:00:00 2.56667 C 5.34 g/m*3 2.57 C 1.2 km/h
2304 30-11-2019 00:00:00 2.60833 C 5.44 g/m*3 2.61 C 1.33333 km/h
2305 30-11-2019 01:00:00 1.975 C 5.21 g/m*3 1.98 C 0.66667 km/h
2306 30-11-2019 02:00:00 1.725 C 5.18 g/m*3 1.73 C 0.4 km/h
2307 30-11-2019 03:00:00 1.51667 C 5.11 g/m*3 1.52 C 0.93333 km/h
2308 30-11-2019 04:00:00 1.93333 C 5.29 g/m*3 1.93 C 2.93333 km/h
2309 30-11-2019 05:00:00 1.35 C 5.05 g/m*3 1.35 C 0.93333 km/h
2310 30-11-2019 06:00:00 0.18333 C 4.66 g/m*3 0.18 C 0.13333 km/h
2311 30-11-2019 07:00:00 -0.19167 C 4.57 g/m*3 -0.19 C 0.26667 km/h
2312 30-11-2019 08:00:00 0.14167 C 4.7 g/m*3 0.14 C 0 km/h
2313 30-11-2019 09:00:00 0.18333 C 4.71 g/m*3 0.18 C 0.53333 km/h
2314 30-11-2019 10:00:00 0.55 C 4.88 g/m*3 0.55 C 1.6 km/h
2315 30-11-2019 11:00:00 0.89167 C 5 g/m*3 0.89 C 2.26667 km/h
2316 30-11-2019 12:00:00 1.35 C 5.16 g/m*3 1.35 C 0.66667 km/h
2317 30-11-2019 13:00:00 2.11667 C 5.43 g/m*3 2.12 C 0.93333 km/h
2318 30-11-2019 14:00:00 2.26667 C 5.49 g/m*3 2.27 C 2.13333 km/h
2319 30-11-2019 15:00:00 2.19167 C 5.46 g/m*3 2.19 C 1.2 km/h
2320 30-11-2019 16:00:00 1.99167 C 5.39 g/m*3 1.99 C 0 km/h
2321 30-11-2019 17:00:00 1.525 C 5.22 g/m*3 1.53 C 0 km/h
2322 30-11-2019 18:00:00 1.05833 C 5.05 g/m*3 1.06 C 0 km/h
2323 30-11-2019 19:00:00 0.79167 C 4.96 g/m*3 0.79 C 0 km/h
2324 30-11-2019 20:00:00 0.65 C 4.92 g/m*3 0.65 C 0 km/h
2325 30-11-2019 21:00:00 0.58333 C 4.89 g/m*3 0.58 C 0.26667 km/h
Sensor: Nr:Datum:Temp:Abs-Feuchte:Windchill:Wind:
Aussen-T/F 2326 30-11-2019 22:00:00 0.66667 C 4.92 g/m*3 0.67 C 0.53333 km/h
2327 30-11-2019 23:00:00 0.63333 C 4.91 g/m*3 0.63 C 1.2 km/h
2328 01-12-2019 00:00:00 0.6 C 4.91 g/m*3 0.6 C 0.26667 km/h
2329 01-12-2019 01:00:00 0.75833 C 5 g/m*3 0.76 C 0.26667 km/h
2330 01-12-2019 02:00:00 0.63333 C 4.95 g/m*3 0.63 C 0.53333 km/h
2331 01-12-2019 03:00:00 0.5 C 4.86 g/m*3 0.5 C 0.93333 km/h
2332 01-12-2019 04:00:00 0.10833 C 4.76 g/m*3 0.11 C 0 km/h
2333 01-12-2019 05:00:00 0.1 C 4.78 g/m*3 0.1 C 0.13333 km/h
2334 01-12-2019 06:00:00 -0.025 C 4.71 g/m*3 -0.03 C 0.4 km/h
2335 01-12-2019 07:00:00 0.35 C 4.86 g/m*3 0.35 C 2.53333 km/h
2336 01-12-2019 08:00:00 0.70833 C 4.99 g/m*3 0.71 C 1.06667 km/h
2337 01-12-2019 09:00:00 0.84167 C 5.03 g/m*3 0.84 C 0.26667 km/h
2338 01-12-2019 10:00:00 1.275 C 5.18 g/m*3 1.27 C 0.13333 km/h
2339 01-12-2019 11:00:00 2.1 C 5.48 g/m*3 2.1 C 3.075 km/h
2340 01-12-2019 12:00:00 2.975 C 5.48 g/m*3 1.69 C 5.23333 km/h
2341 01-12-2019 13:00:00 3.75833 C 5.24 g/m*3 3.76 C 2.13333 km/h
2342 01-12-2019 14:00:00 4.20833 C 5.11 g/m*3 4.21 C 0.93333 km/h
2343 01-12-2019 15:00:00 3.98333 C 5.33 g/m*3 3.98 C 0 km/h
2344 01-12-2019 16:00:00 3.16667 C 5.21 g/m*3 3.17 C 0 km/h
2345 01-12-2019 17:00:00 2.81667 C 5.2 g/m*3 2.82 C 0 km/h
2346 01-12-2019 18:00:00 2.8 C 5.19 g/m*3 2.8 C 0 km/h
2347 01-12-2019 19:00:00 2.86667 C 5.2 g/m*3 2.87 C 0 km/h
2348 01-12-2019 20:00:00 2.725 C 5.14 g/m*3 2.73 C 0 km/h
2349 01-12-2019 21:00:00 2.45 C 5.06 g/m*3 2.45 C 0.13333 km/h
2350 01-12-2019 22:00:00 1.99167 C 4.95 g/m*3 1.99 C 0 km/h
Sensor: Nr:Datum:Temp:Abs-Feuchte:Windchill:Wind:
Aussen-T/F 2351 01-12-2019 23:00:00 1.33333 C 4.8 g/m*3 1.33 C 0.26667 km/h
2352 02-12-2019 00:00:00 0.775 C 4.7 g/m*3 0.78 C 0.66667 km/h
2353 02-12-2019 01:00:00 0.63333 C 4.71 g/m*3 0.63 C 0.4 km/h
2354 02-12-2019 02:00:00 0.09167 C 4.53 g/m*3 0.09 C 1.6 km/h
2355 02-12-2019 03:00:00 -0.36667 C 4.41 g/m*3 -0.37 C 2.13333 km/h
2356 02-12-2019 04:00:00 -0.44167 C 4.44 g/m*3 -0.44 C 0.53333 km/h
2357 02-12-2019 05:00:00 -0.35 C 4.48 g/m*3 -0.35 C 0.26667 km/h
2358 02-12-2019 06:00:00 -0.6 C 4.42 g/m*3 -0.6 C 1.06667 km/h
2359 02-12-2019 07:00:00 -1.15833 C 4.24 g/m*3 -1.16 C 0.26667 km/h
2360 02-12-2019 08:00:00 -0.65 C 4.43 g/m*3 -0.65 C 1.06667 km/h
2361 02-12-2019 09:00:00 0.26667 C 4.71 g/m*3 0.27 C 4.26667 km/h
2362 02-12-2019 10:00:00 0.85 C 4.84 g/m*3 -0.66 C 5.08333 km/h
2363 02-12-2019 11:00:00 1.58333 C 4.99 g/m*3 1.58 C 4.41667 km/h
2364 02-12-2019 12:00:00 2.78333 C 5.31 g/m*3 2.78 C 4.69167 km/h
2365 02-12-2019 13:00:00 3.95 C 5.54 g/m*3 2.76 C 5.34167 km/h
2366 02-12-2019 14:00:00 4.725 C 5.91 g/m*3 4.72 C 4.55 km/h
2367 02-12-2019 15:00:00 5.19167 C 6.12 g/m*3 5.19 C 1.2 km/h
2368 02-12-2019 16:00:00 4.675 C 6.12 g/m*3 4.68 C 2.8 km/h
2369 02-12-2019 17:00:00 4.20833 C 6 g/m*3 4.21 C 1.6 km/h
2370 02-12-2019 18:00:00 3.875 C 5.88 g/m*3 3.88 C 0.53333 km/h
2371 02-12-2019 19:00:00 3.425 C 5.78 g/m*3 3.43 C 0.93333 km/h
2372 02-12-2019 20:00:00 3.7 C 5.92 g/m*3 3.7 C 1.73333 km/h
2373 02-12-2019 21:00:00 3.63333 C 5.89 g/m*3 3.63 C 4.825 km/h
2374 02-12-2019 22:00:00 3.475 C 5.89 g/m*3 3.48 C 4.40833 km/h
2375 02-12-2019 23:00:00 3.4 C 5.86 g/m*3 3.4 C 3.475 km/h
Sensor: Nr:Datum:Temp:Abs-Feuchte:Windchill:Wind:
Aussen-T/F 2376 03-12-2019 00:00:00 3.40833 C 5.87 g/m*3 1.52 C 7.11667 km/h
2377 03-12-2019 01:00:00 3.55833 C 5.93 g/m*3 3.56 C 4.80833 km/h
2378 03-12-2019 02:00:00 3.71667 C 5.99 g/m*3 3.72 C 2.00833 km/h
2379 03-12-2019 03:00:00 3.8 C 6.04 g/m*3 2.63 C 5.21667 km/h
2380 03-12-2019 04:00:00 3.89167 C 6.11 g/m*3 2.26 C 6.56667 km/h
2381 03-12-2019 05:00:00 4.01667 C 6.17 g/m*3 4.02 C 4.275 km/h
2382 03-12-2019 06:00:00 4.1 C 6.21 g/m*3 4.1 C 1.73333 km/h
2383 03-12-2019 07:00:00 4.19167 C 6.25 g/m*3 4.19 C 4.00833 km/h
2384 03-12-2019 08:00:00 4.23333 C 6.26 g/m*3 2.97 C 5.625 km/h
2385 03-12-2019 09:00:00 4.35 C 6.31 g/m*3 4.35 C 4.94167 km/h
2386 03-12-2019 10:00:00 4.61667 C 6.43 g/m*3 3.46 C 5.49167 km/h
2387 03-12-2019 11:00:00 5.11667 C 6.64 g/m*3 5.12 C 3.2 km/h
2388 03-12-2019 12:00:00 5.6 C 6.86 g/m*3 5.6 C 3.46667 km/h
2389 03-12-2019 13:00:00 6.06667 C 7 g/m*3 6.07 C 4.26667 km/h
2390 03-12-2019 14:00:00 6.51667 C 7.13 g/m*3 6.52 C 1.06667 km/h
2391 03-12-2019 15:00:00 6.675 C 7.13 g/m*3 6.68 C 0 km/h
2392 03-12-2019 16:00:00 6.46667 C 7.07 g/m*3 6.47 C 0 km/h
2393 03-12-2019 17:00:00 5.98333 C 6.89 g/m*3 5.98 C 0 km/h
2394 03-12-2019 18:00:00 5.56667 C 6.71 g/m*3 5.57 C 0 km/h
2395 03-12-2019 19:00:00 5.29167 C 6.62 g/m*3 5.29 C 0.66667 km/h
2396 03-12-2019 20:00:00 4.93333 C 6.48 g/m*3 4.93 C 0 km/h
2397 03-12-2019 21:00:00 4.6 C 6.34 g/m*3 4.6 C 0 km/h
2398 03-12-2019 22:00:00 4.00833 C 6.09 g/m*3 4.01 C 2.4 km/h
2399 03-12-2019 23:00:00 3.46667 C 5.87 g/m*3 3.47 C 2.93333 km/h
2400 04-12-2019 00:00:00 2.41667 C 5.43 g/m*3 2.42 C 0.4 km/h
Sensor: Nr:Datum:Temp:Abs-Feuchte:Windchill:Wind:
Aussen-T/F 2401 04-12-2019 01:00:00 1.24167 C 5.04 g/m*3 1.24 C 0 km/h
2402 04-12-2019 02:00:00 0.90833 C 4.95 g/m*3 0.91 C 0 km/h
2403 04-12-2019 03:00:00 1.64167 C 5.26 g/m*3 1.64 C 0 km/h
2404 04-12-2019 04:00:00 1.74167 C 5.3 g/m*3 1.74 C 0 km/h
2405 04-12-2019 05:00:00 1.74167 C 5.3 g/m*3 1.74 C 0 km/h
2406 04-12-2019 06:00:00 1.93333 C 5.37 g/m*3 1.93 C 0.26667 km/h
2407 04-12-2019 07:00:00 1.81667 C 5.32 g/m*3 1.82 C 0.26667 km/h
2408 04-12-2019 08:00:00 1.725 C 5.29 g/m*3 1.73 C 0.13333 km/h
2409 04-12-2019 09:00:00 1.8 C 5.32 g/m*3 1.8 C 1.06667 km/h
2410 04-12-2019 10:00:00 1.83333 C 5.33 g/m*3 1.83 C 1.33333 km/h
2411 04-12-2019 11:00:00 1.83333 C 5.32 g/m*3 1.83 C 0 km/h
2412 04-12-2019 12:00:00 2.15 C 5.45 g/m*3 2.15 C 0.4 km/h
2413 04-12-2019 13:00:00 2.51667 C 5.58 g/m*3 2.52 C 1.46667 km/h
2414 04-12-2019 14:00:00 2.825 C 5.68 g/m*3 2.83 C 2.26667 km/h
2415 04-12-2019 15:00:00 2.58333 C 5.55 g/m*3 2.58 C 0 km/h
2416 04-12-2019 16:00:00 2.025 C 5.32 g/m*3 2.03 C 1.06667 km/h
2417 04-12-2019 17:00:00 1.43333 C 5.12 g/m*3 1.43 C 0 km/h
2418 04-12-2019 18:00:00 1.10833 C 5.01 g/m*3 1.11 C 0 km/h
2419 04-12-2019 19:00:00 0.41667 C 4.77 g/m*3 0.42 C 0 km/h
2420 04-12-2019 20:00:00 -0.08333 C 4.62 g/m*3 -0.08 C 0.4 km/h
2421 04-12-2019 21:00:00 -0.58333 C 4.47 g/m*3 -0.58 C 0.26667 km/h
2422 04-12-2019 22:00:00 -1.23333 C 4.27 g/m*3 -1.23 C 0 km/h
2423 04-12-2019 23:00:00 -1.54167 C 4.18 g/m*3 -1.54 C 0 km/h
2424 05-12-2019 00:00:00 -1.775 C 4.11 g/m*3 -1.78 C 0.13333 km/h
2425 05-12-2019 01:00:00 -1.78333 C 4.13 g/m*3 -1.78 C 0.13333 km/h
Sensor: Nr:Datum:Temp:Abs-Feuchte:Windchill:Wind:
Aussen-T/F 2426 05-12-2019 02:00:00 -1.86667 C 4.12 g/m*3 -1.87 C 0 km/h
2427 05-12-2019 03:00:00 -2.225 C 4 g/m*3 -2.23 C 0.66667 km/h
2428 05-12-2019 04:00:00 -1.84167 C 4.13 g/m*3 -1.84 C 1.06667 km/h
2429 05-12-2019 05:00:00 -1.75833 C 4.16 g/m*3 -1.76 C 0.4 km/h
2430 05-12-2019 06:00:00 -1.83333 C 4.14 g/m*3 -1.83 C 0.13333 km/h
2431 05-12-2019 07:00:00 -2.03333 C 4.08 g/m*3 -2.03 C 0.26667 km/h
2432 05-12-2019 08:00:00 -2.075 C 4.07 g/m*3 -2.08 C 0.13333 km/h
2433 05-12-2019 09:00:00 -1.81667 C 4.14 g/m*3 -1.82 C 1.2 km/h
2434 05-12-2019 10:00:00 -1.575 C 4.21 g/m*3 -1.58 C 1.06667 km/h
2435 05-12-2019 11:00:00 -0.94167 C 4.4 g/m*3 -0.94 C 2.13333 km/h
2436 05-12-2019 12:00:00 -0.44167 C 4.56 g/m*3 -0.44 C 1.46667 km/h
2437 05-12-2019 13:00:00 0 C 4.7 g/m*3 0 C 3.06667 km/h
2438 05-12-2019 14:00:00 0.6 C 4.9 g/m*3 0.6 C 2.4 km/h
2439 05-12-2019 15:00:00 0.675 C 4.92 g/m*3 0.68 C 1.6 km/h
2440 05-12-2019 16:00:00 0.29167 C 4.8 g/m*3 0.29 C 0 km/h
2441 05-12-2019 17:00:00 -0.225 C 4.63 g/m*3 -0.23 C 0 km/h
2442 05-12-2019 18:00:00 -0.825 C 4.44 g/m*3 -0.83 C 0.26667 km/h
2443 05-12-2019 19:00:00 -1.25833 C 4.31 g/m*3 -1.26 C 1.46667 km/h
2444 05-12-2019 20:00:00 -0.65833 C 4.5 g/m*3 -0.66 C 3.75 km/h
2445 05-12-2019 21:00:00 -1.16667 C 4.33 g/m*3 -1.17 C 1.86667 km/h
2446 05-12-2019 22:00:00 -1.39167 C 4.27 g/m*3 -1.39 C 1.73333 km/h
2447 05-12-2019 23:00:00 -1.825 C 4.14 g/m*3 -1.83 C 0.8 km/h
2448 06-12-2019 00:00:00 -2.28333 C 4.01 g/m*3 -2.28 C 0.8 km/h
2449 06-12-2019 01:00:00 -1.125 C 4.36 g/m*3 -1.13 C 2.66667 km/h
2450 06-12-2019 02:00:00 -0.575 C 4.52 g/m*3 -2.41 C 5.35833 km/h
Sensor: Nr:Datum:Temp:Abs-Feuchte:Windchill:Wind:
Aussen-T/F 2451 06-12-2019 03:00:00 -0.225 C 4.6 g/m*3 -1.89 C 5.09167 km/h
2452 06-12-2019 04:00:00 -0.10833 C 4.6 g/m*3 -0.11 C 3.75 km/h
2453 06-12-2019 05:00:00 0.13333 C 4.65 g/m*3 0.13 C 3.475 km/h
2454 06-12-2019 06:00:00 0.36667 C 4.7 g/m*3 0.37 C 3.48333 km/h
2455 06-12-2019 07:00:00 0.725 C 4.79 g/m*3 0.73 C 4.41667 km/h
2456 06-12-2019 08:00:00 1.31667 C 4.89 g/m*3 1.32 C 4.3 km/h
2457 06-12-2019 09:00:00 1.89167 C 5.11 g/m*3 0.3 C 5.625 km/h
2458 06-12-2019 10:00:00 2.65 C 5.43 g/m*3 2.65 C 2 km/h
2459 06-12-2019 11:00:00 3.86667 C 5.92 g/m*3 2.55 C 5.63333 km/h
2460 06-12-2019 12:00:00 4.7 C 6.23 g/m*3 3.32 C 6.16667 km/h
2461 06-12-2019 13:00:00 4.95833 C 6.44 g/m*3 3.49 C 6.56667 km/h
2462 06-12-2019 14:00:00 5.25833 C 6.57 g/m*3 5.26 C 2.53333 km/h
2463 06-12-2019 15:00:00 5.44167 C 6.65 g/m*3 4.4 C 5.5 km/h
2464 06-12-2019 16:00:00 5.95833 C 6.77 g/m*3 3.76 C 10.20833 km/h
2465 06-12-2019 17:00:00 6.225 C 6.7 g/m*3 4.59 C 7.925 km/h
2466 06-12-2019 18:00:00 6.65 C 6.82 g/m*3 4.51 C 10.61667 km/h
2467 06-12-2019 19:00:00 6.91667 C 6.95 g/m*3 4.01 C 15.7 km/h
2468 06-12-2019 20:00:00 7.28333 C 7.02 g/m*3 3.97 C 19.84167 km/h
2469 06-12-2019 21:00:00 7.19167 C 7.02 g/m*3 3.73 C 20.90833 km/h
2470 06-12-2019 22:00:00 7.25 C 7.03 g/m*3 4.03 C 18.91667 km/h
2471 06-12-2019 23:00:00 7.44167 C 7.12 g/m*3 5.18 C 12.23333 km/h
2472 07-12-2019 00:00:00 7.65 C 7.27 g/m*3 4.92 C 15.70833 km/h
2473 07-12-2019 01:00:00 8.09167 C 7.49 g/m*3 6.03 C 11.83333 km/h
2474 07-12-2019 02:00:00 8.14167 C 7.7 g/m*3 6.81 C 8.05833 km/h
2475 07-12-2019 03:00:00 8.68333 C 7.9 g/m*3 6.68 C 12.225 km/h
Sensor: Nr:Datum:Temp:Abs-Feuchte:Windchill:Wind:
Aussen-T/F 2476 07-12-2019 04:00:00 8.85833 C 7.8 g/m*3 7.65 C 8.05833 km/h
2477 07-12-2019 05:00:00 8.40833 C 7.74 g/m*3 7.41 C 6.85833 km/h
2478 07-12-2019 06:00:00 8.46667 C 7.51 g/m*3 6.89 C 9.53333 km/h
2479 07-12-2019 07:00:00 7.675 C 7.26 g/m*3 6.6 C 6.69167 km/h
2480 07-12-2019 08:00:00 8.35 C 7.6 g/m*3 7.15 C 7.65833 km/h
2481 07-12-2019 09:00:00 8.70833 C 7.77 g/m*3 8.71 C 3.75 km/h
2482 07-12-2019 10:00:00 9.19167 C 7.85 g/m*3 7.93 C 8.6 km/h
2483 07-12-2019 11:00:00 9.38333 C 8.12 g/m*3 8.95 C 5.35 km/h
2484 07-12-2019 12:00:00 9.5 C 7.87 g/m*3 8.21 C 9.025 km/h
2485 07-12-2019 13:00:00 10.025 C 7.76 g/m*3 8.65 C 10.08333 km/h
2486 07-12-2019 14:00:00 10.15 C 7.79 g/m*3 9.44 C 6.84167 km/h
2487 07-12-2019 15:00:00 10.06667 C 7.83 g/m*3 10.07 C 4.00833 km/h
2488 07-12-2019 16:00:00 9.39167 C 7.74 g/m*3 9.39 C 1.33333 km/h
2489 07-12-2019 17:00:00 8.74167 C 7.68 g/m*3 8.74 C 1.2 km/h
2490 07-12-2019 18:00:00 8.40833 C 7.58 g/m*3 8.41 C 1.46667 km/h
2491 07-12-2019 19:00:00 8.25 C 7.65 g/m*3 8.25 C 1.33333 km/h
2492 07-12-2019 20:00:00 8.01667 C 7.53 g/m*3 8.02 C 0.53333 km/h
2493 07-12-2019 21:00:00 8.26667 C 7.6 g/m*3 8.27 C 4.00833 km/h
2494 07-12-2019 22:00:00 8.39167 C 7.63 g/m*3 8.39 C 1.34167 km/h
2495 07-12-2019 23:00:00 8.2 C 7.65 g/m*3 8.2 C 2.54167 km/h
2496 08-12-2019 00:00:00 8.9 C 7.51 g/m*3 7.7 C 8.05 km/h
2497 08-12-2019 01:00:00 9.15833 C 7.55 g/m*3 8.35 C 6.575 km/h
2498 08-12-2019 02:00:00 9.44167 C 7.31 g/m*3 8.12 C 9.13333 km/h
2499 08-12-2019 03:00:00 9.55 C 7.36 g/m*3 7.9 C 11.14167 km/h
2500 08-12-2019 04:00:00 9.91667 C 7.7 g/m*3 7.68 C 16.1 km/h
Sensor: Nr:Datum:Temp:Abs-Feuchte:Windchill:Wind:
Aussen-T/F 2501 08-12-2019 05:00:00 9.89167 C 7.88 g/m*3 7.67 C 15.96667 km/h
2502 08-12-2019 06:00:00 10.08333 C 8.01 g/m*3 7.37 C 21.18333 km/h
2503 08-12-2019 07:00:00 10.425 C 8.05 g/m*3 8.22 C 16.9 km/h
2504 08-12-2019 08:00:00 10.56667 C 8.15 g/m*3 8 C 21.05 km/h
2505 08-12-2019 09:00:00 10.65 C 8.27 g/m*3 7.65 C 26.69167 km/h
2506 08-12-2019 10:00:00 10.75833 C 8.45 g/m*3 7.76 C 27.06667 km/h
2507 08-12-2019 11:00:00 11.01667 C 8.55 g/m*3 11.02 C 22.39167 km/h
2508 08-12-2019 12:00:00 11.54167 C 8.79 g/m*3 11.54 C 21.975 km/h
2509 08-12-2019 13:00:00 11.70833 C 9.05 g/m*3 11.71 C 18.375 km/h
2510 08-12-2019 14:00:00 11.9 C 9.21 g/m*3 11.9 C 16.23333 km/h
2511 08-12-2019 15:00:00 12.09167 C 9.32 g/m*3 12.09 C 15.03333 km/h
2512 08-12-2019 16:00:00 11.79167 C 9.27 g/m*3 11.79 C 15.16667 km/h
2513 08-12-2019 17:00:00 9.35 C 8.27 g/m*3 8.51 C 6.84167 km/h
2514 08-12-2019 18:00:00 8.775 C 8.05 g/m*3 7.78 C 7.09167 km/h
2515 08-12-2019 19:00:00 8.75 C 7.87 g/m*3 7.88 C 6.575 km/h
2516 08-12-2019 20:00:00 8.48333 C 7.78 g/m*3 7.04 C 8.85833 km/h
2517 08-12-2019 21:00:00 8.83333 C 7.59 g/m*3 7.01 C 11.3 km/h
2518 08-12-2019 22:00:00 8.80833 C 7.59 g/m*3 6.49 C 14.625 km/h
2519 08-12-2019 23:00:00 9.025 C 7.48 g/m*3 6.51 C 16.63333 km/h
2520 09-12-2019 00:00:00 8.75833 C 7.16 g/m*3 6.23 C 16.23333 km/h
2521 09-12-2019 01:00:00 8.575 C 6.96 g/m*3 5.58 C 19.96667 km/h
2522 09-12-2019 02:00:00 7.975 C 6.84 g/m*3 5.34 C 15.56667 km/h
2523 09-12-2019 03:00:00 7.95833 C 6.8 g/m*3 5.27 C 15.96667 km/h
2524 09-12-2019 04:00:00 8.15 C 6.91 g/m*3 5.06 C 19.85 km/h
2525 09-12-2019 05:00:00 7.85833 C 6.54 g/m*3 4.92 C 17.83333 km/h
Sensor: Nr:Datum:Temp:Abs-Feuchte:Windchill:Wind:
Aussen-T/F 2526 09-12-2019 06:00:00 7.99167 C 6.62 g/m*3 5.07 C 17.96667 km/h
2527 09-12-2019 07:00:00 8.04167 C 6.83 g/m*3 5.31 C 16.49167 km/h
2528 09-12-2019 08:00:00 8.26667 C 6.83 g/m*3 5.41 C 17.96667 km/h
2529 09-12-2019 09:00:00 8.20833 C 7 g/m*3 5.34 C 17.96667 km/h
2530 09-12-2019 10:00:00 8.30833 C 7.11 g/m*3 5.86 C 14.76667 km/h
2531 09-12-2019 11:00:00 8.54167 C 7.08 g/m*3 6.2 C 14.36667 km/h
2532 09-12-2019 12:00:00 8.5 C 7.09 g/m*3 6.53 C 11.825 km/h
2533 09-12-2019 13:00:00 8.63333 C 7.17 g/m*3 6.42 C 13.56667 km/h
2534 09-12-2019 14:00:00 8.85 C 7.11 g/m*3 6.95 C 11.83333 km/h
2535 09-12-2019 15:00:00 8.15 C 7.08 g/m*3 6.94 C 7.525 km/h
2536 09-12-2019 16:00:00 7.75833 C 6.76 g/m*3 6.24 C 8.60833 km/h
2537 09-12-2019 17:00:00 7.425 C 6.89 g/m*3 7.43 C 4.80833 km/h
2538 09-12-2019 18:00:00 6.84167 C 6.97 g/m*3 5.91 C 5.76667 km/h
2539 09-12-2019 19:00:00 6.58333 C 6.98 g/m*3 4.76 C 8.99167 km/h
2540 09-12-2019 20:00:00 6.575 C 6.88 g/m*3 3.76 C 14.5 km/h
2541 09-12-2019 21:00:00 6.24167 C 6.67 g/m*3 4.07 C 10.35 km/h
2542 09-12-2019 22:00:00 5.75 C 6.35 g/m*3 3.43 C 10.61667 km/h
2543 09-12-2019 23:00:00 5.39167 C 6.13 g/m*3 3.26 C 9.40833 km/h
2544 10-12-2019 00:00:00 4.79167 C 5.85 g/m*3 3.43 C 6.16667 km/h
2545 10-12-2019 01:00:00 3.8 C 5.61 g/m*3 3.8 C 3.33333 km/h
2546 10-12-2019 02:00:00 3.38333 C 5.49 g/m*3 3.38 C 3.60833 km/h
2547 10-12-2019 03:00:00 2.64167 C 5.37 g/m*3 2.64 C 2 km/h
2548 10-12-2019 04:00:00 2.025 C 5.21 g/m*3 2.03 C 1.33333 km/h
2549 10-12-2019 05:00:00 2.275 C 5.35 g/m*3 2.28 C 2.8 km/h
2550 10-12-2019 06:00:00 2.05833 C 5.24 g/m*3 2.06 C 2.93333 km/h
Sensor: Nr:Datum:Temp:Abs-Feuchte:Windchill:Wind:
Aussen-T/F 2551 10-12-2019 07:00:00 2.075 C 5.28 g/m*3 2.08 C 2.66667 km/h
2552 10-12-2019 08:00:00 1.56667 C 5.1 g/m*3 1.57 C 2.4 km/h
2553 10-12-2019 09:00:00 1.95833 C 5.26 g/m*3 1.96 C 2.66667 km/h
2554 10-12-2019 10:00:00 3.13333 C 5.62 g/m*3 3.13 C 2.40833 km/h
2555 10-12-2019 11:00:00 3.35833 C 5.66 g/m*3 2.02 C 5.49167 km/h
2556 10-12-2019 12:00:00 4.475 C 5.89 g/m*3 1.84 C 10.88333 km/h
2557 10-12-2019 13:00:00 5.21667 C 6.04 g/m*3 3.7 C 6.85833 km/h
2558 10-12-2019 14:00:00 5.00833 C 5.93 g/m*3 5.01 C 3.60833 km/h
2559 10-12-2019 15:00:00 4.13333 C 5.71 g/m*3 4.13 C 3.2 km/h
2560 10-12-2019 16:00:00 3.84167 C 5.58 g/m*3 3.84 C 3.88333 km/h
2561 10-12-2019 17:00:00 3.675 C 5.35 g/m*3 3.68 C 4.95 km/h
2562 10-12-2019 18:00:00 2.98333 C 5.26 g/m*3 2.98 C 0.4 km/h
2563 10-12-2019 19:00:00 2.44167 C 5.23 g/m*3 2.44 C 0.26667 km/h
2564 10-12-2019 20:00:00 3.10833 C 5.41 g/m*3 3.11 C 2.94167 km/h
2565 10-12-2019 21:00:00 3.18333 C 5.42 g/m*3 3.18 C 0.66667 km/h
2566 10-12-2019 22:00:00 3.08333 C 5.46 g/m*3 3.08 C 1.73333 km/h
2567 10-12-2019 23:00:00 3.725 C 5.63 g/m*3 3.73 C 1.06667 km/h
2568 11-12-2019 00:00:00 4.05833 C 5.66 g/m*3 4.06 C 1.2 km/h
2569 11-12-2019 01:00:00 4.275 C 5.66 g/m*3 4.28 C 0.93333 km/h
2570 11-12-2019 02:00:00 4.08333 C 5.73 g/m*3 4.08 C 1.33333 km/h
2571 11-12-2019 03:00:00 4.08333 C 5.77 g/m*3 4.08 C 1.33333 km/h
2572 11-12-2019 04:00:00 3.81667 C 5.78 g/m*3 3.82 C 0.93333 km/h
2573 11-12-2019 05:00:00 3.69167 C 5.83 g/m*3 3.69 C 0 km/h
2574 11-12-2019 06:00:00 3.425 C 5.81 g/m*3 3.43 C 0 km/h
2575 11-12-2019 07:00:00 3.33333 C 5.78 g/m*3 3.33 C 0 km/h
Sensor: Nr:Datum:Temp:Abs-Feuchte:Windchill:Wind:
Aussen-T/F 2576 11-12-2019 08:00:00 3.25833 C 5.79 g/m*3 3.26 C 0 km/h
2577 11-12-2019 09:00:00 3.26667 C 5.81 g/m*3 3.27 C 0 km/h
2578 11-12-2019 10:00:00 3.54167 C 5.92 g/m*3 3.54 C 0 km/h
2579 11-12-2019 11:00:00 3.75833 C 6.01 g/m*3 3.76 C 0 km/h
2580 11-12-2019 12:00:00 3.9 C 6.06 g/m*3 3.9 C 0 km/h
2581 11-12-2019 13:00:00 3.93333 C 6.08 g/m*3 3.93 C 0 km/h
2582 11-12-2019 14:00:00 4.09167 C 6.14 g/m*3 4.09 C 0 km/h
2583 11-12-2019 15:00:00 4.2 C 6.19 g/m*3 4.2 C 0 km/h
2584 11-12-2019 16:00:00 4.11667 C 6.16 g/m*3 4.12 C 0 km/h
2585 11-12-2019 17:00:00 3.91667 C 6.07 g/m*3 3.92 C 0.26667 km/h
2586 11-12-2019 18:00:00 4.13333 C 6.22 g/m*3 4.13 C 0 km/h
2587 11-12-2019 19:00:00 4.35 C 6.31 g/m*3 4.35 C 0 km/h
2588 11-12-2019 20:00:00 4.60833 C 6.42 g/m*3 4.61 C 2.15 km/h
2589 11-12-2019 21:00:00 4.75833 C 6.49 g/m*3 2.41 C 9.81667 km/h
2590 11-12-2019 22:00:00 4.525 C 6.35 g/m*3 2.67 C 7.65 km/h
2591 11-12-2019 23:00:00 4.225 C 6.21 g/m*3 4.22 C 2.93333 km/h
2592 12-12-2019 00:00:00 3.69167 C 6.01 g/m*3 3.69 C 0.8 km/h
2593 12-12-2019 01:00:00 3.36667 C 5.9 g/m*3 3.37 C 1.73333 km/h
2594 12-12-2019 02:00:00 2.83333 C 5.7 g/m*3 2.83 C 0 km/h
2595 12-12-2019 03:00:00 3.29167 C 5.88 g/m*3 3.29 C 0.8 km/h
2596 12-12-2019 04:00:00 3.69167 C 6.04 g/m*3 3.69 C 0 km/h
2597 12-12-2019 05:00:00 3.175 C 5.84 g/m*3 3.18 C 0 km/h
2598 12-12-2019 06:00:00 2.95 C 5.75 g/m*3 2.95 C 0.53333 km/h
2599 12-12-2019 07:00:00 3.75 C 6.1 g/m*3 3.75 C 0 km/h
2600 12-12-2019 08:00:00 4.025 C 6.21 g/m*3 4.03 C 0 km/h
Sensor: Nr:Datum:Temp:Abs-Feuchte:Windchill:Wind:
Aussen-T/F 2601 12-12-2019 09:00:00 4.525 C 6.45 g/m*3 4.53 C 0.8 km/h
2602 12-12-2019 10:00:00 4.80833 C 6.56 g/m*3 3.63 C 5.625 km/h
2603 12-12-2019 11:00:00 4.9 C 6.51 g/m*3 3.47 C 6.43333 km/h
2604 12-12-2019 12:00:00 5.2 C 6.35 g/m*3 3.36 C 8.05 km/h
2605 12-12-2019 13:00:00 5.14167 C 6.05 g/m*3 3.22 C 8.33333 km/h
2606 12-12-2019 14:00:00 5.14167 C 5.87 g/m*3 3.96 C 5.775 km/h
2607 12-12-2019 15:00:00 4.875 C 5.86 g/m*3 3.08 C 7.64167 km/h
2608 12-12-2019 16:00:00 4.38333 C 5.66 g/m*3 4.38 C 1.86667 km/h
2609 12-12-2019 17:00:00 2.875 C 5.28 g/m*3 2.88 C 1.06667 km/h
2610 12-12-2019 18:00:00 2.00833 C 5.2 g/m*3 2.01 C 1.46667 km/h
2611 12-12-2019 19:00:00 1.68333 C 5.13 g/m*3 1.68 C 1.06667 km/h
2612 12-12-2019 20:00:00 1.675 C 5.16 g/m*3 1.68 C 1.6 km/h
2613 12-12-2019 21:00:00 2.31667 C 5.31 g/m*3 2.32 C 3.06667 km/h
2614 12-12-2019 22:00:00 1.85833 C 5.1 g/m*3 1.86 C 1.73333 km/h
2615 12-12-2019 23:00:00 2.4 C 5.21 g/m*3 0.99 C 5.35 km/h
2616 13-12-2019 00:00:00 2.38333 C 5.1 g/m*3 0.96 C 5.35833 km/h
2617 13-12-2019 01:00:00 2.78333 C 5.13 g/m*3 0.12 C 9.53333 km/h
2618 13-12-2019 02:00:00 2.9 C 5.13 g/m*3 0.47 C 8.725 km/h
2619 13-12-2019 03:00:00 2.725 C 5.13 g/m*3 -0.01 C 9.80833 km/h
2620 13-12-2019 04:00:00 2.525 C 5.19 g/m*3 -0.19 C 9.55 km/h
2621 13-12-2019 05:00:00 2.63333 C 5.28 g/m*3 0.85 C 6.43333 km/h
2622 13-12-2019 06:00:00 2.86667 C 5.38 g/m*3 1.52 C 5.35 km/h
2623 13-12-2019 07:00:00 2.85833 C 5.47 g/m*3 1.06 C 6.56667 km/h
2624 13-12-2019 08:00:00 2.83333 C 5.51 g/m*3 1.08 C 6.44167 km/h
2625 13-12-2019 09:00:00 2.8 C 5.53 g/m*3 2.8 C 4.83333 km/h
Sensor: Nr:Datum:Temp:Abs-Feuchte:Windchill:Wind:
Aussen-T/F 2626 13-12-2019 10:00:00 3 C 5.65 g/m*3 3 C 0.53333 km/h
2627 13-12-2019 11:00:00 3.35833 C 5.82 g/m*3 3.36 C 0.53333 km/h
2628 13-12-2019 12:00:00 4.09167 C 6.14 g/m*3 4.09 C 0.53333 km/h
2629 13-12-2019 13:00:00 5.2 C 6.66 g/m*3 5.2 C 2.675 km/h
2630 13-12-2019 14:00:00 6.93333 C 7.16 g/m*3 4.13 C 15.03333 km/h
2631 13-12-2019 15:00:00 6.675 C 6.87 g/m*3 3.97 C 13.96667 km/h
2632 13-12-2019 16:00:00 5.96667 C 6.52 g/m*3 3.41 C 12.1 km/h
2633 13-12-2019 17:00:00 5.23333 C 6.33 g/m*3 2.55 C 11.96667 km/h
2634 13-12-2019 18:00:00 4.73333 C 6.25 g/m*3 2.95 C 7.525 km/h
2635 13-12-2019 19:00:00 4.76667 C 6.29 g/m*3 2.19 C 10.88333 km/h
2636 13-12-2019 20:00:00 5.26667 C 6.44 g/m*3 2.49 C 12.49167 km/h
2637 13-12-2019 21:00:00 5.13333 C 6.39 g/m*3 2.95 C 9.40833 km/h
2638 13-12-2019 22:00:00 5.05833 C 6.29 g/m*3 3.26 C 7.79167 km/h
2639 13-12-2019 23:00:00 5.60833 C 6.44 g/m*3 3.1 C 11.43333 km/h
2640 14-12-2019 00:00:00 5.46667 C 6.37 g/m*3 5.47 C 4.28333 km/h
2641 14-12-2019 01:00:00 5.89167 C 6.33 g/m*3 3.47 C 11.28333 km/h
2642 14-12-2019 02:00:00 5.71667 C 6.3 g/m*3 5.72 C 2.53333 km/h
2643 14-12-2019 03:00:00 5.33333 C 6.37 g/m*3 5.33 C 2.93333 km/h
2644 14-12-2019 04:00:00 4.89167 C 6.31 g/m*3 4.89 C 1.2 km/h
2645 14-12-2019 05:00:00 4.5 C 6.22 g/m*3 4.5 C 1.2 km/h
2646 14-12-2019 06:00:00 5.18333 C 6.6 g/m*3 3.17 C 8.725 km/h
2647 14-12-2019 07:00:00 6.75 C 7.25 g/m*3 4.43 C 11.69167 km/h
2648 14-12-2019 08:00:00 7.4 C 6.97 g/m*3 3.96 C 21.30833 km/h
2649 14-12-2019 09:00:00 7.2 C 6.4 g/m*3 4 C 18.64167 km/h
2650 14-12-2019 10:00:00 7.09167 C 6.52 g/m*3 4.89 C 11.425 km/h
Sensor: Nr:Datum:Temp:Abs-Feuchte:Windchill:Wind:
Aussen-T/F 2651 14-12-2019 11:00:00 7.03333 C 6.55 g/m*3 4.05 C 16.5 km/h
2652 14-12-2019 12:00:00 7.58333 C 6 g/m*3 4.16 C 21.58333 km/h
2653 14-12-2019 13:00:00 8.45 C 6.16 g/m*3 5.42 C 19.96667 km/h
2654 14-12-2019 14:00:00 8.76667 C 6.51 g/m*3 5.96 C 18.63333 km/h
2655 14-12-2019 15:00:00 7.825 C 6.95 g/m*3 5.12 C 15.825 km/h
2656 14-12-2019 16:00:00 7.875 C 6.82 g/m*3 4.97 C 17.56667 km/h
2657 14-12-2019 17:00:00 8.03333 C 6.94 g/m*3 5.35 C 16.1 km/h
2658 14-12-2019 18:00:00 7.95833 C 6.92 g/m*3 5.09 C 17.43333 km/h
2659 14-12-2019 19:00:00 7.04167 C 6.53 g/m*3 5.61 C 7.66667 km/h
2660 14-12-2019 20:00:00 6.88333 C 6.45 g/m*3 5.54 C 7.23333 km/h
2661 14-12-2019 21:00:00 7.375 C 6.7 g/m*3 5.1 C 12.23333 km/h
2662 14-12-2019 22:00:00 7.45833 C 6.77 g/m*3 5.26 C 11.825 km/h
2663 14-12-2019 23:00:00 7.73333 C 6.83 g/m*3 5.88 C 10.21667 km/h
2664 15-12-2019 00:00:00 6.84167 C 6.64 g/m*3 6.84 C 2.40833 km/h
2665 15-12-2019 01:00:00 6.325 C 6.64 g/m*3 6.33 C 2.675 km/h
2666 15-12-2019 02:00:00 6.76667 C 6.97 g/m*3 6.77 C 2.14167 km/h
2667 15-12-2019 03:00:00 6.99167 C 7.3 g/m*3 6.99 C 0.66667 km/h
2668 15-12-2019 04:00:00 8.23333 C 8.05 g/m*3 7.51 C 5.75833 km/h
2669 15-12-2019 05:00:00 9.40833 C 8.53 g/m*3 7.57 C 12.19167 km/h
2670 15-12-2019 06:00:00 10.84167 C 8.67 g/m*3 8.16 C 23.19167 km/h
2671 15-12-2019 07:00:00 11 C 8.51 g/m*3 8.3 C 24 km/h
2672 15-12-2019 08:00:00 11.075 C 8.66 g/m*3 11.08 C 19.71667 km/h
2673 15-12-2019 09:00:00 9.46667 C 8.37 g/m*3 8.18 C 8.99167 km/h
2674 15-12-2019 10:00:00 8.7 C 8.08 g/m*3 8.7 C 4.81667 km/h
2675 15-12-2019 11:00:00 8.75833 C 7.8 g/m*3 7.21 C 9.68333 km/h
Sensor: Nr:Datum:Temp:Abs-Feuchte:Windchill:Wind:
Aussen-T/F 2676 15-12-2019 12:00:00 8.625 C 7.56 g/m*3 7.1 C 9.41667 km/h
2677 15-12-2019 13:00:00 9.15 C 7.41 g/m*3 7.31 C 11.83333 km/h
2678 15-12-2019 14:00:00 9.30833 C 7.19 g/m*3 7.42 C 12.35833 km/h
2679 15-12-2019 15:00:00 9.10833 C 6.98 g/m*3 6.91 C 14.23333 km/h
2680 15-12-2019 16:00:00 8.48333 C 6.65 g/m*3 6.42 C 12.35833 km/h
2681 15-12-2019 17:00:00 7.85833 C 6.6 g/m*3 5.96 C 10.625 km/h
2682 15-12-2019 18:00:00 7.65833 C 6.66 g/m*3 6.44 C 7.25833 km/h
2683 15-12-2019 19:00:00 6.325 C 6.55 g/m*3 6.33 C 1.46667 km/h
2684 15-12-2019 20:00:00 5.675 C 6.47 g/m*3 5.68 C 0 km/h
2685 15-12-2019 21:00:00 4.39167 C 6.05 g/m*3 4.39 C 0 km/h
2686 15-12-2019 22:00:00 4.25833 C 6.14 g/m*3 4.26 C 0 km/h
2687 15-12-2019 23:00:00 4.36667 C 6.21 g/m*3 4.37 C 0 km/h
2688 16-12-2019 00:00:00 5 C 6.52 g/m*3 5 C 0.4 km/h
2689 16-12-2019 01:00:00 5.85 C 6.94 g/m*3 5.85 C 2 km/h
2690 16-12-2019 02:00:00 6.44167 C 7.24 g/m*3 6.44 C 0 km/h
2691 16-12-2019 03:00:00 6.65833 C 7.35 g/m*3 6.66 C 0.13333 km/h
2692 16-12-2019 04:00:00 6.875 C 7.46 g/m*3 6.88 C 0.4 km/h
2693 16-12-2019 05:00:00 7.325 C 7.68 g/m*3 7.33 C 1.6 km/h
2694 16-12-2019 06:00:00 7.64167 C 7.84 g/m*3 7.64 C 1.06667 km/h
2695 16-12-2019 07:00:00 7.575 C 7.8 g/m*3 7.58 C 0.66667 km/h
2696 16-12-2019 08:00:00 7.8 C 7.92 g/m*3 7.8 C 1.06667 km/h
2697 16-12-2019 09:00:00 8.15833 C 8.12 g/m*3 8.16 C 0 km/h
2698 16-12-2019 10:00:00 8.49167 C 8.31 g/m*3 8.49 C 0 km/h
2699 16-12-2019 11:00:00 9.225 C 8.77 g/m*3 9.23 C 0 km/h
2700 16-12-2019 12:00:00 9.8 C 9.09 g/m*3 9.8 C 0 km/h
Sensor: Nr:Datum:Temp:Abs-Feuchte:Windchill:Wind:
Aussen-T/F 2701 16-12-2019 13:00:00 10.26667 C 9.37 g/m*3 10.27 C 0 km/h
2702 16-12-2019 14:00:00 10.41667 C 9.37 g/m*3 10.42 C 0.26667 km/h
2703 16-12-2019 15:00:00 10.09167 C 9.17 g/m*3 10.09 C 0.4 km/h
2704 16-12-2019 16:00:00 9.1 C 8.56 g/m*3 9.1 C 2 km/h
2705 16-12-2019 17:00:00 8.15833 C 8.06 g/m*3 8.16 C 1.73333 km/h
2706 16-12-2019 18:00:00 8.35833 C 8.21 g/m*3 8.36 C 4.01667 km/h
2707 16-12-2019 19:00:00 8.7 C 8.33 g/m*3 8.7 C 4.55833 km/h
2708 16-12-2019 20:00:00 8.66667 C 8.27 g/m*3 8.67 C 3.2 km/h
2709 16-12-2019 21:00:00 8.15833 C 7.96 g/m*3 8.16 C 3.20833 km/h
2710 16-12-2019 22:00:00 8.10833 C 7.97 g/m*3 8.11 C 2.93333 km/h
2711 16-12-2019 23:00:00 8.24167 C 8.04 g/m*3 8.24 C 1.73333 km/h
2712 17-12-2019 00:00:00 8.2 C 8 g/m*3 8.2 C 0.8 km/h
2713 17-12-2019 01:00:00 8.09167 C 7.97 g/m*3 8.09 C 1.33333 km/h
2714 17-12-2019 02:00:00 8.11667 C 7.91 g/m*3 8.12 C 2.53333 km/h
2715 17-12-2019 03:00:00 9.125 C 8.28 g/m*3 9.13 C 3.33333 km/h
2716 17-12-2019 04:00:00 9.44167 C 8.25 g/m*3 9.44 C 0.4 km/h
2717 17-12-2019 05:00:00 9.15 C 8.2 g/m*3 9.15 C 0 km/h
2718 17-12-2019 06:00:00 8.53333 C 7.98 g/m*3 8.53 C 0 km/h
2719 17-12-2019 07:00:00 8.33333 C 7.94 g/m*3 8.33 C 0 km/h
2720 17-12-2019 08:00:00 7.93333 C 7.72 g/m*3 7.93 C 0 km/h
2721 17-12-2019 09:00:00 7.525 C 7.58 g/m*3 7.53 C 0 km/h
2722 17-12-2019 10:00:00 7.51667 C 7.64 g/m*3 7.52 C 0 km/h
2723 17-12-2019 11:00:00 8.95833 C 8.4 g/m*3 8.96 C 0 km/h
2724 17-12-2019 12:00:00 9.98333 C 8.84 g/m*3 9.98 C 0 km/h
2725 17-12-2019 13:00:00 11.10833 C 9.29 g/m*3 11.11 C 0 km/h
Sensor: Nr:Datum:Temp:Abs-Feuchte:Windchill:Wind:
Aussen-T/F 2726 17-12-2019 14:00:00 12.41667 C 9.5 g/m*3 12.42 C 1.33333 km/h
2727 17-12-2019 15:00:00 12.54167 C 9.29 g/m*3 12.54 C 2.675 km/h
2728 17-12-2019 16:00:00 12.93333 C 9.18 g/m*3 12.93 C 2.275 km/h
2729 17-12-2019 17:00:00 13 C 8.88 g/m*3 13 C 6.55833 km/h
2730 17-12-2019 18:00:00 14.08333 C 9.39 g/m*3 14.08 C 7.93333 km/h
2731 17-12-2019 19:00:00 13.34167 C 9.63 g/m*3 13.34 C 7.39167 km/h
2732 17-12-2019 20:00:00 12.59167 C 9.83 g/m*3 12.59 C 3.34167 km/h
2733 17-12-2019 21:00:00 11.76667 C 9.58 g/m*3 11.77 C 5.09167 km/h
2734 17-12-2019 22:00:00 13.26667 C 9.58 g/m*3 13.27 C 15.16667 km/h
2735 17-12-2019 23:00:00 12.375 C 9.55 g/m*3 12.38 C 13.425 km/h
2736 18-12-2019 00:00:00 11.4 C 9.26 g/m*3 11.4 C 11.40833 km/h
2737 18-12-2019 01:00:00 11.31667 C 9.1 g/m*3 11.32 C 10.75 km/h
2738 18-12-2019 02:00:00 11.45833 C 9.26 g/m*3 11.46 C 8.85 km/h
2739 18-12-2019 03:00:00 11.19167 C 9.32 g/m*3 11.19 C 2.13333 km/h
2740 18-12-2019 04:00:00 10.53333 C 8.95 g/m*3 10.53 C 4.95833 km/h
2741 18-12-2019 05:00:00 9.69167 C 8.42 g/m*3 9.69 C 0.4 km/h
2742 18-12-2019 06:00:00 8.7 C 8.03 g/m*3 8.7 C 0.4 km/h
2743 18-12-2019 07:00:00 7.99167 C 7.76 g/m*3 7.99 C 0.13333 km/h
2744 18-12-2019 08:00:00 7.475 C 7.58 g/m*3 7.48 C 0 km/h
2745 18-12-2019 09:00:00 7.29167 C 7.54 g/m*3 7.29 C 0 km/h
2746 18-12-2019 10:00:00 7.79167 C 7.83 g/m*3 7.79 C 0.13333 km/h
2747 18-12-2019 11:00:00 7.60833 C 7.66 g/m*3 7.61 C 1.06667 km/h
2748 18-12-2019 12:00:00 8.43333 C 7.9 g/m*3 7.82 C 5.5 km/h
2749 18-12-2019 13:00:00 8.66667 C 7.8 g/m*3 8.67 C 2 km/h
2750 18-12-2019 14:00:00 8.175 C 7.7 g/m*3 8.18 C 1.2 km/h
Sensor: Nr:Datum:Temp:Abs-Feuchte:Windchill:Wind:
Aussen-T/F 2751 18-12-2019 15:00:00 7.55 C 7.48 g/m*3 7.55 C 2.26667 km/h
2752 18-12-2019 16:00:00 6.88333 C 7.22 g/m*3 6.88 C 3.86667 km/h
2753 18-12-2019 17:00:00 5.93333 C 6.79 g/m*3 5.93 C 1.46667 km/h
2754 18-12-2019 18:00:00 5.4 C 6.66 g/m*3 5.4 C 1.06667 km/h
2755 18-12-2019 19:00:00 5.58333 C 6.78 g/m*3 5.58 C 1.33333 km/h
2756 18-12-2019 20:00:00 5.39167 C 6.69 g/m*3 5.39 C 1.46667 km/h
2757 18-12-2019 21:00:00 4.74167 C 6.41 g/m*3 4.74 C 0 km/h
2758 18-12-2019 22:00:00 3.95833 C 6.09 g/m*3 3.96 C 0.13333 km/h
2759 18-12-2019 23:00:00 3.31667 C 5.84 g/m*3 3.32 C 0 km/h
2760 19-12-2019 00:00:00 3.05833 C 5.77 g/m*3 3.06 C 0.13333 km/h
2761 19-12-2019 01:00:00 2.91667 C 5.73 g/m*3 2.92 C 0.4 km/h
2762 19-12-2019 02:00:00 2.875 C 5.72 g/m*3 2.88 C 0 km/h
2763 19-12-2019 03:00:00 2.675 C 5.64 g/m*3 2.68 C 0.26667 km/h
2764 19-12-2019 04:00:00 2.39167 C 5.54 g/m*3 2.39 C 0 km/h
2765 19-12-2019 05:00:00 2.18333 C 5.46 g/m*3 2.18 C 0 km/h
2766 19-12-2019 06:00:00 1.875 C 5.34 g/m*3 1.88 C 0.4 km/h
2767 19-12-2019 07:00:00 3.075 C 5.83 g/m*3 3.08 C 2.26667 km/h
2768 19-12-2019 08:00:00 5.05833 C 6.68 g/m*3 5.06 C 1.46667 km/h
2769 19-12-2019 09:00:00 5.24167 C 6.77 g/m*3 5.24 C 1.33333 km/h
2770 19-12-2019 10:00:00 6.75833 C 7.47 g/m*3 6.76 C 4.15 km/h
2771 19-12-2019 11:00:00 7.35 C 7.77 g/m*3 7.35 C 2.13333 km/h
2772 19-12-2019 12:00:00 7.59167 C 7.89 g/m*3 7.59 C 1.875 km/h
2773 19-12-2019 13:00:00 7.88333 C 8.04 g/m*3 7.88 C 2.8 km/h
2774 19-12-2019 14:00:00 7.96667 C 8.03 g/m*3 7.97 C 2.8 km/h
2775 19-12-2019 15:00:00 9.23333 C 8.3 g/m*3 7.98 C 8.59167 km/h
Sensor: Nr:Datum:Temp:Abs-Feuchte:Windchill:Wind:
Aussen-T/F 2776 19-12-2019 16:00:00 9.61667 C 7.98 g/m*3 8.51 C 8.20833 km/h
2777 19-12-2019 17:00:00 7.6 C 7.17 g/m*3 7.6 C 0.8 km/h
2778 19-12-2019 18:00:00 6.30833 C 6.98 g/m*3 6.31 C 1.86667 km/h
2779 19-12-2019 19:00:00 6.29167 C 7.01 g/m*3 6.29 C 0.53333 km/h
2780 19-12-2019 20:00:00 6.23333 C 7.03 g/m*3 6.23 C 3.74167 km/h
2781 19-12-2019 21:00:00 6.65833 C 7.21 g/m*3 6.66 C 1.86667 km/h
2782 19-12-2019 22:00:00 6.75833 C 7.27 g/m*3 6.76 C 0.53333 km/h
2783 19-12-2019 23:00:00 6.31667 C 7.08 g/m*3 6.32 C 0.26667 km/h
2784 20-12-2019 00:00:00 5.44167 C 6.65 g/m*3 5.44 C 1.46667 km/h
2785 20-12-2019 01:00:00 4.30833 C 6.21 g/m*3 4.31 C 0.93333 km/h
2786 20-12-2019 02:00:00 4 C 6.12 g/m*3 4 C 2.275 km/h
2787 20-12-2019 03:00:00 5.275 C 6.71 g/m*3 4.12 C 5.75833 km/h
2788 20-12-2019 04:00:00 5.36667 C 6.7 g/m*3 5.37 C 2.4 km/h
2789 20-12-2019 05:00:00 6 C 6.94 g/m*3 5.14 C 5.21667 km/h
2790 20-12-2019 06:00:00 6.7 C 6.94 g/m*3 5.15 C 7.925 km/h
2791 20-12-2019 07:00:00 7.35 C 6.91 g/m*3 6.58 C 5.5 km/h
2792 20-12-2019 08:00:00 7.525 C 7.02 g/m*3 7.53 C 1.06667 km/h
2793 20-12-2019 09:00:00 7.375 C 7.13 g/m*3 7.38 C 1.46667 km/h
2794 20-12-2019 10:00:00 7.06667 C 7.09 g/m*3 7.07 C 1.2 km/h
2795 20-12-2019 11:00:00 7.275 C 7.46 g/m*3 7.28 C 2.55 km/h
2796 20-12-2019 12:00:00 8.375 C 8.05 g/m*3 7.17 C 7.66667 km/h
2797 20-12-2019 13:00:00 9.20833 C 8.44 g/m*3 7.58 C 10.60833 km/h
2798 20-12-2019 14:00:00 9.38333 C 8.46 g/m*3 8.02 C 9.29167 km/h
2799 20-12-2019 15:00:00 9.2 C 8.41 g/m*3 9.2 C 4.94167 km/h
2800 20-12-2019 16:00:00 9.325 C 8.6 g/m*3 9.32 C 4.66667 km/h
Sensor: Nr:Datum:Temp:Abs-Feuchte:Windchill:Wind:
Aussen-T/F 2801 20-12-2019 17:00:00 9.79167 C 8.83 g/m*3 9.79 C 4.55833 km/h
2802 20-12-2019 18:00:00 9.66667 C 8.72 g/m*3 8.78 C 7.24167 km/h
2803 20-12-2019 19:00:00 10.18333 C 8.56 g/m*3 8.58 C 11.7 km/h
2804 20-12-2019 20:00:00 9.76667 C 8.1 g/m*3 8.29 C 10.34167 km/h
2805 20-12-2019 21:00:00 9.10833 C 7.7 g/m*3 7.89 C 8.325 km/h
2806 20-12-2019 22:00:00 9.05 C 7.57 g/m*3 7.51 C 9.91667 km/h
2807 20-12-2019 23:00:00 8.84167 C 7.54 g/m*3 8.33 C 5.35 km/h
2808 21-12-2019 00:00:00 8.34167 C 7.42 g/m*3 8.34 C 2.94167 km/h
2809 21-12-2019 01:00:00 8.075 C 7.5 g/m*3 8.07 C 0.4 km/h
2810 21-12-2019 02:00:00 8.34167 C 7.62 g/m*3 8.34 C 3.35 km/h
2811 21-12-2019 03:00:00 8.225 C 7.55 g/m*3 8.23 C 0.66667 km/h
2812 21-12-2019 04:00:00 7.60833 C 7.36 g/m*3 7.61 C 0.8 km/h
2813 21-12-2019 05:00:00 6.69167 C 7.06 g/m*3 6.69 C 2.13333 km/h
2814 21-12-2019 06:00:00 5.60833 C 6.63 g/m*3 5.61 C 1.6 km/h
2815 21-12-2019 07:00:00 4.74167 C 6.32 g/m*3 4.74 C 0 km/h
2816 21-12-2019 08:00:00 4.725 C 6.39 g/m*3 4.72 C 2.00833 km/h
2817 21-12-2019 09:00:00 5.5 C 6.74 g/m*3 5.5 C 1.33333 km/h
2818 21-12-2019 10:00:00 5.85833 C 6.83 g/m*3 5.86 C 0.93333 km/h
2819 21-12-2019 11:00:00 6.30833 C 7.04 g/m*3 6.31 C 0.26667 km/h
2820 21-12-2019 12:00:00 6.88333 C 7.27 g/m*3 6.88 C 4.55833 km/h
2821 21-12-2019 13:00:00 8.01667 C 7.43 g/m*3 8.02 C 4.56667 km/h
2822 21-12-2019 14:00:00 9.05833 C 7.54 g/m*3 9.06 C 3.74167 km/h
2823 21-12-2019 15:00:00 9.10833 C 7.45 g/m*3 9.11 C 4.425 km/h
2824 21-12-2019 16:00:00 8.325 C 7.39 g/m*3 8.32 C 1.2 km/h
2825 21-12-2019 17:00:00 8.04167 C 7.38 g/m*3 8.04 C 0.53333 km/h
Sensor: Nr:Datum:Temp:Abs-Feuchte:Windchill:Wind:
Aussen-T/F 2826 21-12-2019 18:00:00 8.125 C 7.2 g/m*3 8.13 C 4.29167 km/h
2827 21-12-2019 19:00:00 7.875 C 7.12 g/m*3 7.88 C 1.2 km/h
2828 21-12-2019 20:00:00 7.76667 C 7.04 g/m*3 7.77 C 1.2 km/h
2829 21-12-2019 21:00:00 7.13333 C 6.9 g/m*3 7.13 C 1.46667 km/h
2830 21-12-2019 22:00:00 6.56667 C 6.62 g/m*3 5.78 C 5.21667 km/h
2831 21-12-2019 23:00:00 7.03333 C 6.56 g/m*3 5.78 C 6.99167 km/h
2832 22-12-2019 00:00:00 7.48333 C 6.8 g/m*3 5.67 C 9.79167 km/h
2833 22-12-2019 01:00:00 6.98333 C 7.04 g/m*3 6.98 C 4.275 km/h
2834 22-12-2019 02:00:00 6.75 C 7.09 g/m*3 5.85 C 5.63333 km/h
2835 22-12-2019 03:00:00 6.95 C 7.14 g/m*3 6.95 C 4.68333 km/h
2836 22-12-2019 04:00:00 7.06667 C 7.16 g/m*3 7.07 C 3.475 km/h
2837 22-12-2019 05:00:00 6.89167 C 7.08 g/m*3 6.89 C 3.075 km/h
2838 22-12-2019 06:00:00 6.48333 C 7 g/m*3 6.48 C 3.34167 km/h
2839 22-12-2019 07:00:00 6.83333 C 7.22 g/m*3 6.83 C 1.875 km/h
2840 22-12-2019 08:00:00 6.975 C 7.34 g/m*3 6.98 C 1.06667 km/h
2841 22-12-2019 09:00:00 7.29167 C 7.5 g/m*3 7.29 C 2.275 km/h
2842 22-12-2019 10:00:00 8.56667 C 7.98 g/m*3 8.57 C 4.14167 km/h
2843 22-12-2019 11:00:00 10.06667 C 8.22 g/m*3 9.31 C 6.98333 km/h
2844 22-12-2019 12:00:00 10.70833 C 8.42 g/m*3 9.88 C 7.80833 km/h
2845 22-12-2019 13:00:00 10.95 C 8.36 g/m*3 9.26 C 13.56667 km/h
2846 22-12-2019 14:00:00 11.06667 C 8.24 g/m*3 11.07 C 12.9 km/h
2847 22-12-2019 15:00:00 10.44167 C 8.12 g/m*3 8.08 C 18.50833 km/h
2848 22-12-2019 16:00:00 9.34167 C 7.58 g/m*3 7.02 C 15.69167 km/h
2849 22-12-2019 17:00:00 8.16667 C 7.4 g/m*3 5.68 C 14.76667 km/h
2850 22-12-2019 18:00:00 7.825 C 7.3 g/m*3 5.78 C 11.425 km/h
Sensor: Nr:Datum:Temp:Abs-Feuchte:Windchill:Wind:
Aussen-T/F 2851 22-12-2019 19:00:00 7.88333 C 7.41 g/m*3 5.84 C 11.43333 km/h
2852 22-12-2019 20:00:00 8.4 C 7.18 g/m*3 6.12 C 13.7 km/h
2853 22-12-2019 21:00:00 8.34167 C 7.16 g/m*3 6.31 C 11.96667 km/h
2854 22-12-2019 22:00:00 7.85 C 7.07 g/m*3 6.6 C 7.51667 km/h
2855 22-12-2019 23:00:00 7.09167 C 7.02 g/m*3 7.09 C 1.33333 km/h
2856 23-12-2019 00:00:00 7.14167 C 7.12 g/m*3 7.14 C 2.26667 km/h
2857 23-12-2019 01:00:00 7.325 C 7.1 g/m*3 6.39 C 6.03333 km/h
2858 23-12-2019 02:00:00 7.35833 C 7.05 g/m*3 5.95 C 7.79167 km/h
2859 23-12-2019 03:00:00 7.15 C 7.04 g/m*3 5.61 C 8.19167 km/h
2860 23-12-2019 04:00:00 7.25833 C 7.1 g/m*3 6.52 C 5.35833 km/h
2861 23-12-2019 05:00:00 7.23333 C 7.19 g/m*3 6.28 C 6.03333 km/h
2862 23-12-2019 06:00:00 7.21667 C 7.21 g/m*3 6.52 C 5.225 km/h
2863 23-12-2019 07:00:00 7.56667 C 7.36 g/m*3 6.58 C 6.30833 km/h
2864 23-12-2019 08:00:00 7.85833 C 7.35 g/m*3 6.51 C 7.90833 km/h
2865 23-12-2019 09:00:00 8.15833 C 7.37 g/m*3 6.32 C 10.61667 km/h
2866 23-12-2019 10:00:00 7.89167 C 7.48 g/m*3 6.64 C 7.51667 km/h
2867 23-12-2019 11:00:00 8.425 C 7.57 g/m*3 7.03 C 8.6 km/h
2868 23-12-2019 12:00:00 9.28333 C 7.6 g/m*3 8.04 C 8.60833 km/h
2869 23-12-2019 13:00:00 9.125 C 7.76 g/m*3 8.18 C 7.1 km/h
2870 23-12-2019 14:00:00 9.33333 C 7.67 g/m*3 7.94 C 9.40833 km/h
2871 23-12-2019 15:00:00 9.30833 C 7.58 g/m*3 7.74 C 10.35 km/h
2872 23-12-2019 16:00:00 8.99167 C 7.43 g/m*3 7.44 C 9.95 km/h
2873 23-12-2019 17:00:00 8.49167 C 7.17 g/m*3 7.32 C 7.64167 km/h
2874 23-12-2019 18:00:00 8.18333 C 7.08 g/m*3 7.11 C 7 km/h
2875 23-12-2019 19:00:00 7.575 C 7.03 g/m*3 6.72 C 5.89167 km/h
Sensor: Nr:Datum:Temp:Abs-Feuchte:Windchill:Wind:
Aussen-T/F 2876 23-12-2019 20:00:00 7.21667 C 7.05 g/m*3 7.22 C 2.93333 km/h
2877 23-12-2019 21:00:00 7.30833 C 7.12 g/m*3 6.33 C 6.16667 km/h
2878 23-12-2019 22:00:00 6.64167 C 6.86 g/m*3 6.64 C 4.00833 km/h
2879 23-12-2019 23:00:00 5.88333 C 6.55 g/m*3 5.88 C 4.54167 km/h
2880 24-12-2019 00:00:00 6.04167 C 6.76 g/m*3 6.04 C 3.6 km/h
2881 24-12-2019 01:00:00 6.325 C 6.83 g/m*3 6.33 C 3.35 km/h
2882 24-12-2019 02:00:00 6.39167 C 6.87 g/m*3 6.39 C 1.34167 km/h
2883 24-12-2019 03:00:00 6.55833 C 6.8 g/m*3 5.82 C 5.08333 km/h
2884 24-12-2019 04:00:00 5.90833 C 6.64 g/m*3 5.91 C 1.73333 km/h
2885 24-12-2019 05:00:00 5.76667 C 6.64 g/m*3 5.77 C 2.26667 km/h
2886 24-12-2019 06:00:00 5.28333 C 6.48 g/m*3 5.28 C 0.66667 km/h
2887 24-12-2019 07:00:00 5.61667 C 6.65 g/m*3 5.62 C 0.66667 km/h
2888 24-12-2019 08:00:00 6.53333 C 6.86 g/m*3 6.53 C 1.2 km/h
2889 24-12-2019 09:00:00 7.25 C 6.96 g/m*3 7.25 C 4.69167 km/h
2890 24-12-2019 10:00:00 7.34167 C 7.21 g/m*3 7.34 C 2.675 km/h
2891 24-12-2019 11:00:00 7.85833 C 7.56 g/m*3 6.85 C 6.55833 km/h
2892 24-12-2019 12:00:00 8.5 C 7.61 g/m*3 6.1 C 14.76667 km/h
2893 24-12-2019 13:00:00 9.5 C 7.84 g/m*3 7.9 C 10.75833 km/h
2894 24-12-2019 14:00:00 9.85833 C 7.94 g/m*3 7.92 C 13.56667 km/h
2895 24-12-2019 15:00:00 10.025 C 7.84 g/m*3 8.45 C 11.3 km/h
2896 24-12-2019 16:00:00 10.275 C 7.63 g/m*3 9.04 C 9.54167 km/h
2897 24-12-2019 17:00:00 9.84167 C 7.43 g/m*3 8.07 C 12.36667 km/h
2898 24-12-2019 18:00:00 9.23333 C 7.62 g/m*3 7.9 C 9 km/h
2899 24-12-2019 19:00:00 7.675 C 7.37 g/m*3 5.89 C 9.80833 km/h
2900 24-12-2019 20:00:00 7.26667 C 7.31 g/m*3 5.78 C 8.05833 km/h
Sensor: Nr:Datum:Temp:Abs-Feuchte:Windchill:Wind:
Aussen-T/F 2901 24-12-2019 21:00:00 7.85 C 7.44 g/m*3 6.05 C 10.09167 km/h
2902 24-12-2019 22:00:00 8.68333 C 7.47 g/m*3 6.93 C 10.74167 km/h
2903 24-12-2019 23:00:00 8.73333 C 7.61 g/m*3 6.85 C 11.55833 km/h
2904 25-12-2019 00:00:00 8.8 C 7.7 g/m*3 6.67 C 13.3 km/h
2905 25-12-2019 01:00:00 8.4 C 7.73 g/m*3 7.03 C 8.46667 km/h
2906 25-12-2019 02:00:00 8.28333 C 7.69 g/m*3 6.67 C 9.53333 km/h
2907 25-12-2019 03:00:00 8.60833 C 7.83 g/m*3 7.08 C 9.425 km/h
2908 25-12-2019 04:00:00 8.68333 C 7.98 g/m*3 7.95 C 6.025 km/h
2909 25-12-2019 05:00:00 8.5 C 8 g/m*3 8.5 C 4.81667 km/h
2910 25-12-2019 06:00:00 8.06667 C 7.76 g/m*3 8.07 C 1.875 km/h
2911 25-12-2019 07:00:00 7.91667 C 7.6 g/m*3 7.92 C 3.075 km/h
2912 25-12-2019 08:00:00 7.41667 C 7.2 g/m*3 5.22 C 11.81667 km/h
2913 25-12-2019 09:00:00 7.625 C 7.14 g/m*3 6.54 C 6.7 km/h
2914 25-12-2019 10:00:00 7.925 C 7.1 g/m*3 6.75 C 7.24167 km/h
2915 25-12-2019 11:00:00 8.13333 C 7.19 g/m*3 6.44 C 9.81667 km/h
2916 25-12-2019 12:00:00 8.11667 C 7.3 g/m*3 6.11 C 11.54167 km/h
2917 25-12-2019 13:00:00 7.925 C 7.36 g/m*3 6.41 C 8.74167 km/h
2918 25-12-2019 14:00:00 8.05833 C 7.41 g/m*3 6.43 C 9.4 km/h
2919 25-12-2019 15:00:00 7.975 C 7.41 g/m*3 6.71 C 7.65 km/h
2920 25-12-2019 16:00:00 7.75833 C 7.28 g/m*3 7.76 C 3.75 km/h
2921 25-12-2019 17:00:00 7.25 C 7.05 g/m*3 7.25 C 1.46667 km/h
2922 25-12-2019 18:00:00 6.8 C 6.96 g/m*3 6.8 C 0.93333 km/h
2923 25-12-2019 19:00:00 6.725 C 6.94 g/m*3 6.73 C 1.46667 km/h
2924 25-12-2019 20:00:00 6.64167 C 6.96 g/m*3 6.64 C 2.26667 km/h
2925 25-12-2019 21:00:00 6.33333 C 6.93 g/m*3 6.33 C 1.33333 km/h
Sensor: Nr:Datum:Temp:Abs-Feuchte:Windchill:Wind:
Aussen-T/F 2926 25-12-2019 22:00:00 6.05 C 6.91 g/m*3 6.05 C 0.8 km/h
2927 25-12-2019 23:00:00 5.94167 C 6.87 g/m*3 5.94 C 0.66667 km/h
2928 26-12-2019 00:00:00 4.98333 C 6.46 g/m*3 4.98 C 0.4 km/h
2929 26-12-2019 01:00:00 5.11667 C 6.57 g/m*3 5.12 C 1.06667 km/h
2930 26-12-2019 02:00:00 5.075 C 6.56 g/m*3 5.08 C 1.06667 km/h
2931 26-12-2019 03:00:00 4.94167 C 6.5 g/m*3 4.94 C 0.26667 km/h
2932 26-12-2019 04:00:00 4.4 C 6.27 g/m*3 4.4 C 0.66667 km/h
2933 26-12-2019 05:00:00 4.25833 C 6.26 g/m*3 4.26 C 0.13333 km/h
2934 26-12-2019 06:00:00 4.325 C 6.3 g/m*3 4.33 C 0 km/h
2935 26-12-2019 07:00:00 4.325 C 6.3 g/m*3 4.33 C 0 km/h
2936 26-12-2019 08:00:00 4.23333 C 6.26 g/m*3 4.23 C 0 km/h
2937 26-12-2019 09:00:00 4.35 C 6.31 g/m*3 4.35 C 0 km/h
2938 26-12-2019 10:00:00 4.65833 C 6.44 g/m*3 4.66 C 0 km/h
2939 26-12-2019 11:00:00 5.5 C 6.81 g/m*3 5.5 C 0.13333 km/h
2940 26-12-2019 12:00:00 5.89167 C 6.98 g/m*3 5.89 C 0 km/h
2941 26-12-2019 13:00:00 6.26667 C 7.09 g/m*3 6.27 C 0 km/h
2942 26-12-2019 14:00:00 6.275 C 7.06 g/m*3 6.28 C 0 km/h
2943 26-12-2019 15:00:00 6.00833 C 6.9 g/m*3 6.01 C 0 km/h
2944 26-12-2019 16:00:00 5.34167 C 6.61 g/m*3 5.34 C 0 km/h
2945 26-12-2019 17:00:00 5.03333 C 6.54 g/m*3 5.03 C 0.26667 km/h
2946 26-12-2019 18:00:00 4.81667 C 6.44 g/m*3 4.82 C 0 km/h
2947 26-12-2019 19:00:00 4.74167 C 6.41 g/m*3 4.74 C 0.13333 km/h
2948 26-12-2019 20:00:00 4.71667 C 6.4 g/m*3 4.72 C 0.26667 km/h
2949 26-12-2019 21:00:00 4.79167 C 6.43 g/m*3 4.79 C 0.53333 km/h
2950 26-12-2019 22:00:00 4.89167 C 6.48 g/m*3 4.89 C 0.13333 km/h
Sensor: Nr:Datum:Temp:Abs-Feuchte:Windchill:Wind:
Aussen-T/F 2951 26-12-2019 23:00:00 4.9 C 6.48 g/m*3 4.9 C 0.4 km/h
2952 27-12-2019 00:00:00 4.9 C 6.49 g/m*3 4.9 C 0 km/h
2953 27-12-2019 01:00:00 4.91667 C 6.55 g/m*3 4.92 C 0 km/h
2954 27-12-2019 02:00:00 4.98333 C 6.58 g/m*3 4.98 C 0 km/h
2955 27-12-2019 03:00:00 5.08333 C 6.63 g/m*3 5.08 C 0 km/h
2956 27-12-2019 04:00:00 5.15833 C 6.66 g/m*3 5.16 C 0 km/h
2957 27-12-2019 05:00:00 5.2 C 6.68 g/m*3 5.2 C 0 km/h
2958 27-12-2019 06:00:00 5.29167 C 6.72 g/m*3 5.29 C 0 km/h
2959 27-12-2019 07:00:00 5.3 C 6.72 g/m*3 5.3 C 0 km/h
2960 27-12-2019 08:00:00 5.13333 C 6.65 g/m*3 5.13 C 0.26667 km/h
2961 27-12-2019 09:00:00 5.25833 C 6.7 g/m*3 5.26 C 1.2 km/h
2962 27-12-2019 10:00:00 5.575 C 6.85 g/m*3 5.58 C 0.4 km/h
2963 27-12-2019 11:00:00 5.7 C 6.9 g/m*3 5.7 C 1.33333 km/h
2964 27-12-2019 12:00:00 6.10833 C 6.96 g/m*3 6.11 C 3.33333 km/h
2965 27-12-2019 13:00:00 6.18333 C 6.83 g/m*3 6.18 C 2.8 km/h
2966 27-12-2019 14:00:00 6.275 C 6.68 g/m*3 6.28 C 2.93333 km/h
2967 27-12-2019 15:00:00 6.21667 C 6.53 g/m*3 6.22 C 0.94167 km/h
2968 27-12-2019 16:00:00 5.8 C 6.52 g/m*3 5.8 C 0 km/h
2969 27-12-2019 17:00:00 5.25833 C 6.41 g/m*3 5.26 C 0 km/h
2970 27-12-2019 18:00:00 5.01667 C 6.33 g/m*3 5.02 C 0.93333 km/h
2971 27-12-2019 19:00:00 4.76667 C 6.22 g/m*3 4.77 C 0.8 km/h
2972 27-12-2019 20:00:00 4.55 C 6.13 g/m*3 4.55 C 0 km/h
2973 27-12-2019 21:00:00 4.525 C 6.13 g/m*3 4.53 C 0 km/h
2974 27-12-2019 22:00:00 3.70833 C 5.72 g/m*3 3.71 C 0 km/h
2975 27-12-2019 23:00:00 2.00833 C 5.15 g/m*3 2.01 C 0.13333 km/h
Sensor: Nr:Datum:Temp:Abs-Feuchte:Windchill:Wind:
Aussen-T/F 2976 28-12-2019 00:00:00 1.075 C 4.9 g/m*3 1.08 C 2 km/h
2977 28-12-2019 01:00:00 0.53333 C 4.76 g/m*3 0.53 C 0.4 km/h
2978 28-12-2019 02:00:00 -0.13333 C 4.56 g/m*3 -0.13 C 0 km/h
2979 28-12-2019 03:00:00 -0.58333 C 4.44 g/m*3 -0.58 C 0 km/h
2980 28-12-2019 04:00:00 -0.9 C 4.36 g/m*3 -0.9 C 0 km/h
2981 28-12-2019 05:00:00 -1.18333 C 4.28 g/m*3 -1.18 C 0 km/h
2982 28-12-2019 06:00:00 -1.25833 C 4.26 g/m*3 -1.26 C 0.13333 km/h
2983 28-12-2019 07:00:00 -1.35833 C 4.23 g/m*3 -1.36 C 0 km/h
2984 28-12-2019 08:00:00 -1.61667 C 4.16 g/m*3 -1.62 C 0 km/h
2985 28-12-2019 09:00:00 -1.525 C 4.19 g/m*3 -1.53 C 0.13333 km/h
2986 28-12-2019 10:00:00 -0.63333 C 4.5 g/m*3 -0.63 C 0.93333 km/h
2987 28-12-2019 11:00:00 -0.05833 C 4.68 g/m*3 -0.06 C 0.53333 km/h
2988 28-12-2019 12:00:00 0.53333 C 4.88 g/m*3 0.53 C 0 km/h
2989 28-12-2019 13:00:00 1.175 C 5.1 g/m*3 1.18 C 0.13333 km/h
2990 28-12-2019 14:00:00 1.325 C 5.15 g/m*3 1.33 C 0.26667 km/h
2991 28-12-2019 15:00:00 1.08333 C 5.02 g/m*3 1.08 C 0.26667 km/h
2992 28-12-2019 16:00:00 0.7 C 4.88 g/m*3 0.7 C 0 km/h
2993 28-12-2019 17:00:00 0.19167 C 4.71 g/m*3 0.19 C 0 km/h
2994 28-12-2019 18:00:00 -0.275 C 4.56 g/m*3 -0.28 C 0 km/h
2995 28-12-2019 19:00:00 -0.525 C 4.49 g/m*3 -0.53 C 0 km/h
2996 28-12-2019 20:00:00 -0.46667 C 4.5 g/m*3 -0.47 C 0.26667 km/h
2997 28-12-2019 21:00:00 -0.45 C 4.51 g/m*3 -0.45 C 0.8 km/h
2998 28-12-2019 22:00:00 -0.975 C 4.35 g/m*3 -0.98 C 0 km/h
2999 28-12-2019 23:00:00 -1.26667 C 4.26 g/m*3 -1.27 C 0 km/h
3000 29-12-2019 00:00:00 -1.58333 C 4.17 g/m*3 -1.58 C 0 km/h
Sensor: Nr:Datum:Temp:Abs-Feuchte:Windchill:Wind:
Aussen-T/F 3001 29-12-2019 01:00:00 -1.925 C 4.07 g/m*3 -1.93 C 0 km/h
3002 29-12-2019 02:00:00 -2.25833 C 3.97 g/m*3 -2.26 C 0 km/h
3003 29-12-2019 03:00:00 -2.525 C 3.9 g/m*3 -2.53 C 0 km/h
3004 29-12-2019 04:00:00 -2.65 C 3.87 g/m*3 -2.65 C 0 km/h
3005 29-12-2019 05:00:00 -3 C 3.77 g/m*3 -3 C 0 km/h
3006 29-12-2019 06:00:00 -3.26667 C 3.7 g/m*3 -3.27 C 0 km/h
3007 29-12-2019 07:00:00 -3.54167 C 3.63 g/m*3 -3.54 C 0 km/h
3008 29-12-2019 08:00:00 -3.24167 C 3.72 g/m*3 -3.24 C 0 km/h
3009 29-12-2019 09:00:00 -2.90833 C 3.8 g/m*3 -2.91 C 0 km/h
3010 29-12-2019 10:00:00 -2.51667 C 3.93 g/m*3 -2.52 C 0.13333 km/h
3011 29-12-2019 11:00:00 -1.05833 C 4.37 g/m*3 -1.06 C 0.26667 km/h
3012 29-12-2019 12:00:00 0.38333 C 4.83 g/m*3 0.38 C 0.66667 km/h
3013 29-12-2019 13:00:00 1.36667 C 5.16 g/m*3 1.37 C 0 km/h
3014 29-12-2019 14:00:00 2.05833 C 5.39 g/m*3 2.06 C 0.4 km/h
3015 29-12-2019 15:00:00 2.25 C 5.23 g/m*3 2.25 C 2 km/h
3016 29-12-2019 16:00:00 1.31667 C 4.9 g/m*3 1.32 C 0 km/h
3017 29-12-2019 17:00:00 0.54167 C 4.72 g/m*3 0.54 C 0.26667 km/h
3018 29-12-2019 18:00:00 0.64167 C 4.8 g/m*3 0.64 C 0 km/h
3019 29-12-2019 19:00:00 0.08333 C 4.58 g/m*3 0.08 C 0 km/h
3020 29-12-2019 20:00:00 -0.24167 C 4.48 g/m*3 -0.24 C 0 km/h
3021 29-12-2019 21:00:00 -0.60833 C 4.37 g/m*3 -0.61 C 0.13333 km/h
3022 29-12-2019 22:00:00 -1.09167 C 4.23 g/m*3 -1.09 C 0 km/h
3023 29-12-2019 23:00:00 -1.33333 C 4.2 g/m*3 -1.33 C 0 km/h
3024 30-12-2019 00:00:00 -1.66667 C 4.1 g/m*3 -1.67 C 0 km/h
3025 30-12-2019 01:00:00 -1.825 C 4.05 g/m*3 -1.83 C 0 km/h
Sensor: Nr:Datum:Temp:Abs-Feuchte:Windchill:Wind:
Aussen-T/F 3026 30-12-2019 02:00:00 -1.99167 C 4.03 g/m*3 -1.99 C 0 km/h
3027 30-12-2019 03:00:00 -2.025 C 4.04 g/m*3 -2.03 C 0 km/h
3028 30-12-2019 04:00:00 -2.38333 C 3.94 g/m*3 -2.38 C 0 km/h
3029 30-12-2019 05:00:00 -2.59167 C 3.88 g/m*3 -2.59 C 0 km/h
3030 30-12-2019 06:00:00 -2.675 C 3.86 g/m*3 -2.68 C 0 km/h
3031 30-12-2019 07:00:00 -2.79167 C 3.83 g/m*3 -2.79 C 0 km/h
3032 30-12-2019 08:00:00 -3.06667 C 3.75 g/m*3 -3.07 C 0 km/h
3033 30-12-2019 09:00:00 -2.70833 C 3.85 g/m*3 -2.71 C 0 km/h
3034 30-12-2019 10:00:00 -2.225 C 4 g/m*3 -2.23 C 0 km/h
3035 30-12-2019 11:00:00 -1.61667 C 4.2 g/m*3 -1.62 C 0 km/h
3036 30-12-2019 12:00:00 -0.725 C 4.47 g/m*3 -0.73 C 0.13333 km/h
3037 30-12-2019 13:00:00 0.2 C 4.76 g/m*3 0.2 C 0.13333 km/h
3038 30-12-2019 14:00:00 0.875 C 4.93 g/m*3 0.88 C 1.06667 km/h
3039 30-12-2019 15:00:00 1.50833 C 5.07 g/m*3 1.51 C 1.6 km/h
3040 30-12-2019 16:00:00 2.025 C 5.18 g/m*3 2.03 C 1.73333 km/h
3041 30-12-2019 17:00:00 1.65 C 5.05 g/m*3 1.65 C 0 km/h
3042 30-12-2019 18:00:00 0.90833 C 4.76 g/m*3 0.91 C 0 km/h
3043 30-12-2019 19:00:00 0.28333 C 4.55 g/m*3 0.28 C 1.2 km/h
3044 30-12-2019 20:00:00 0.18333 C 4.42 g/m*3 0.18 C 1.33333 km/h
3045 30-12-2019 21:00:00 -0.175 C 4.41 g/m*3 -0.18 C 3.06667 km/h
3046 30-12-2019 22:00:00 -0.23333 C 4.32 g/m*3 -0.23 C 1.86667 km/h
3047 30-12-2019 23:00:00 -0.175 C 4.36 g/m*3 -0.18 C 1.73333 km/h
3048 31-12-2019 00:00:00 -0.05 C 4.37 g/m*3 -0.05 C 1.2 km/h
3049 31-12-2019 01:00:00 -0.15833 C 4.39 g/m*3 -0.16 C 1.33333 km/h
3050 31-12-2019 02:00:00 -1.03333 C 4.18 g/m*3 -1.03 C 0.66667 km/h
Sensor: Nr:Datum:Temp:Abs-Feuchte:Windchill:Wind:
Aussen-T/F 3051 31-12-2019 03:00:00 -0.9 C 4.28 g/m*3 -0.9 C 0.66667 km/h
3052 31-12-2019 04:00:00 -1.53333 C 4.09 g/m*3 -1.53 C 0.4 km/h
3053 31-12-2019 05:00:00 -1.70833 C 4.08 g/m*3 -1.71 C 0.26667 km/h
3054 31-12-2019 06:00:00 -1.79167 C 4.06 g/m*3 -1.79 C 0.26667 km/h
3055 31-12-2019 07:00:00 -1.70833 C 4.11 g/m*3 -1.71 C 0 km/h
3056 31-12-2019 08:00:00 -0.70833 C 4.43 g/m*3 -0.71 C 1.86667 km/h
3057 31-12-2019 09:00:00 -0.1 C 4.62 g/m*3 -0.1 C 0.53333 km/h
3058 31-12-2019 10:00:00 0.46667 C 4.79 g/m*3 0.47 C 0.26667 km/h
3059 31-12-2019 11:00:00 1.20833 C 4.95 g/m*3 1.21 C 0.13333 km/h
3060 31-12-2019 12:00:00 2.275 C 5.23 g/m*3 2.28 C 1.33333 km/h
3061 31-12-2019 13:00:00 2.84167 C 5.24 g/m*3 2.84 C 0.13333 km/h
3062 31-12-2019 14:00:00 3.26667 C 5.31 g/m*3 3.27 C 0 km/h
3063 31-12-2019 15:00:00 3.48333 C 5.37 g/m*3 3.48 C 0 km/h
3064 31-12-2019 16:00:00 2.26667 C 5.05 g/m*3 2.27 C 0 km/h
3065 31-12-2019 17:00:00 0.65833 C 4.69 g/m*3 0.66 C 0 km/h
3066 31-12-2019 18:00:00 0.31667 C 4.67 g/m*3 0.32 C 0 km/h
3067 31-12-2019 19:00:00 0.875 C 4.89 g/m*3 0.88 C 0 km/h
3068 31-12-2019 20:00:00 1.26667 C 5.03 g/m*3 1.27 C 0 km/h
3069 31-12-2019 21:00:00 1.23333 C 5.01 g/m*3 1.23 C 0.13333 km/h
3070 31-12-2019 22:00:00 1.18333 C 4.99 g/m*3 1.18 C 0.13333 km/h
3071 31-12-2019 23:00:00 0.90833 C 4.92 g/m*3 0.91 C 0 km/h
3072 01-01-2020 00:00:00 0.98333 C 4.96 g/m*3 0.98 C 0.4 km/h
3073 01-01-2020 01:00:00 0.35 C 4.75 g/m*3 0.35 C 0.4 km/h
3074 01-01-2020 02:00:00 0.50833 C 4.82 g/m*3 0.51 C 0 km/h
3075 01-01-2020 03:00:00 1.06667 C 5.01 g/m*3 1.07 C 0 km/h
Sensor: Nr:Datum:Temp:Abs-Feuchte:Windchill:Wind:
Aussen-T/F 3076 01-01-2020 04:00:00 1.15 C 5.03 g/m*3 1.15 C 0.13333 km/h
3077 01-01-2020 05:00:00 1.25 C 5.07 g/m*3 1.25 C 0 km/h
3078 01-01-2020 06:00:00 1.26667 C 5.07 g/m*3 1.27 C 0.53333 km/h
3079 01-01-2020 07:00:00 1.3 C 5.09 g/m*3 1.3 C 0 km/h
3080 01-01-2020 08:00:00 1.425 C 5.13 g/m*3 1.43 C 0 km/h
3081 01-01-2020 09:00:00 1.8 C 5.26 g/m*3 1.8 C 0 km/h
3082 01-01-2020 10:00:00 2.53333 C 5.46 g/m*3 2.53 C 4.4 km/h
3083 01-01-2020 11:00:00 3.125 C 5.5 g/m*3 1.71 C 5.60833 km/h
3084 01-01-2020 12:00:00 3.375 C 5.49 g/m*3 3.38 C 2.53333 km/h
3085 01-01-2020 13:00:00 2.70833 C 5.31 g/m*3 2.71 C 0.53333 km/h
3086 01-01-2020 14:00:00 2.35833 C 5.33 g/m*3 2.36 C 0.13333 km/h
3087 01-01-2020 15:00:00 2.25 C 5.32 g/m*3 2.25 C 0.93333 km/h
3088 01-01-2020 16:00:00 1.33333 C 4.99 g/m*3 1.33 C 0 km/h
3089 01-01-2020 17:00:00 0.21667 C 4.66 g/m*3 0.22 C 0 km/h
3090 01-01-2020 18:00:00 -0.50833 C 4.46 g/m*3 -0.51 C 0 km/h
3091 01-01-2020 19:00:00 -0.88333 C 4.37 g/m*3 -0.88 C 0 km/h
3092 01-01-2020 20:00:00 -1.19167 C 4.28 g/m*3 -1.19 C 0 km/h
3093 01-01-2020 21:00:00 -1.50833 C 4.19 g/m*3 -1.51 C 0 km/h
3094 01-01-2020 22:00:00 -1.74167 C 4.12 g/m*3 -1.74 C 0 km/h
3095 01-01-2020 23:00:00 -1.66667 C 4.16 g/m*3 -1.67 C 0 km/h
3096 02-01-2020 00:00:00 -1.35 C 4.27 g/m*3 -1.35 C 0 km/h
3097 02-01-2020 01:00:00 -1.11667 C 4.35 g/m*3 -1.12 C 0 km/h
3098 02-01-2020 02:00:00 -0.65833 C 4.49 g/m*3 -0.66 C 0 km/h
3099 02-01-2020 03:00:00 -0.26667 C 4.61 g/m*3 -0.27 C 0 km/h
3100 02-01-2020 04:00:00 0.16667 C 4.75 g/m*3 0.17 C 0.8 km/h
Sensor: Nr:Datum:Temp:Abs-Feuchte:Windchill:Wind:
Aussen-T/F 3101 02-01-2020 05:00:00 0.18333 C 4.76 g/m*3 0.18 C 4.28333 km/h
3102 02-01-2020 06:00:00 0.10833 C 4.73 g/m*3 -2.46 C 7.525 km/h
3103 02-01-2020 07:00:00 0.15833 C 4.69 g/m*3 0.16 C 4.95833 km/h
3104 02-01-2020 08:00:00 0.45833 C 4.76 g/m*3 0.46 C 0.8 km/h
3105 02-01-2020 09:00:00 0.925 C 4.91 g/m*3 0.93 C 2 km/h
3106 02-01-2020 10:00:00 1.36667 C 5.06 g/m*3 1.37 C 0 km/h
3107 02-01-2020 11:00:00 2.01667 C 5.22 g/m*3 2.02 C 0.4 km/h
3108 02-01-2020 12:00:00 2.69167 C 5.37 g/m*3 2.69 C 0.93333 km/h
3109 02-01-2020 13:00:00 3.19167 C 5.49 g/m*3 3.19 C 1.2 km/h
3110 02-01-2020 14:00:00 3.6 C 5.68 g/m*3 3.6 C 0.8 km/h
3111 02-01-2020 15:00:00 3.46667 C 5.65 g/m*3 3.47 C 1.6 km/h
3112 02-01-2020 16:00:00 3.16667 C 5.59 g/m*3 3.17 C 0.4 km/h
3113 02-01-2020 17:00:00 3.025 C 5.58 g/m*3 3.03 C 0 km/h
3114 02-01-2020 18:00:00 2.9 C 5.56 g/m*3 2.9 C 0 km/h
3115 02-01-2020 19:00:00 3.075 C 5.68 g/m*3 3.08 C 0 km/h
3116 02-01-2020 20:00:00 3.2 C 5.72 g/m*3 3.2 C 0 km/h
3117 02-01-2020 21:00:00 3.28333 C 5.76 g/m*3 3.28 C 0 km/h
3118 02-01-2020 22:00:00 3.21667 C 5.77 g/m*3 3.22 C 0 km/h
3119 02-01-2020 23:00:00 3.65833 C 5.97 g/m*3 3.66 C 0 km/h
3120 03-01-2020 00:00:00 3.81667 C 6.03 g/m*3 3.82 C 0 km/h
3121 03-01-2020 01:00:00 4.24167 C 6.2 g/m*3 4.24 C 0 km/h
3122 03-01-2020 02:00:00 4.53333 C 6.32 g/m*3 4.53 C 0 km/h
3123 03-01-2020 03:00:00 4.76667 C 6.48 g/m*3 4.77 C 0 km/h
3124 03-01-2020 04:00:00 4.86667 C 6.53 g/m*3 4.87 C 0.66667 km/h
3125 03-01-2020 05:00:00 5.08333 C 6.62 g/m*3 5.08 C 1.33333 km/h
Sensor: Nr:Datum:Temp:Abs-Feuchte:Windchill:Wind:
Aussen-T/F 3126 03-01-2020 06:00:00 5.425 C 6.73 g/m*3 5.43 C 3.075 km/h
3127 03-01-2020 07:00:00 7.875 C 7.54 g/m*3 5.73 C 12.08333 km/h
3128 03-01-2020 08:00:00 8.34167 C 7.45 g/m*3 6.96 C 8.45833 km/h
3129 03-01-2020 09:00:00 8.675 C 7.43 g/m*3 7.01 C 10.23333 km/h
3130 03-01-2020 10:00:00 8.91667 C 7.42 g/m*3 6.41 C 16.36667 km/h
3131 03-01-2020 11:00:00 8.99167 C 7.49 g/m*3 5.86 C 22.51667 km/h
3132 03-01-2020 12:00:00 8.89167 C 7.51 g/m*3 5.91 C 20.64167 km/h
3133 03-01-2020 13:00:00 8.91667 C 7.63 g/m*3 5.99 C 20.23333 km/h
3134 03-01-2020 14:00:00 8.93333 C 7.75 g/m*3 6.72 C 14.1 km/h
3135 03-01-2020 15:00:00 9.29167 C 7.94 g/m*3 7.18 C 13.96667 km/h
3136 03-01-2020 16:00:00 9.38333 C 8.03 g/m*3 7.07 C 15.7 km/h
3137 03-01-2020 17:00:00 9.29167 C 8.08 g/m*3 6.99 C 15.43333 km/h
3138 03-01-2020 18:00:00 9.56667 C 8.23 g/m*3 7.34 C 15.3 km/h
3139 03-01-2020 19:00:00 9.60833 C 8.33 g/m*3 7.91 C 11.56667 km/h
3140 03-01-2020 20:00:00 9.58333 C 8.43 g/m*3 8.26 C 9.29167 km/h
3141 03-01-2020 21:00:00 8.56667 C 7.91 g/m*3 6.04 C 15.83333 km/h
3142 03-01-2020 22:00:00 7.21667 C 7.15 g/m*3 4.71 C 13.425 km/h
3143 03-01-2020 23:00:00 6.68333 C 6.91 g/m*3 5.26 C 7.4 km/h
3144 04-01-2020 00:00:00 6.34167 C 6.83 g/m*3 6.34 C 4.55 km/h
3145 04-01-2020 01:00:00 5.70833 C 6.52 g/m*3 5.71 C 2.26667 km/h
3146 04-01-2020 02:00:00 4.70833 C 6.13 g/m*3 4.71 C 2.675 km/h
3147 04-01-2020 03:00:00 4.41667 C 6.1 g/m*3 4.42 C 2.13333 km/h
3148 04-01-2020 04:00:00 4.15 C 5.95 g/m*3 4.15 C 2.66667 km/h
3149 04-01-2020 05:00:00 3.30833 C 5.65 g/m*3 3.31 C 2 km/h
3150 04-01-2020 06:00:00 2.90833 C 5.55 g/m*3 1.26 C 6.16667 km/h
Sensor: Nr:Datum:Temp:Abs-Feuchte:Windchill:Wind:
Aussen-T/F 3151 04-01-2020 07:00:00 2.93333 C 5.5 g/m*3 2.93 C 4.675 km/h
3152 04-01-2020 08:00:00 2.26667 C 5.3 g/m*3 2.27 C 2.26667 km/h